<?xml version="1.0" encoding="UTF-8" standalone="no" ?>
<gpx xmlns="http://www.topografix.com/GPX/1/1" xmlns:xsi="http://www.w3.org/2001/XMLSchema-instance" xsi:schemaLocation="http://www.topografix.com/GPX/1/1 http://www.topografix.com/GPX/1/1/gpx.xsd" version="1.1" creator="VisuGPX - https://www.visugpx.com">
  <metadata>
    <name>Camprodon Ultra</name>
    <desc><![CDATA[ Vall de Camprodon]]></desc>
  </metadata>
  <trk>
    <name><![CDATA[Camprodon Ultra trail on GPSies.com]]></name>
    <trkseg>
      <trkpt lat="42.30923" lon="2.36568">
        <ele>945</ele>
        <time>2010-01-01T00:00:00Z</time>
      </trkpt>
      <trkpt lat="42.30953" lon="2.36593">
        <ele>947</ele>
        <time>2010-01-01T00:00:14Z</time>
      </trkpt>
      <trkpt lat="42.30968" lon="2.36573">
        <ele>944</ele>
        <time>2010-01-01T00:00:22Z</time>
      </trkpt>
      <trkpt lat="42.30996" lon="2.36544">
        <ele>943</ele>
        <time>2010-01-01T00:00:36Z</time>
      </trkpt>
      <trkpt lat="42.31007" lon="2.36516">
        <ele>944</ele>
        <time>2010-01-01T00:00:46Z</time>
      </trkpt>
      <trkpt lat="42.31034" lon="2.36526">
        <ele>944</ele>
        <time>2010-01-01T00:00:57Z</time>
      </trkpt>
      <trkpt lat="42.31035" lon="2.36536">
        <ele>944</ele>
        <time>2010-01-01T00:01:00Z</time>
      </trkpt>
      <trkpt lat="42.31064" lon="2.36536">
        <ele>945</ele>
        <time>2010-01-01T00:01:12Z</time>
      </trkpt>
      <trkpt lat="42.31106" lon="2.36539">
        <ele>948</ele>
        <time>2010-01-01T00:01:28Z</time>
      </trkpt>
      <trkpt lat="42.3116" lon="2.36531">
        <ele>950</ele>
        <time>2010-01-01T00:01:50Z</time>
      </trkpt>
      <trkpt lat="42.31196" lon="2.36508">
        <ele>948</ele>
        <time>2010-01-01T00:02:06Z</time>
      </trkpt>
      <trkpt lat="42.31198" lon="2.36537">
        <ele>950</ele>
        <time>2010-01-01T00:02:14Z</time>
      </trkpt>
      <trkpt lat="42.31209" lon="2.36538">
        <ele>952</ele>
        <time>2010-01-01T00:02:19Z</time>
      </trkpt>
      <trkpt lat="42.31234" lon="2.36528">
        <ele>950</ele>
        <time>2010-01-01T00:02:29Z</time>
      </trkpt>
      <trkpt lat="42.31272" lon="2.36514">
        <ele>948</ele>
        <time>2010-01-01T00:02:45Z</time>
      </trkpt>
      <trkpt lat="42.31295" lon="2.36476">
        <ele>946</ele>
        <time>2010-01-01T00:02:59Z</time>
      </trkpt>
      <trkpt lat="42.31295" lon="2.36434">
        <ele>948</ele>
        <time>2010-01-01T00:03:12Z</time>
      </trkpt>
      <trkpt lat="42.31288" lon="2.36416">
        <ele>950</ele>
        <time>2010-01-01T00:03:18Z</time>
      </trkpt>
      <trkpt lat="42.3129" lon="2.3639">
        <ele>951</ele>
        <time>2010-01-01T00:03:26Z</time>
      </trkpt>
      <trkpt lat="42.31293" lon="2.36374">
        <ele>951</ele>
        <time>2010-01-01T00:03:31Z</time>
      </trkpt>
      <trkpt lat="42.31318" lon="2.36316">
        <ele>948</ele>
        <time>2010-01-01T00:03:51Z</time>
      </trkpt>
      <trkpt lat="42.31345" lon="2.3624">
        <ele>949</ele>
        <time>2010-01-01T00:04:16Z</time>
      </trkpt>
      <trkpt lat="42.31336" lon="2.36226">
        <ele>949</ele>
        <time>2010-01-01T00:04:21Z</time>
      </trkpt>
      <trkpt lat="42.31273" lon="2.36239">
        <ele>960</ele>
        <time>2010-01-01T00:04:47Z</time>
      </trkpt>
      <trkpt lat="42.31254" lon="2.36307">
        <ele>953</ele>
        <time>2010-01-01T00:05:08Z</time>
      </trkpt>
      <trkpt lat="42.31231" lon="2.36329">
        <ele>954</ele>
        <time>2010-01-01T00:05:19Z</time>
      </trkpt>
      <trkpt lat="42.31207" lon="2.36309">
        <ele>955</ele>
        <time>2010-01-01T00:05:30Z</time>
      </trkpt>
      <trkpt lat="42.31181" lon="2.36301">
        <ele>953</ele>
        <time>2010-01-01T00:05:41Z</time>
      </trkpt>
      <trkpt lat="42.3117" lon="2.36266">
        <ele>956</ele>
        <time>2010-01-01T00:05:52Z</time>
      </trkpt>
      <trkpt lat="42.31151" lon="2.36243">
        <ele>956</ele>
        <time>2010-01-01T00:06:03Z</time>
      </trkpt>
      <trkpt lat="42.31121" lon="2.36218">
        <ele>952</ele>
        <time>2010-01-01T00:06:17Z</time>
      </trkpt>
      <trkpt lat="42.31101" lon="2.36191">
        <ele>950</ele>
        <time>2010-01-01T00:06:28Z</time>
      </trkpt>
      <trkpt lat="42.31085" lon="2.36184">
        <ele>948</ele>
        <time>2010-01-01T00:06:35Z</time>
      </trkpt>
      <trkpt lat="42.31068" lon="2.36155">
        <ele>958</ele>
        <time>2010-01-01T00:06:46Z</time>
      </trkpt>
      <trkpt lat="42.31045" lon="2.36122">
        <ele>961</ele>
        <time>2010-01-01T00:06:59Z</time>
      </trkpt>
      <trkpt lat="42.31033" lon="2.36107">
        <ele>960</ele>
        <time>2010-01-01T00:07:06Z</time>
      </trkpt>
      <trkpt lat="42.31016" lon="2.36084">
        <ele>960</ele>
        <time>2010-01-01T00:07:15Z</time>
      </trkpt>
      <trkpt lat="42.31007" lon="2.36055">
        <ele>965</ele>
        <time>2010-01-01T00:07:25Z</time>
      </trkpt>
      <trkpt lat="42.30992" lon="2.36026">
        <ele>975</ele>
        <time>2010-01-01T00:07:35Z</time>
      </trkpt>
      <trkpt lat="42.30974" lon="2.36">
        <ele>976</ele>
        <time>2010-01-01T00:07:46Z</time>
      </trkpt>
      <trkpt lat="42.30957" lon="2.35987">
        <ele>974</ele>
        <time>2010-01-01T00:07:54Z</time>
      </trkpt>
      <trkpt lat="42.3095" lon="2.35956">
        <ele>977</ele>
        <time>2010-01-01T00:08:03Z</time>
      </trkpt>
      <trkpt lat="42.30939" lon="2.35927">
        <ele>980</ele>
        <time>2010-01-01T00:08:13Z</time>
      </trkpt>
      <trkpt lat="42.30933" lon="2.35893">
        <ele>986</ele>
        <time>2010-01-01T00:08:23Z</time>
      </trkpt>
      <trkpt lat="42.30927" lon="2.35864">
        <ele>992</ele>
        <time>2010-01-01T00:08:32Z</time>
      </trkpt>
      <trkpt lat="42.30909" lon="2.35843">
        <ele>996</ele>
        <time>2010-01-01T00:08:41Z</time>
      </trkpt>
      <trkpt lat="42.30889" lon="2.3585">
        <ele>999</ele>
        <time>2010-01-01T00:08:50Z</time>
      </trkpt>
      <trkpt lat="42.30889" lon="2.35839">
        <ele>1000</ele>
        <time>2010-01-01T00:08:53Z</time>
      </trkpt>
      <trkpt lat="42.30884" lon="2.35836">
        <ele>1001</ele>
        <time>2010-01-01T00:08:55Z</time>
      </trkpt>
      <trkpt lat="42.30857" lon="2.35825">
        <ele>1006</ele>
        <time>2010-01-01T00:09:07Z</time>
      </trkpt>
      <trkpt lat="42.3083" lon="2.35814">
        <ele>1011</ele>
        <time>2010-01-01T00:09:18Z</time>
      </trkpt>
      <trkpt lat="42.30813" lon="2.35798">
        <ele>1017</ele>
        <time>2010-01-01T00:09:26Z</time>
      </trkpt>
      <trkpt lat="42.30795" lon="2.35778">
        <ele>1025</ele>
        <time>2010-01-01T00:09:36Z</time>
      </trkpt>
      <trkpt lat="42.30773" lon="2.3576">
        <ele>1031</ele>
        <time>2010-01-01T00:09:46Z</time>
      </trkpt>
      <trkpt lat="42.30779" lon="2.35733">
        <ele>1041</ele>
        <time>2010-01-01T00:09:54Z</time>
      </trkpt>
      <trkpt lat="42.30763" lon="2.35717">
        <ele>1045</ele>
        <time>2010-01-01T00:10:02Z</time>
      </trkpt>
      <trkpt lat="42.30774" lon="2.35713">
        <ele>1047</ele>
        <time>2010-01-01T00:10:06Z</time>
      </trkpt>
      <trkpt lat="42.30771" lon="2.35701">
        <ele>1050</ele>
        <time>2010-01-01T00:10:10Z</time>
      </trkpt>
      <trkpt lat="42.30748" lon="2.35682">
        <ele>1058</ele>
        <time>2010-01-01T00:10:20Z</time>
      </trkpt>
      <trkpt lat="42.30753" lon="2.35671">
        <ele>1063</ele>
        <time>2010-01-01T00:10:24Z</time>
      </trkpt>
      <trkpt lat="42.30762" lon="2.35658">
        <ele>1066</ele>
        <time>2010-01-01T00:10:29Z</time>
      </trkpt>
      <trkpt lat="42.30752" lon="2.35638">
        <ele>1075</ele>
        <time>2010-01-01T00:10:37Z</time>
      </trkpt>
      <trkpt lat="42.30743" lon="2.35617">
        <ele>1080</ele>
        <time>2010-01-01T00:10:44Z</time>
      </trkpt>
      <trkpt lat="42.30734" lon="2.35599">
        <ele>1084</ele>
        <time>2010-01-01T00:10:50Z</time>
      </trkpt>
      <trkpt lat="42.30728" lon="2.3558">
        <ele>1087</ele>
        <time>2010-01-01T00:10:56Z</time>
      </trkpt>
      <trkpt lat="42.30718" lon="2.35556">
        <ele>1094</ele>
        <time>2010-01-01T00:11:04Z</time>
      </trkpt>
      <trkpt lat="42.3069" lon="2.35487">
        <ele>1110</ele>
        <time>2010-01-01T00:11:28Z</time>
      </trkpt>
      <trkpt lat="42.30664" lon="2.35421">
        <ele>1133</ele>
        <time>2010-01-01T00:11:50Z</time>
      </trkpt>
      <trkpt lat="42.30637" lon="2.35365">
        <ele>1155</ele>
        <time>2010-01-01T00:12:10Z</time>
      </trkpt>
      <trkpt lat="42.30605" lon="2.35308">
        <ele>1175</ele>
        <time>2010-01-01T00:12:31Z</time>
      </trkpt>
      <trkpt lat="42.30576" lon="2.35256">
        <ele>1206</ele>
        <time>2010-01-01T00:12:50Z</time>
      </trkpt>
      <trkpt lat="42.30555" lon="2.35201">
        <ele>1225</ele>
        <time>2010-01-01T00:13:08Z</time>
      </trkpt>
      <trkpt lat="42.30531" lon="2.35118">
        <ele>1250</ele>
        <time>2010-01-01T00:13:35Z</time>
      </trkpt>
      <trkpt lat="42.30506" lon="2.35025">
        <ele>1276</ele>
        <time>2010-01-01T00:14:04Z</time>
      </trkpt>
      <trkpt lat="42.30475" lon="2.34887">
        <ele>1301</ele>
        <time>2010-01-01T00:14:47Z</time>
      </trkpt>
      <trkpt lat="42.30376" lon="2.34506">
        <ele>1401</ele>
        <time>2010-01-01T00:16:46Z</time>
      </trkpt>
      <trkpt lat="42.30333" lon="2.34368">
        <ele>1434</ele>
        <time>2010-01-01T00:17:31Z</time>
      </trkpt>
      <trkpt lat="42.30311" lon="2.34153">
        <ele>1463</ele>
        <time>2010-01-01T00:18:35Z</time>
      </trkpt>
      <trkpt lat="42.303" lon="2.34039">
        <ele>1478</ele>
        <time>2010-01-01T00:19:09Z</time>
      </trkpt>
      <trkpt lat="42.30285" lon="2.34012">
        <ele>1481</ele>
        <time>2010-01-01T00:19:19Z</time>
      </trkpt>
      <trkpt lat="42.30229" lon="2.33823">
        <ele>1502</ele>
        <time>2010-01-01T00:20:19Z</time>
      </trkpt>
      <trkpt lat="42.30166" lon="2.33622">
        <ele>1520</ele>
        <time>2010-01-01T00:21:24Z</time>
      </trkpt>
      <trkpt lat="42.30126" lon="2.33512">
        <ele>1525</ele>
        <time>2010-01-01T00:22:00Z</time>
      </trkpt>
      <trkpt lat="42.30106" lon="2.33476">
        <ele>1531</ele>
        <time>2010-01-01T00:22:13Z</time>
      </trkpt>
      <trkpt lat="42.30085" lon="2.33414">
        <ele>1540</ele>
        <time>2010-01-01T00:22:34Z</time>
      </trkpt>
      <trkpt lat="42.30081" lon="2.33347">
        <ele>1547</ele>
        <time>2010-01-01T00:22:53Z</time>
      </trkpt>
      <trkpt lat="42.30065" lon="2.33285">
        <ele>1551</ele>
        <time>2010-01-01T00:23:13Z</time>
      </trkpt>
      <trkpt lat="42.30043" lon="2.33185">
        <ele>1559</ele>
        <time>2010-01-01T00:23:44Z</time>
      </trkpt>
      <trkpt lat="42.30029" lon="2.3314">
        <ele>1563</ele>
        <time>2010-01-01T00:23:58Z</time>
      </trkpt>
      <trkpt lat="42.29993" lon="2.33058">
        <ele>1581</ele>
        <time>2010-01-01T00:24:26Z</time>
      </trkpt>
      <trkpt lat="42.29935" lon="2.32909">
        <ele>1611</ele>
        <time>2010-01-01T00:25:16Z</time>
      </trkpt>
      <trkpt lat="42.29919" lon="2.32847">
        <ele>1617</ele>
        <time>2010-01-01T00:25:36Z</time>
      </trkpt>
      <trkpt lat="42.2991" lon="2.32771">
        <ele>1621</ele>
        <time>2010-01-01T00:25:58Z</time>
      </trkpt>
      <trkpt lat="42.29895" lon="2.32721">
        <ele>1625</ele>
        <time>2010-01-01T00:26:15Z</time>
      </trkpt>
      <trkpt lat="42.29872" lon="2.3266">
        <ele>1628</ele>
        <time>2010-01-01T00:26:35Z</time>
      </trkpt>
      <trkpt lat="42.29837" lon="2.32588">
        <ele>1629</ele>
        <time>2010-01-01T00:27:00Z</time>
      </trkpt>
      <trkpt lat="42.29811" lon="2.32519">
        <ele>1626</ele>
        <time>2010-01-01T00:27:23Z</time>
      </trkpt>
      <trkpt lat="42.29801" lon="2.32467">
        <ele>1631</ele>
        <time>2010-01-01T00:27:39Z</time>
      </trkpt>
      <trkpt lat="42.29787" lon="2.32405">
        <ele>1632</ele>
        <time>2010-01-01T00:27:58Z</time>
      </trkpt>
      <trkpt lat="42.2978" lon="2.32334">
        <ele>1638</ele>
        <time>2010-01-01T00:28:20Z</time>
      </trkpt>
      <trkpt lat="42.29755" lon="2.32259">
        <ele>1636</ele>
        <time>2010-01-01T00:28:44Z</time>
      </trkpt>
      <trkpt lat="42.2973" lon="2.32212">
        <ele>1650</ele>
        <time>2010-01-01T00:29:01Z</time>
      </trkpt>
      <trkpt lat="42.29692" lon="2.32141">
        <ele>1656</ele>
        <time>2010-01-01T00:29:27Z</time>
      </trkpt>
      <trkpt lat="42.29669" lon="2.32083">
        <ele>1657</ele>
        <time>2010-01-01T00:29:46Z</time>
      </trkpt>
      <trkpt lat="42.29653" lon="2.32027">
        <ele>1663</ele>
        <time>2010-01-01T00:30:04Z</time>
      </trkpt>
      <trkpt lat="42.2964" lon="2.31974">
        <ele>1675</ele>
        <time>2010-01-01T00:30:21Z</time>
      </trkpt>
      <trkpt lat="42.29632" lon="2.31841">
        <ele>1680</ele>
        <time>2010-01-01T00:31:00Z</time>
      </trkpt>
      <trkpt lat="42.29618" lon="2.3178">
        <ele>1689</ele>
        <time>2010-01-01T00:31:19Z</time>
      </trkpt>
      <trkpt lat="42.29595" lon="2.31712">
        <ele>1702</ele>
        <time>2010-01-01T00:31:41Z</time>
      </trkpt>
      <trkpt lat="42.29564" lon="2.31568">
        <ele>1722</ele>
        <time>2010-01-01T00:32:26Z</time>
      </trkpt>
      <trkpt lat="42.29549" lon="2.3142">
        <ele>1737</ele>
        <time>2010-01-01T00:33:10Z</time>
      </trkpt>
      <trkpt lat="42.29533" lon="2.31314">
        <ele>1750</ele>
        <time>2010-01-01T00:33:42Z</time>
      </trkpt>
      <trkpt lat="42.29522" lon="2.31164">
        <ele>1763</ele>
        <time>2010-01-01T00:34:26Z</time>
      </trkpt>
      <trkpt lat="42.29516" lon="2.31057">
        <ele>1765</ele>
        <time>2010-01-01T00:34:58Z</time>
      </trkpt>
      <trkpt lat="42.29522" lon="2.30878">
        <ele>1766</ele>
        <time>2010-01-01T00:35:51Z</time>
      </trkpt>
      <trkpt lat="42.29526" lon="2.30768">
        <ele>1763</ele>
        <time>2010-01-01T00:36:24Z</time>
      </trkpt>
      <trkpt lat="42.29502" lon="2.30637">
        <ele>1765</ele>
        <time>2010-01-01T00:37:04Z</time>
      </trkpt>
      <trkpt lat="42.29494" lon="2.30547">
        <ele>1776</ele>
        <time>2010-01-01T00:37:31Z</time>
      </trkpt>
      <trkpt lat="42.29494" lon="2.30444">
        <ele>1769</ele>
        <time>2010-01-01T00:38:01Z</time>
      </trkpt>
      <trkpt lat="42.29487" lon="2.30313">
        <ele>1770</ele>
        <time>2010-01-01T00:38:40Z</time>
      </trkpt>
      <trkpt lat="42.29484" lon="2.30224">
        <ele>1777</ele>
        <time>2010-01-01T00:39:06Z</time>
      </trkpt>
      <trkpt lat="42.29463" lon="2.30093">
        <ele>1801</ele>
        <time>2010-01-01T00:39:46Z</time>
      </trkpt>
      <trkpt lat="42.29457" lon="2.29964">
        <ele>1816</ele>
        <time>2010-01-01T00:40:24Z</time>
      </trkpt>
      <trkpt lat="42.29465" lon="2.29802">
        <ele>1833</ele>
        <time>2010-01-01T00:41:12Z</time>
      </trkpt>
      <trkpt lat="42.29483" lon="2.29555">
        <ele>1849</ele>
        <time>2010-01-01T00:42:26Z</time>
      </trkpt>
      <trkpt lat="42.29489" lon="2.29293">
        <ele>1871</ele>
        <time>2010-01-01T00:43:44Z</time>
      </trkpt>
      <trkpt lat="42.29492" lon="2.29066">
        <ele>1876</ele>
        <time>2010-01-01T00:44:51Z</time>
      </trkpt>
      <trkpt lat="42.29479" lon="2.28913">
        <ele>1874</ele>
        <time>2010-01-01T00:45:36Z</time>
      </trkpt>
      <trkpt lat="42.29474" lon="2.28851">
        <ele>1870</ele>
        <time>2010-01-01T00:45:55Z</time>
      </trkpt>
      <trkpt lat="42.29506" lon="2.28433">
        <ele>1880</ele>
        <time>2010-01-01T00:47:59Z</time>
      </trkpt>
      <trkpt lat="42.29492" lon="2.28188">
        <ele>1868</ele>
        <time>2010-01-01T00:49:12Z</time>
      </trkpt>
      <trkpt lat="42.29464" lon="2.27988">
        <ele>1884</ele>
        <time>2010-01-01T00:50:12Z</time>
      </trkpt>
      <trkpt lat="42.29443" lon="2.27848">
        <ele>1893</ele>
        <time>2010-01-01T00:50:54Z</time>
      </trkpt>
      <trkpt lat="42.29401" lon="2.2772">
        <ele>1882</ele>
        <time>2010-01-01T00:51:36Z</time>
      </trkpt>
      <trkpt lat="42.29361" lon="2.27615">
        <ele>1863</ele>
        <time>2010-01-01T00:52:11Z</time>
      </trkpt>
      <trkpt lat="42.29323" lon="2.27557">
        <ele>1854</ele>
        <time>2010-01-01T00:52:34Z</time>
      </trkpt>
      <trkpt lat="42.29281" lon="2.27496">
        <ele>1835</ele>
        <time>2010-01-01T00:52:59Z</time>
      </trkpt>
      <trkpt lat="42.29215" lon="2.27433">
        <ele>1805</ele>
        <time>2010-01-01T00:53:31Z</time>
      </trkpt>
      <trkpt lat="42.29129" lon="2.27341">
        <ele>1774</ele>
        <time>2010-01-01T00:54:15Z</time>
      </trkpt>
      <trkpt lat="42.29148" lon="2.27299">
        <ele>1770</ele>
        <time>2010-01-01T00:54:29Z</time>
      </trkpt>
      <trkpt lat="42.29204" lon="2.27262">
        <ele>1761</ele>
        <time>2010-01-01T00:54:54Z</time>
      </trkpt>
      <trkpt lat="42.29286" lon="2.2719">
        <ele>1748</ele>
        <time>2010-01-01T00:55:34Z</time>
      </trkpt>
      <trkpt lat="42.29357" lon="2.27162">
        <ele>1732</ele>
        <time>2010-01-01T00:56:03Z</time>
      </trkpt>
      <trkpt lat="42.29443" lon="2.27157">
        <ele>1719</ele>
        <time>2010-01-01T00:56:38Z</time>
      </trkpt>
      <trkpt lat="42.2949" lon="2.27188">
        <ele>1716</ele>
        <time>2010-01-01T00:56:59Z</time>
      </trkpt>
      <trkpt lat="42.29523" lon="2.27209">
        <ele>1715</ele>
        <time>2010-01-01T00:57:13Z</time>
      </trkpt>
      <trkpt lat="42.29575" lon="2.27223">
        <ele>1703</ele>
        <time>2010-01-01T00:57:34Z</time>
      </trkpt>
      <trkpt lat="42.29698" lon="2.2733">
        <ele>1683</ele>
        <time>2010-01-01T00:58:33Z</time>
      </trkpt>
      <trkpt lat="42.29749" lon="2.27375">
        <ele>1682</ele>
        <time>2010-01-01T00:58:57Z</time>
      </trkpt>
      <trkpt lat="42.29809" lon="2.27483">
        <ele>1677</ele>
        <time>2010-01-01T00:59:37Z</time>
      </trkpt>
      <trkpt lat="42.2985" lon="2.27495">
        <ele>1672</ele>
        <time>2010-01-01T00:59:54Z</time>
      </trkpt>
      <trkpt lat="42.29901" lon="2.27488">
        <ele>1669</ele>
        <time>2010-01-01T01:00:15Z</time>
      </trkpt>
      <trkpt lat="42.29955" lon="2.27539">
        <ele>1673</ele>
        <time>2010-01-01T01:00:41Z</time>
      </trkpt>
      <trkpt lat="42.30002" lon="2.27547">
        <ele>1674</ele>
        <time>2010-01-01T01:01:00Z</time>
      </trkpt>
      <trkpt lat="42.30053" lon="2.27581">
        <ele>1679</ele>
        <time>2010-01-01T01:01:23Z</time>
      </trkpt>
      <trkpt lat="42.3011" lon="2.27564">
        <ele>1680</ele>
        <time>2010-01-01T01:01:46Z</time>
      </trkpt>
      <trkpt lat="42.30159" lon="2.27556">
        <ele>1681</ele>
        <time>2010-01-01T01:02:06Z</time>
      </trkpt>
      <trkpt lat="42.30202" lon="2.27543">
        <ele>1678</ele>
        <time>2010-01-01T01:02:24Z</time>
      </trkpt>
      <trkpt lat="42.30251" lon="2.27505">
        <ele>1675</ele>
        <time>2010-01-01T01:02:46Z</time>
      </trkpt>
      <trkpt lat="42.30297" lon="2.27466">
        <ele>1673</ele>
        <time>2010-01-01T01:03:08Z</time>
      </trkpt>
      <trkpt lat="42.30299" lon="2.27347">
        <ele>1666</ele>
        <time>2010-01-01T01:03:43Z</time>
      </trkpt>
      <trkpt lat="42.30302" lon="2.27273">
        <ele>1662</ele>
        <time>2010-01-01T01:04:05Z</time>
      </trkpt>
      <trkpt lat="42.30288" lon="2.27223">
        <ele>1656</ele>
        <time>2010-01-01T01:04:21Z</time>
      </trkpt>
      <trkpt lat="42.30245" lon="2.27208">
        <ele>1651</ele>
        <time>2010-01-01T01:04:38Z</time>
      </trkpt>
      <trkpt lat="42.30213" lon="2.27165">
        <ele>1644</ele>
        <time>2010-01-01T01:04:56Z</time>
      </trkpt>
      <trkpt lat="42.30183" lon="2.27012">
        <ele>1625</ele>
        <time>2010-01-01T01:05:43Z</time>
      </trkpt>
      <trkpt lat="42.30178" lon="2.26964">
        <ele>1617</ele>
        <time>2010-01-01T01:05:58Z</time>
      </trkpt>
      <trkpt lat="42.30186" lon="2.26938">
        <ele>1615</ele>
        <time>2010-01-01T01:06:06Z</time>
      </trkpt>
      <trkpt lat="42.30215" lon="2.26907">
        <ele>1611</ele>
        <time>2010-01-01T01:06:21Z</time>
      </trkpt>
      <trkpt lat="42.30239" lon="2.26857">
        <ele>1608</ele>
        <time>2010-01-01T01:06:38Z</time>
      </trkpt>
      <trkpt lat="42.30327" lon="2.26796">
        <ele>1624</ele>
        <time>2010-01-01T01:07:18Z</time>
      </trkpt>
      <trkpt lat="42.30384" lon="2.26761">
        <ele>1624</ele>
        <time>2010-01-01T01:07:43Z</time>
      </trkpt>
      <trkpt lat="42.30418" lon="2.26712">
        <ele>1626</ele>
        <time>2010-01-01T01:08:03Z</time>
      </trkpt>
      <trkpt lat="42.30443" lon="2.266">
        <ele>1632</ele>
        <time>2010-01-01T01:08:37Z</time>
      </trkpt>
      <trkpt lat="42.30487" lon="2.26577">
        <ele>1645</ele>
        <time>2010-01-01T01:08:56Z</time>
      </trkpt>
      <trkpt lat="42.30507" lon="2.26558">
        <ele>1653</ele>
        <time>2010-01-01T01:09:06Z</time>
      </trkpt>
      <trkpt lat="42.30534" lon="2.26551">
        <ele>1663</ele>
        <time>2010-01-01T01:09:17Z</time>
      </trkpt>
      <trkpt lat="42.30572" lon="2.2653">
        <ele>1679</ele>
        <time>2010-01-01T01:09:33Z</time>
      </trkpt>
      <trkpt lat="42.30619" lon="2.26536">
        <ele>1692</ele>
        <time>2010-01-01T01:09:52Z</time>
      </trkpt>
      <trkpt lat="42.30685" lon="2.26445">
        <ele>1716</ele>
        <time>2010-01-01T01:10:30Z</time>
      </trkpt>
      <trkpt lat="42.30732" lon="2.26407">
        <ele>1728</ele>
        <time>2010-01-01T01:10:52Z</time>
      </trkpt>
      <trkpt lat="42.30778" lon="2.26357">
        <ele>1740</ele>
        <time>2010-01-01T01:11:16Z</time>
      </trkpt>
      <trkpt lat="42.30821" lon="2.26315">
        <ele>1747</ele>
        <time>2010-01-01T01:11:37Z</time>
      </trkpt>
      <trkpt lat="42.30871" lon="2.26277">
        <ele>1756</ele>
        <time>2010-01-01T01:12:00Z</time>
      </trkpt>
      <trkpt lat="42.30941" lon="2.26235">
        <ele>1767</ele>
        <time>2010-01-01T01:12:30Z</time>
      </trkpt>
      <trkpt lat="42.31021" lon="2.26166">
        <ele>1785</ele>
        <time>2010-01-01T01:13:08Z</time>
      </trkpt>
      <trkpt lat="42.31071" lon="2.26157">
        <ele>1791</ele>
        <time>2010-01-01T01:13:29Z</time>
      </trkpt>
      <trkpt lat="42.3114" lon="2.26153">
        <ele>1802</ele>
        <time>2010-01-01T01:13:56Z</time>
      </trkpt>
      <trkpt lat="42.31184" lon="2.26145">
        <ele>1808</ele>
        <time>2010-01-01T01:14:14Z</time>
      </trkpt>
      <trkpt lat="42.31286" lon="2.26088">
        <ele>1817</ele>
        <time>2010-01-01T01:14:58Z</time>
      </trkpt>
      <trkpt lat="42.31365" lon="2.26054">
        <ele>1819</ele>
        <time>2010-01-01T01:15:32Z</time>
      </trkpt>
      <trkpt lat="42.31469" lon="2.25978">
        <ele>1830</ele>
        <time>2010-01-01T01:16:19Z</time>
      </trkpt>
      <trkpt lat="42.31542" lon="2.25922">
        <ele>1839</ele>
        <time>2010-01-01T01:16:52Z</time>
      </trkpt>
      <trkpt lat="42.31621" lon="2.25855">
        <ele>1850</ele>
        <time>2010-01-01T01:17:30Z</time>
      </trkpt>
      <trkpt lat="42.31699" lon="2.25767">
        <ele>1853</ele>
        <time>2010-01-01T01:18:10Z</time>
      </trkpt>
      <trkpt lat="42.31806" lon="2.25642">
        <ele>1858</ele>
        <time>2010-01-01T01:19:07Z</time>
      </trkpt>
      <trkpt lat="42.31859" lon="2.256">
        <ele>1867</ele>
        <time>2010-01-01T01:19:32Z</time>
      </trkpt>
      <trkpt lat="42.31901" lon="2.25552">
        <ele>1871</ele>
        <time>2010-01-01T01:19:54Z</time>
      </trkpt>
      <trkpt lat="42.31971" lon="2.25469">
        <ele>1879</ele>
        <time>2010-01-01T01:20:31Z</time>
      </trkpt>
      <trkpt lat="42.32005" lon="2.25424">
        <ele>1878</ele>
        <time>2010-01-01T01:20:50Z</time>
      </trkpt>
      <trkpt lat="42.32053" lon="2.25394">
        <ele>1883</ele>
        <time>2010-01-01T01:21:11Z</time>
      </trkpt>
      <trkpt lat="42.32134" lon="2.25321">
        <ele>1891</ele>
        <time>2010-01-01T01:21:50Z</time>
      </trkpt>
      <trkpt lat="42.32217" lon="2.2521">
        <ele>1898</ele>
        <time>2010-01-01T01:22:37Z</time>
      </trkpt>
      <trkpt lat="42.32294" lon="2.25162">
        <ele>1909</ele>
        <time>2010-01-01T01:23:11Z</time>
      </trkpt>
      <trkpt lat="42.32325" lon="2.25168">
        <ele>1911</ele>
        <time>2010-01-01T01:23:23Z</time>
      </trkpt>
      <trkpt lat="42.32362" lon="2.25198">
        <ele>1910</ele>
        <time>2010-01-01T01:23:41Z</time>
      </trkpt>
      <trkpt lat="42.32382" lon="2.25211">
        <ele>1906</ele>
        <time>2010-01-01T01:23:49Z</time>
      </trkpt>
      <trkpt lat="42.32405" lon="2.25253">
        <ele>1916</ele>
        <time>2010-01-01T01:24:05Z</time>
      </trkpt>
      <trkpt lat="42.32417" lon="2.25256">
        <ele>1917</ele>
        <time>2010-01-01T01:24:10Z</time>
      </trkpt>
      <trkpt lat="42.32434" lon="2.25231">
        <ele>1913</ele>
        <time>2010-01-01T01:24:19Z</time>
      </trkpt>
      <trkpt lat="42.32444" lon="2.25204">
        <ele>1902</ele>
        <time>2010-01-01T01:24:28Z</time>
      </trkpt>
      <trkpt lat="42.32474" lon="2.25186">
        <ele>1902</ele>
        <time>2010-01-01T01:24:42Z</time>
      </trkpt>
      <trkpt lat="42.32535" lon="2.25144">
        <ele>1903</ele>
        <time>2010-01-01T01:25:09Z</time>
      </trkpt>
      <trkpt lat="42.32591" lon="2.25125">
        <ele>1903</ele>
        <time>2010-01-01T01:25:32Z</time>
      </trkpt>
      <trkpt lat="42.32634" lon="2.25124">
        <ele>1908</ele>
        <time>2010-01-01T01:25:50Z</time>
      </trkpt>
      <trkpt lat="42.32673" lon="2.25101">
        <ele>1907</ele>
        <time>2010-01-01T01:26:06Z</time>
      </trkpt>
      <trkpt lat="42.32719" lon="2.25082">
        <ele>1907</ele>
        <time>2010-01-01T01:26:26Z</time>
      </trkpt>
      <trkpt lat="42.32752" lon="2.25029">
        <ele>1897</ele>
        <time>2010-01-01T01:26:46Z</time>
      </trkpt>
      <trkpt lat="42.32795" lon="2.24989">
        <ele>1899</ele>
        <time>2010-01-01T01:27:07Z</time>
      </trkpt>
      <trkpt lat="42.32846" lon="2.24976">
        <ele>1906</ele>
        <time>2010-01-01T01:27:28Z</time>
      </trkpt>
      <trkpt lat="42.32869" lon="2.24946">
        <ele>1906</ele>
        <time>2010-01-01T01:27:41Z</time>
      </trkpt>
      <trkpt lat="42.32893" lon="2.24861">
        <ele>1905</ele>
        <time>2010-01-01T01:28:08Z</time>
      </trkpt>
      <trkpt lat="42.32917" lon="2.24804">
        <ele>1907</ele>
        <time>2010-01-01T01:28:27Z</time>
      </trkpt>
      <trkpt lat="42.32932" lon="2.24755">
        <ele>1909</ele>
        <time>2010-01-01T01:28:43Z</time>
      </trkpt>
      <trkpt lat="42.32962" lon="2.2475">
        <ele>1913</ele>
        <time>2010-01-01T01:28:55Z</time>
      </trkpt>
      <trkpt lat="42.32984" lon="2.24654">
        <ele>1912</ele>
        <time>2010-01-01T01:29:24Z</time>
      </trkpt>
      <trkpt lat="42.33" lon="2.24609">
        <ele>1911</ele>
        <time>2010-01-01T01:29:39Z</time>
      </trkpt>
      <trkpt lat="42.33027" lon="2.24589">
        <ele>1914</ele>
        <time>2010-01-01T01:29:51Z</time>
      </trkpt>
      <trkpt lat="42.33055" lon="2.24579">
        <ele>1915</ele>
        <time>2010-01-01T01:30:03Z</time>
      </trkpt>
      <trkpt lat="42.3313" lon="2.24595">
        <ele>1922</ele>
        <time>2010-01-01T01:30:34Z</time>
      </trkpt>
      <trkpt lat="42.33125" lon="2.24614">
        <ele>1920</ele>
        <time>2010-01-01T01:30:39Z</time>
      </trkpt>
      <trkpt lat="42.33077" lon="2.24713">
        <ele>1920</ele>
        <time>2010-01-01T01:31:14Z</time>
      </trkpt>
      <trkpt lat="42.32972" lon="2.24859">
        <ele>1916</ele>
        <time>2010-01-01T01:32:15Z</time>
      </trkpt>
      <trkpt lat="42.32939" lon="2.24996">
        <ele>1916</ele>
        <time>2010-01-01T01:32:57Z</time>
      </trkpt>
      <trkpt lat="42.32897" lon="2.25122">
        <ele>1921</ele>
        <time>2010-01-01T01:33:38Z</time>
      </trkpt>
      <trkpt lat="42.32905" lon="2.25252">
        <ele>1927</ele>
        <time>2010-01-01T01:34:17Z</time>
      </trkpt>
      <trkpt lat="42.32882" lon="2.25425">
        <ele>1940</ele>
        <time>2010-01-01T01:35:09Z</time>
      </trkpt>
      <trkpt lat="42.32866" lon="2.25505">
        <ele>1946</ele>
        <time>2010-01-01T01:35:34Z</time>
      </trkpt>
      <trkpt lat="42.32804" lon="2.25595">
        <ele>1949</ele>
        <time>2010-01-01T01:36:10Z</time>
      </trkpt>
      <trkpt lat="42.32733" lon="2.25664">
        <ele>1944</ele>
        <time>2010-01-01T01:36:45Z</time>
      </trkpt>
      <trkpt lat="42.32711" lon="2.25728">
        <ele>1946</ele>
        <time>2010-01-01T01:37:06Z</time>
      </trkpt>
      <trkpt lat="42.32696" lon="2.25877">
        <ele>1935</ele>
        <time>2010-01-01T01:37:50Z</time>
      </trkpt>
      <trkpt lat="42.32705" lon="2.25998">
        <ele>1929</ele>
        <time>2010-01-01T01:38:26Z</time>
      </trkpt>
      <trkpt lat="42.32723" lon="2.26049">
        <ele>1920</ele>
        <time>2010-01-01T01:38:43Z</time>
      </trkpt>
      <trkpt lat="42.32749" lon="2.26108">
        <ele>1917</ele>
        <time>2010-01-01T01:39:03Z</time>
      </trkpt>
      <trkpt lat="42.32745" lon="2.26143">
        <ele>1914</ele>
        <time>2010-01-01T01:39:14Z</time>
      </trkpt>
      <trkpt lat="42.32674" lon="2.26297">
        <ele>1900</ele>
        <time>2010-01-01T01:40:08Z</time>
      </trkpt>
      <trkpt lat="42.3264" lon="2.26398">
        <ele>1896</ele>
        <time>2010-01-01T01:40:41Z</time>
      </trkpt>
      <trkpt lat="42.32569" lon="2.26521">
        <ele>1871</ele>
        <time>2010-01-01T01:41:27Z</time>
      </trkpt>
      <trkpt lat="42.3254" lon="2.26607">
        <ele>1854</ele>
        <time>2010-01-01T01:41:55Z</time>
      </trkpt>
      <trkpt lat="42.32537" lon="2.26705">
        <ele>1832</ele>
        <time>2010-01-01T01:42:24Z</time>
      </trkpt>
      <trkpt lat="42.32564" lon="2.26743">
        <ele>1825</ele>
        <time>2010-01-01T01:42:39Z</time>
      </trkpt>
      <trkpt lat="42.32634" lon="2.26816">
        <ele>1810</ele>
        <time>2010-01-01T01:43:15Z</time>
      </trkpt>
      <trkpt lat="42.32671" lon="2.26837">
        <ele>1804</ele>
        <time>2010-01-01T01:43:31Z</time>
      </trkpt>
      <trkpt lat="42.32681" lon="2.26888">
        <ele>1790</ele>
        <time>2010-01-01T01:43:47Z</time>
      </trkpt>
      <trkpt lat="42.32689" lon="2.26998">
        <ele>1768</ele>
        <time>2010-01-01T01:44:20Z</time>
      </trkpt>
      <trkpt lat="42.32684" lon="2.27205">
        <ele>1727</ele>
        <time>2010-01-01T01:45:21Z</time>
      </trkpt>
      <trkpt lat="42.32691" lon="2.27686">
        <ele>1628</ele>
        <time>2010-01-01T01:47:43Z</time>
      </trkpt>
      <trkpt lat="42.32696" lon="2.27787">
        <ele>1600</ele>
        <time>2010-01-01T01:48:13Z</time>
      </trkpt>
      <trkpt lat="42.32737" lon="2.27907">
        <ele>1577</ele>
        <time>2010-01-01T01:48:52Z</time>
      </trkpt>
      <trkpt lat="42.3274" lon="2.28015">
        <ele>1555</ele>
        <time>2010-01-01T01:49:24Z</time>
      </trkpt>
      <trkpt lat="42.32764" lon="2.28076">
        <ele>1542</ele>
        <time>2010-01-01T01:49:45Z</time>
      </trkpt>
      <trkpt lat="42.3279" lon="2.28102">
        <ele>1534</ele>
        <time>2010-01-01T01:49:58Z</time>
      </trkpt>
      <trkpt lat="42.32804" lon="2.2822">
        <ele>1509</ele>
        <time>2010-01-01T01:50:33Z</time>
      </trkpt>
      <trkpt lat="42.3282" lon="2.28325">
        <ele>1489</ele>
        <time>2010-01-01T01:51:05Z</time>
      </trkpt>
      <trkpt lat="42.32831" lon="2.28349">
        <ele>1484</ele>
        <time>2010-01-01T01:51:13Z</time>
      </trkpt>
      <trkpt lat="42.32887" lon="2.28451">
        <ele>1454</ele>
        <time>2010-01-01T01:51:51Z</time>
      </trkpt>
      <trkpt lat="42.32928" lon="2.28527">
        <ele>1440</ele>
        <time>2010-01-01T01:52:19Z</time>
      </trkpt>
      <trkpt lat="42.32935" lon="2.28572">
        <ele>1433</ele>
        <time>2010-01-01T01:52:32Z</time>
      </trkpt>
      <trkpt lat="42.32955" lon="2.28589">
        <ele>1425</ele>
        <time>2010-01-01T01:52:42Z</time>
      </trkpt>
      <trkpt lat="42.33047" lon="2.28702">
        <ele>1403</ele>
        <time>2010-01-01T01:53:31Z</time>
      </trkpt>
      <trkpt lat="42.33081" lon="2.28742">
        <ele>1398</ele>
        <time>2010-01-01T01:53:49Z</time>
      </trkpt>
      <trkpt lat="42.33126" lon="2.28854">
        <ele>1386</ele>
        <time>2010-01-01T01:54:27Z</time>
      </trkpt>
      <trkpt lat="42.33191" lon="2.28946">
        <ele>1370</ele>
        <time>2010-01-01T01:55:05Z</time>
      </trkpt>
      <trkpt lat="42.33234" lon="2.29023">
        <ele>1355</ele>
        <time>2010-01-01T01:55:33Z</time>
      </trkpt>
      <trkpt lat="42.33273" lon="2.29106">
        <ele>1342</ele>
        <time>2010-01-01T01:56:02Z</time>
      </trkpt>
      <trkpt lat="42.33328" lon="2.29205">
        <ele>1323</ele>
        <time>2010-01-01T01:56:39Z</time>
      </trkpt>
      <trkpt lat="42.33344" lon="2.29266">
        <ele>1315</ele>
        <time>2010-01-01T01:56:58Z</time>
      </trkpt>
      <trkpt lat="42.3335" lon="2.29335">
        <ele>1300</ele>
        <time>2010-01-01T01:57:19Z</time>
      </trkpt>
      <trkpt lat="42.33362" lon="2.29485">
        <ele>1280</ele>
        <time>2010-01-01T01:58:03Z</time>
      </trkpt>
      <trkpt lat="42.33369" lon="2.29625">
        <ele>1262</ele>
        <time>2010-01-01T01:58:45Z</time>
      </trkpt>
      <trkpt lat="42.33369" lon="2.29672">
        <ele>1252</ele>
        <time>2010-01-01T01:58:59Z</time>
      </trkpt>
      <trkpt lat="42.33363" lon="2.29707">
        <ele>1247</ele>
        <time>2010-01-01T01:59:09Z</time>
      </trkpt>
      <trkpt lat="42.33373" lon="2.2971">
        <ele>1246</ele>
        <time>2010-01-01T01:59:13Z</time>
      </trkpt>
      <trkpt lat="42.33411" lon="2.29678">
        <ele>1245</ele>
        <time>2010-01-01T01:59:31Z</time>
      </trkpt>
      <trkpt lat="42.33434" lon="2.29667">
        <ele>1243</ele>
        <time>2010-01-01T01:59:41Z</time>
      </trkpt>
      <trkpt lat="42.33393" lon="2.29743">
        <ele>1235</ele>
        <time>2010-01-01T02:00:09Z</time>
      </trkpt>
      <trkpt lat="42.33401" lon="2.29796">
        <ele>1221</ele>
        <time>2010-01-01T02:00:25Z</time>
      </trkpt>
      <trkpt lat="42.33431" lon="2.29913">
        <ele>1192</ele>
        <time>2010-01-01T02:01:01Z</time>
      </trkpt>
      <trkpt lat="42.33443" lon="2.29976">
        <ele>1179</ele>
        <time>2010-01-01T02:01:21Z</time>
      </trkpt>
      <trkpt lat="42.33434" lon="2.30056">
        <ele>1165</ele>
        <time>2010-01-01T02:01:45Z</time>
      </trkpt>
      <trkpt lat="42.33419" lon="2.30147">
        <ele>1140</ele>
        <time>2010-01-01T02:02:12Z</time>
      </trkpt>
      <trkpt lat="42.33478" lon="2.30392">
        <ele>1081</ele>
        <time>2010-01-01T02:03:28Z</time>
      </trkpt>
      <trkpt lat="42.33511" lon="2.30632">
        <ele>1080</ele>
        <time>2010-01-01T02:04:41Z</time>
      </trkpt>
      <trkpt lat="42.335" lon="2.30672">
        <ele>1084</ele>
        <time>2010-01-01T02:04:54Z</time>
      </trkpt>
      <trkpt lat="42.33341" lon="2.30798">
        <ele>1070</ele>
        <time>2010-01-01T02:06:07Z</time>
      </trkpt>
      <trkpt lat="42.33233" lon="2.30923">
        <ele>1067</ele>
        <time>2010-01-01T02:07:04Z</time>
      </trkpt>
      <trkpt lat="42.33163" lon="2.31014">
        <ele>1066</ele>
        <time>2010-01-01T02:07:43Z</time>
      </trkpt>
      <trkpt lat="42.33143" lon="2.31084">
        <ele>1069</ele>
        <time>2010-01-01T02:08:05Z</time>
      </trkpt>
      <trkpt lat="42.33138" lon="2.3119">
        <ele>1076</ele>
        <time>2010-01-01T02:08:36Z</time>
      </trkpt>
      <trkpt lat="42.33173" lon="2.31212">
        <ele>1081</ele>
        <time>2010-01-01T02:08:52Z</time>
      </trkpt>
      <trkpt lat="42.33203" lon="2.31221">
        <ele>1087</ele>
        <time>2010-01-01T02:09:04Z</time>
      </trkpt>
      <trkpt lat="42.33309" lon="2.313">
        <ele>1118</ele>
        <time>2010-01-01T02:09:52Z</time>
      </trkpt>
      <trkpt lat="42.33324" lon="2.31282">
        <ele>1124</ele>
        <time>2010-01-01T02:10:00Z</time>
      </trkpt>
      <trkpt lat="42.33321" lon="2.31262">
        <ele>1125</ele>
        <time>2010-01-01T02:10:07Z</time>
      </trkpt>
      <trkpt lat="42.33353" lon="2.31253">
        <ele>1139</ele>
        <time>2010-01-01T02:10:20Z</time>
      </trkpt>
      <trkpt lat="42.33304" lon="2.31241">
        <ele>1120</ele>
        <time>2010-01-01T02:10:39Z</time>
      </trkpt>
      <trkpt lat="42.33282" lon="2.31159">
        <ele>1125</ele>
        <time>2010-01-01T02:11:05Z</time>
      </trkpt>
      <trkpt lat="42.33293" lon="2.31111">
        <ele>1125</ele>
        <time>2010-01-01T02:11:20Z</time>
      </trkpt>
      <trkpt lat="42.33324" lon="2.31093">
        <ele>1133</ele>
        <time>2010-01-01T02:11:33Z</time>
      </trkpt>
      <trkpt lat="42.33346" lon="2.31077">
        <ele>1137</ele>
        <time>2010-01-01T02:11:44Z</time>
      </trkpt>
      <trkpt lat="42.33374" lon="2.31065">
        <ele>1144</ele>
        <time>2010-01-01T02:11:55Z</time>
      </trkpt>
      <trkpt lat="42.33412" lon="2.3105">
        <ele>1153</ele>
        <time>2010-01-01T02:12:11Z</time>
      </trkpt>
      <trkpt lat="42.33436" lon="2.30972">
        <ele>1143</ele>
        <time>2010-01-01T02:12:36Z</time>
      </trkpt>
      <trkpt lat="42.3349" lon="2.30926">
        <ele>1152</ele>
        <time>2010-01-01T02:13:02Z</time>
      </trkpt>
      <trkpt lat="42.33533" lon="2.30911">
        <ele>1165</ele>
        <time>2010-01-01T02:13:20Z</time>
      </trkpt>
      <trkpt lat="42.33562" lon="2.30875">
        <ele>1167</ele>
        <time>2010-01-01T02:13:35Z</time>
      </trkpt>
      <trkpt lat="42.33584" lon="2.30887">
        <ele>1180</ele>
        <time>2010-01-01T02:13:45Z</time>
      </trkpt>
      <trkpt lat="42.33716" lon="2.3084">
        <ele>1236</ele>
        <time>2010-01-01T02:14:39Z</time>
      </trkpt>
      <trkpt lat="42.33747" lon="2.30807">
        <ele>1243</ele>
        <time>2010-01-01T02:14:55Z</time>
      </trkpt>
      <trkpt lat="42.33781" lon="2.30739">
        <ele>1238</ele>
        <time>2010-01-01T02:15:19Z</time>
      </trkpt>
      <trkpt lat="42.33818" lon="2.30728">
        <ele>1231</ele>
        <time>2010-01-01T02:15:35Z</time>
      </trkpt>
      <trkpt lat="42.33977" lon="2.30813">
        <ele>1256</ele>
        <time>2010-01-01T02:16:43Z</time>
      </trkpt>
      <trkpt lat="42.33991" lon="2.30785">
        <ele>1251</ele>
        <time>2010-01-01T02:16:53Z</time>
      </trkpt>
      <trkpt lat="42.34007" lon="2.30761">
        <ele>1250</ele>
        <time>2010-01-01T02:17:03Z</time>
      </trkpt>
      <trkpt lat="42.34004" lon="2.30802">
        <ele>1260</ele>
        <time>2010-01-01T02:17:15Z</time>
      </trkpt>
      <trkpt lat="42.34041" lon="2.30774">
        <ele>1261</ele>
        <time>2010-01-01T02:17:31Z</time>
      </trkpt>
      <trkpt lat="42.34119" lon="2.30836">
        <ele>1294</ele>
        <time>2010-01-01T02:18:08Z</time>
      </trkpt>
      <trkpt lat="42.34165" lon="2.30767">
        <ele>1274</ele>
        <time>2010-01-01T02:18:35Z</time>
      </trkpt>
      <trkpt lat="42.3421" lon="2.30733">
        <ele>1279</ele>
        <time>2010-01-01T02:18:56Z</time>
      </trkpt>
      <trkpt lat="42.34266" lon="2.30681">
        <ele>1278</ele>
        <time>2010-01-01T02:19:23Z</time>
      </trkpt>
      <trkpt lat="42.3428" lon="2.30635">
        <ele>1268</ele>
        <time>2010-01-01T02:19:38Z</time>
      </trkpt>
      <trkpt lat="42.34269" lon="2.30557">
        <ele>1253</ele>
        <time>2010-01-01T02:20:01Z</time>
      </trkpt>
      <trkpt lat="42.34288" lon="2.30383">
        <ele>1235</ele>
        <time>2010-01-01T02:20:53Z</time>
      </trkpt>
      <trkpt lat="42.34299" lon="2.30372">
        <ele>1234</ele>
        <time>2010-01-01T02:20:59Z</time>
      </trkpt>
      <trkpt lat="42.34325" lon="2.30427">
        <ele>1234</ele>
        <time>2010-01-01T02:21:18Z</time>
      </trkpt>
      <trkpt lat="42.34386" lon="2.30589">
        <ele>1248</ele>
        <time>2010-01-01T02:22:12Z</time>
      </trkpt>
      <trkpt lat="42.34412" lon="2.30506">
        <ele>1249</ele>
        <time>2010-01-01T02:22:38Z</time>
      </trkpt>
      <trkpt lat="42.34427" lon="2.30442">
        <ele>1246</ele>
        <time>2010-01-01T02:22:58Z</time>
      </trkpt>
      <trkpt lat="42.34462" lon="2.3037">
        <ele>1251</ele>
        <time>2010-01-01T02:23:24Z</time>
      </trkpt>
      <trkpt lat="42.34484" lon="2.30324">
        <ele>1254</ele>
        <time>2010-01-01T02:23:40Z</time>
      </trkpt>
      <trkpt lat="42.34506" lon="2.30343">
        <ele>1264</ele>
        <time>2010-01-01T02:23:50Z</time>
      </trkpt>
      <trkpt lat="42.34523" lon="2.30351">
        <ele>1270</ele>
        <time>2010-01-01T02:23:58Z</time>
      </trkpt>
      <trkpt lat="42.34534" lon="2.3042">
        <ele>1291</ele>
        <time>2010-01-01T02:24:19Z</time>
      </trkpt>
      <trkpt lat="42.34558" lon="2.30386">
        <ele>1291</ele>
        <time>2010-01-01T02:24:33Z</time>
      </trkpt>
      <trkpt lat="42.34593" lon="2.30387">
        <ele>1305</ele>
        <time>2010-01-01T02:24:46Z</time>
      </trkpt>
      <trkpt lat="42.34616" lon="2.30363">
        <ele>1307</ele>
        <time>2010-01-01T02:24:58Z</time>
      </trkpt>
      <trkpt lat="42.34642" lon="2.30328">
        <ele>1318</ele>
        <time>2010-01-01T02:25:13Z</time>
      </trkpt>
      <trkpt lat="42.34664" lon="2.30282">
        <ele>1320</ele>
        <time>2010-01-01T02:25:29Z</time>
      </trkpt>
      <trkpt lat="42.34688" lon="2.30254">
        <ele>1324</ele>
        <time>2010-01-01T02:25:42Z</time>
      </trkpt>
      <trkpt lat="42.34686" lon="2.3029">
        <ele>1330</ele>
        <time>2010-01-01T02:25:52Z</time>
      </trkpt>
      <trkpt lat="42.34691" lon="2.30303">
        <ele>1334</ele>
        <time>2010-01-01T02:25:57Z</time>
      </trkpt>
      <trkpt lat="42.34707" lon="2.30276">
        <ele>1335</ele>
        <time>2010-01-01T02:26:07Z</time>
      </trkpt>
      <trkpt lat="42.34721" lon="2.30262">
        <ele>1338</ele>
        <time>2010-01-01T02:26:14Z</time>
      </trkpt>
      <trkpt lat="42.34748" lon="2.30258">
        <ele>1348</ele>
        <time>2010-01-01T02:26:25Z</time>
      </trkpt>
      <trkpt lat="42.34781" lon="2.30227">
        <ele>1351</ele>
        <time>2010-01-01T02:26:41Z</time>
      </trkpt>
      <trkpt lat="42.34824" lon="2.30226">
        <ele>1361</ele>
        <time>2010-01-01T02:26:58Z</time>
      </trkpt>
      <trkpt lat="42.3485" lon="2.3022">
        <ele>1367</ele>
        <time>2010-01-01T02:27:09Z</time>
      </trkpt>
      <trkpt lat="42.34894" lon="2.30153">
        <ele>1370</ele>
        <time>2010-01-01T02:27:35Z</time>
      </trkpt>
      <trkpt lat="42.3495" lon="2.30061">
        <ele>1381</ele>
        <time>2010-01-01T02:28:11Z</time>
      </trkpt>
      <trkpt lat="42.35008" lon="2.2999">
        <ele>1397</ele>
        <time>2010-01-01T02:28:42Z</time>
      </trkpt>
      <trkpt lat="42.35043" lon="2.2996">
        <ele>1399</ele>
        <time>2010-01-01T02:28:59Z</time>
      </trkpt>
      <trkpt lat="42.3503" lon="2.30021">
        <ele>1411</ele>
        <time>2010-01-01T02:29:17Z</time>
      </trkpt>
      <trkpt lat="42.35023" lon="2.30066">
        <ele>1421</ele>
        <time>2010-01-01T02:29:31Z</time>
      </trkpt>
      <trkpt lat="42.35044" lon="2.30064">
        <ele>1427</ele>
        <time>2010-01-01T02:29:40Z</time>
      </trkpt>
      <trkpt lat="42.35064" lon="2.30043">
        <ele>1424</ele>
        <time>2010-01-01T02:29:50Z</time>
      </trkpt>
      <trkpt lat="42.35073" lon="2.30051">
        <ele>1425</ele>
        <time>2010-01-01T02:29:54Z</time>
      </trkpt>
      <trkpt lat="42.35077" lon="2.30123">
        <ele>1439</ele>
        <time>2010-01-01T02:30:15Z</time>
      </trkpt>
      <trkpt lat="42.35144" lon="2.30183">
        <ele>1430</ele>
        <time>2010-01-01T02:30:47Z</time>
      </trkpt>
      <trkpt lat="42.35186" lon="2.3021">
        <ele>1436</ele>
        <time>2010-01-01T02:31:06Z</time>
      </trkpt>
      <trkpt lat="42.35235" lon="2.30231">
        <ele>1436</ele>
        <time>2010-01-01T02:31:27Z</time>
      </trkpt>
      <trkpt lat="42.35246" lon="2.3028">
        <ele>1442</ele>
        <time>2010-01-01T02:31:42Z</time>
      </trkpt>
      <trkpt lat="42.35274" lon="2.30267">
        <ele>1440</ele>
        <time>2010-01-01T02:31:54Z</time>
      </trkpt>
      <trkpt lat="42.35308" lon="2.30239">
        <ele>1444</ele>
        <time>2010-01-01T02:32:10Z</time>
      </trkpt>
      <trkpt lat="42.35337" lon="2.30162">
        <ele>1438</ele>
        <time>2010-01-01T02:32:35Z</time>
      </trkpt>
      <trkpt lat="42.35373" lon="2.30031">
        <ele>1440</ele>
        <time>2010-01-01T02:33:16Z</time>
      </trkpt>
      <trkpt lat="42.35416" lon="2.29925">
        <ele>1449</ele>
        <time>2010-01-01T02:33:52Z</time>
      </trkpt>
      <trkpt lat="42.35436" lon="2.29881">
        <ele>1452</ele>
        <time>2010-01-01T02:34:07Z</time>
      </trkpt>
      <trkpt lat="42.35449" lon="2.29818">
        <ele>1448</ele>
        <time>2010-01-01T02:34:27Z</time>
      </trkpt>
      <trkpt lat="42.35459" lon="2.29782">
        <ele>1444</ele>
        <time>2010-01-01T02:34:38Z</time>
      </trkpt>
      <trkpt lat="42.35478" lon="2.29774">
        <ele>1449</ele>
        <time>2010-01-01T02:34:46Z</time>
      </trkpt>
      <trkpt lat="42.35519" lon="2.29792">
        <ele>1461</ele>
        <time>2010-01-01T02:35:03Z</time>
      </trkpt>
      <trkpt lat="42.35556" lon="2.29834">
        <ele>1470</ele>
        <time>2010-01-01T02:35:23Z</time>
      </trkpt>
      <trkpt lat="42.35606" lon="2.29986">
        <ele>1494</ele>
        <time>2010-01-01T02:36:12Z</time>
      </trkpt>
      <trkpt lat="42.35683" lon="2.3006">
        <ele>1504</ele>
        <time>2010-01-01T02:36:50Z</time>
      </trkpt>
      <trkpt lat="42.35729" lon="2.3009">
        <ele>1508</ele>
        <time>2010-01-01T02:37:10Z</time>
      </trkpt>
      <trkpt lat="42.35786" lon="2.30103">
        <ele>1516</ele>
        <time>2010-01-01T02:37:33Z</time>
      </trkpt>
      <trkpt lat="42.35841" lon="2.30132">
        <ele>1524</ele>
        <time>2010-01-01T02:37:57Z</time>
      </trkpt>
      <trkpt lat="42.35893" lon="2.30156">
        <ele>1528</ele>
        <time>2010-01-01T02:38:19Z</time>
      </trkpt>
      <trkpt lat="42.35938" lon="2.30181">
        <ele>1536</ele>
        <time>2010-01-01T02:38:38Z</time>
      </trkpt>
      <trkpt lat="42.35984" lon="2.30171">
        <ele>1538</ele>
        <time>2010-01-01T02:38:57Z</time>
      </trkpt>
      <trkpt lat="42.36017" lon="2.30148">
        <ele>1538</ele>
        <time>2010-01-01T02:39:12Z</time>
      </trkpt>
      <trkpt lat="42.36057" lon="2.30088">
        <ele>1531</ele>
        <time>2010-01-01T02:39:36Z</time>
      </trkpt>
      <trkpt lat="42.36099" lon="2.30044">
        <ele>1523</ele>
        <time>2010-01-01T02:39:57Z</time>
      </trkpt>
      <trkpt lat="42.36162" lon="2.30042">
        <ele>1522</ele>
        <time>2010-01-01T02:40:22Z</time>
      </trkpt>
      <trkpt lat="42.36178" lon="2.30047">
        <ele>1519</ele>
        <time>2010-01-01T02:40:29Z</time>
      </trkpt>
      <trkpt lat="42.36179" lon="2.30107">
        <ele>1521</ele>
        <time>2010-01-01T02:40:47Z</time>
      </trkpt>
      <trkpt lat="42.36196" lon="2.30122">
        <ele>1520</ele>
        <time>2010-01-01T02:40:55Z</time>
      </trkpt>
      <trkpt lat="42.36215" lon="2.3013">
        <ele>1522</ele>
        <time>2010-01-01T02:41:02Z</time>
      </trkpt>
      <trkpt lat="42.36235" lon="2.30125">
        <ele>1520</ele>
        <time>2010-01-01T02:41:11Z</time>
      </trkpt>
      <trkpt lat="42.36261" lon="2.30104">
        <ele>1512</ele>
        <time>2010-01-01T02:41:23Z</time>
      </trkpt>
      <trkpt lat="42.36287" lon="2.30072">
        <ele>1499</ele>
        <time>2010-01-01T02:41:37Z</time>
      </trkpt>
      <trkpt lat="42.36294" lon="2.30041">
        <ele>1488</ele>
        <time>2010-01-01T02:41:47Z</time>
      </trkpt>
      <trkpt lat="42.36332" lon="2.30021">
        <ele>1483</ele>
        <time>2010-01-01T02:42:03Z</time>
      </trkpt>
      <trkpt lat="42.36373" lon="2.30007">
        <ele>1474</ele>
        <time>2010-01-01T02:42:20Z</time>
      </trkpt>
      <trkpt lat="42.36417" lon="2.29996">
        <ele>1462</ele>
        <time>2010-01-01T02:42:38Z</time>
      </trkpt>
      <trkpt lat="42.36446" lon="2.29993">
        <ele>1455</ele>
        <time>2010-01-01T02:42:49Z</time>
      </trkpt>
      <trkpt lat="42.36456" lon="2.29985">
        <ele>1451</ele>
        <time>2010-01-01T02:42:54Z</time>
      </trkpt>
      <trkpt lat="42.36492" lon="2.30012">
        <ele>1446</ele>
        <time>2010-01-01T02:43:11Z</time>
      </trkpt>
      <trkpt lat="42.3653" lon="2.30009">
        <ele>1421</ele>
        <time>2010-01-01T02:43:26Z</time>
      </trkpt>
      <trkpt lat="42.36591" lon="2.30006">
        <ele>1405</ele>
        <time>2010-01-01T02:43:50Z</time>
      </trkpt>
      <trkpt lat="42.36637" lon="2.30007">
        <ele>1395</ele>
        <time>2010-01-01T02:44:09Z</time>
      </trkpt>
      <trkpt lat="42.3668" lon="2.29997">
        <ele>1381</ele>
        <time>2010-01-01T02:44:26Z</time>
      </trkpt>
      <trkpt lat="42.36697" lon="2.2998">
        <ele>1372</ele>
        <time>2010-01-01T02:44:34Z</time>
      </trkpt>
      <trkpt lat="42.36717" lon="2.29957">
        <ele>1359</ele>
        <time>2010-01-01T02:44:45Z</time>
      </trkpt>
      <trkpt lat="42.36723" lon="2.29948">
        <ele>1354</ele>
        <time>2010-01-01T02:44:49Z</time>
      </trkpt>
      <trkpt lat="42.36751" lon="2.29957">
        <ele>1346</ele>
        <time>2010-01-01T02:45:00Z</time>
      </trkpt>
      <trkpt lat="42.36794" lon="2.29935">
        <ele>1321</ele>
        <time>2010-01-01T02:45:19Z</time>
      </trkpt>
      <trkpt lat="42.36848" lon="2.2992">
        <ele>1301</ele>
        <time>2010-01-01T02:45:41Z</time>
      </trkpt>
      <trkpt lat="42.36913" lon="2.29912">
        <ele>1286</ele>
        <time>2010-01-01T02:46:07Z</time>
      </trkpt>
      <trkpt lat="42.36996" lon="2.29879">
        <ele>1260</ele>
        <time>2010-01-01T02:46:42Z</time>
      </trkpt>
      <trkpt lat="42.37035" lon="2.29893">
        <ele>1255</ele>
        <time>2010-01-01T02:46:57Z</time>
      </trkpt>
      <trkpt lat="42.37062" lon="2.29898">
        <ele>1253</ele>
        <time>2010-01-01T02:47:08Z</time>
      </trkpt>
      <trkpt lat="42.3709" lon="2.29903">
        <ele>1253</ele>
        <time>2010-01-01T02:47:20Z</time>
      </trkpt>
      <trkpt lat="42.37118" lon="2.29934">
        <ele>1259</ele>
        <time>2010-01-01T02:47:34Z</time>
      </trkpt>
      <trkpt lat="42.37186" lon="2.2994">
        <ele>1250</ele>
        <time>2010-01-01T02:48:02Z</time>
      </trkpt>
      <trkpt lat="42.37291" lon="2.30091">
        <ele>1263</ele>
        <time>2010-01-01T02:49:03Z</time>
      </trkpt>
      <trkpt lat="42.3738" lon="2.30193">
        <ele>1271</ele>
        <time>2010-01-01T02:49:49Z</time>
      </trkpt>
      <trkpt lat="42.37545" lon="2.30281">
        <ele>1274</ele>
        <time>2010-01-01T02:51:00Z</time>
      </trkpt>
      <trkpt lat="42.37581" lon="2.3032">
        <ele>1280</ele>
        <time>2010-01-01T02:51:19Z</time>
      </trkpt>
      <trkpt lat="42.37581" lon="2.30337">
        <ele>1282</ele>
        <time>2010-01-01T02:51:24Z</time>
      </trkpt>
      <trkpt lat="42.37573" lon="2.30376">
        <ele>1283</ele>
        <time>2010-01-01T02:51:36Z</time>
      </trkpt>
      <trkpt lat="42.3758" lon="2.30394">
        <ele>1285</ele>
        <time>2010-01-01T02:51:42Z</time>
      </trkpt>
      <trkpt lat="42.37577" lon="2.30398">
        <ele>1285</ele>
        <time>2010-01-01T02:51:44Z</time>
      </trkpt>
      <trkpt lat="42.37587" lon="2.30422">
        <ele>1289</ele>
        <time>2010-01-01T02:51:52Z</time>
      </trkpt>
      <trkpt lat="42.37604" lon="2.30433">
        <ele>1292</ele>
        <time>2010-01-01T02:52:00Z</time>
      </trkpt>
      <trkpt lat="42.37616" lon="2.30453">
        <ele>1293</ele>
        <time>2010-01-01T02:52:07Z</time>
      </trkpt>
      <trkpt lat="42.37629" lon="2.3047">
        <ele>1294</ele>
        <time>2010-01-01T02:52:15Z</time>
      </trkpt>
      <trkpt lat="42.37639" lon="2.30491">
        <ele>1295</ele>
        <time>2010-01-01T02:52:22Z</time>
      </trkpt>
      <trkpt lat="42.37644" lon="2.30515">
        <ele>1297</ele>
        <time>2010-01-01T02:52:29Z</time>
      </trkpt>
      <trkpt lat="42.37645" lon="2.30541">
        <ele>1300</ele>
        <time>2010-01-01T02:52:37Z</time>
      </trkpt>
      <trkpt lat="42.37655" lon="2.30564">
        <ele>1300</ele>
        <time>2010-01-01T02:52:45Z</time>
      </trkpt>
      <trkpt lat="42.37669" lon="2.30581">
        <ele>1300</ele>
        <time>2010-01-01T02:52:52Z</time>
      </trkpt>
      <trkpt lat="42.37681" lon="2.306">
        <ele>1304</ele>
        <time>2010-01-01T02:53:00Z</time>
      </trkpt>
      <trkpt lat="42.37694" lon="2.30619">
        <ele>1306</ele>
        <time>2010-01-01T02:53:08Z</time>
      </trkpt>
      <trkpt lat="42.37699" lon="2.30644">
        <ele>1307</ele>
        <time>2010-01-01T02:53:15Z</time>
      </trkpt>
      <trkpt lat="42.37703" lon="2.30669">
        <ele>1308</ele>
        <time>2010-01-01T02:53:23Z</time>
      </trkpt>
      <trkpt lat="42.3771" lon="2.30693">
        <ele>1308</ele>
        <time>2010-01-01T02:53:30Z</time>
      </trkpt>
      <trkpt lat="42.37706" lon="2.30717">
        <ele>1310</ele>
        <time>2010-01-01T02:53:38Z</time>
      </trkpt>
      <trkpt lat="42.377" lon="2.3074">
        <ele>1313</ele>
        <time>2010-01-01T02:53:45Z</time>
      </trkpt>
      <trkpt lat="42.37697" lon="2.30764">
        <ele>1316</ele>
        <time>2010-01-01T02:53:52Z</time>
      </trkpt>
      <trkpt lat="42.37697" lon="2.3079">
        <ele>1318</ele>
        <time>2010-01-01T02:54:00Z</time>
      </trkpt>
      <trkpt lat="42.377" lon="2.30814">
        <ele>1318</ele>
        <time>2010-01-01T02:54:07Z</time>
      </trkpt>
      <trkpt lat="42.3771" lon="2.30837">
        <ele>1319</ele>
        <time>2010-01-01T02:54:15Z</time>
      </trkpt>
      <trkpt lat="42.37718" lon="2.30859">
        <ele>1320</ele>
        <time>2010-01-01T02:54:22Z</time>
      </trkpt>
      <trkpt lat="42.37726" lon="2.30882">
        <ele>1325</ele>
        <time>2010-01-01T02:54:30Z</time>
      </trkpt>
      <trkpt lat="42.37734" lon="2.30906">
        <ele>1327</ele>
        <time>2010-01-01T02:54:37Z</time>
      </trkpt>
      <trkpt lat="42.37747" lon="2.30925">
        <ele>1327</ele>
        <time>2010-01-01T02:54:45Z</time>
      </trkpt>
      <trkpt lat="42.37759" lon="2.30944">
        <ele>1327</ele>
        <time>2010-01-01T02:54:53Z</time>
      </trkpt>
      <trkpt lat="42.37778" lon="2.30951">
        <ele>1328</ele>
        <time>2010-01-01T02:55:00Z</time>
      </trkpt>
      <trkpt lat="42.37791" lon="2.30975">
        <ele>1330</ele>
        <time>2010-01-01T02:55:09Z</time>
      </trkpt>
      <trkpt lat="42.37802" lon="2.30995">
        <ele>1331</ele>
        <time>2010-01-01T02:55:17Z</time>
      </trkpt>
      <trkpt lat="42.3781" lon="2.31018">
        <ele>1334</ele>
        <time>2010-01-01T02:55:24Z</time>
      </trkpt>
      <trkpt lat="42.37819" lon="2.31039">
        <ele>1336</ele>
        <time>2010-01-01T02:55:31Z</time>
      </trkpt>
      <trkpt lat="42.37824" lon="2.31063">
        <ele>1335</ele>
        <time>2010-01-01T02:55:39Z</time>
      </trkpt>
      <trkpt lat="42.37829" lon="2.31089">
        <ele>1333</ele>
        <time>2010-01-01T02:55:47Z</time>
      </trkpt>
      <trkpt lat="42.37831" lon="2.31115">
        <ele>1335</ele>
        <time>2010-01-01T02:55:54Z</time>
      </trkpt>
      <trkpt lat="42.37839" lon="2.31137">
        <ele>1337</ele>
        <time>2010-01-01T02:56:02Z</time>
      </trkpt>
      <trkpt lat="42.37843" lon="2.31163">
        <ele>1337</ele>
        <time>2010-01-01T02:56:09Z</time>
      </trkpt>
      <trkpt lat="42.37854" lon="2.31185">
        <ele>1338</ele>
        <time>2010-01-01T02:56:17Z</time>
      </trkpt>
      <trkpt lat="42.37857" lon="2.31209">
        <ele>1339</ele>
        <time>2010-01-01T02:56:25Z</time>
      </trkpt>
      <trkpt lat="42.37865" lon="2.31232">
        <ele>1344</ele>
        <time>2010-01-01T02:56:32Z</time>
      </trkpt>
      <trkpt lat="42.37868" lon="2.31259">
        <ele>1347</ele>
        <time>2010-01-01T02:56:40Z</time>
      </trkpt>
      <trkpt lat="42.37859" lon="2.3128">
        <ele>1345</ele>
        <time>2010-01-01T02:56:47Z</time>
      </trkpt>
      <trkpt lat="42.3786" lon="2.31306">
        <ele>1346</ele>
        <time>2010-01-01T02:56:55Z</time>
      </trkpt>
      <trkpt lat="42.37871" lon="2.31328">
        <ele>1352</ele>
        <time>2010-01-01T02:57:03Z</time>
      </trkpt>
      <trkpt lat="42.37884" lon="2.31345">
        <ele>1356</ele>
        <time>2010-01-01T02:57:10Z</time>
      </trkpt>
      <trkpt lat="42.3789" lon="2.31371">
        <ele>1360</ele>
        <time>2010-01-01T02:57:18Z</time>
      </trkpt>
      <trkpt lat="42.37895" lon="2.31395">
        <ele>1364</ele>
        <time>2010-01-01T02:57:25Z</time>
      </trkpt>
      <trkpt lat="42.37889" lon="2.31419">
        <ele>1363</ele>
        <time>2010-01-01T02:57:33Z</time>
      </trkpt>
      <trkpt lat="42.37883" lon="2.31443">
        <ele>1365</ele>
        <time>2010-01-01T02:57:40Z</time>
      </trkpt>
      <trkpt lat="42.37883" lon="2.31467">
        <ele>1369</ele>
        <time>2010-01-01T02:57:48Z</time>
      </trkpt>
      <trkpt lat="42.37874" lon="2.31489">
        <ele>1368</ele>
        <time>2010-01-01T02:57:55Z</time>
      </trkpt>
      <trkpt lat="42.37872" lon="2.31514">
        <ele>1368</ele>
        <time>2010-01-01T02:58:02Z</time>
      </trkpt>
      <trkpt lat="42.37867" lon="2.31538">
        <ele>1367</ele>
        <time>2010-01-01T02:58:10Z</time>
      </trkpt>
      <trkpt lat="42.37863" lon="2.31562">
        <ele>1368</ele>
        <time>2010-01-01T02:58:17Z</time>
      </trkpt>
      <trkpt lat="42.37866" lon="2.31587">
        <ele>1370</ele>
        <time>2010-01-01T02:58:24Z</time>
      </trkpt>
      <trkpt lat="42.37859" lon="2.3161">
        <ele>1373</ele>
        <time>2010-01-01T02:58:32Z</time>
      </trkpt>
      <trkpt lat="42.37847" lon="2.31629">
        <ele>1376</ele>
        <time>2010-01-01T02:58:39Z</time>
      </trkpt>
      <trkpt lat="42.37836" lon="2.31649">
        <ele>1377</ele>
        <time>2010-01-01T02:58:47Z</time>
      </trkpt>
      <trkpt lat="42.37846" lon="2.31672">
        <ele>1381</ele>
        <time>2010-01-01T02:58:55Z</time>
      </trkpt>
      <trkpt lat="42.37847" lon="2.31697">
        <ele>1385</ele>
        <time>2010-01-01T02:59:02Z</time>
      </trkpt>
      <trkpt lat="42.37838" lon="2.31718">
        <ele>1388</ele>
        <time>2010-01-01T02:59:09Z</time>
      </trkpt>
      <trkpt lat="42.37821" lon="2.31729">
        <ele>1387</ele>
        <time>2010-01-01T02:59:17Z</time>
      </trkpt>
      <trkpt lat="42.37806" lon="2.31744">
        <ele>1389</ele>
        <time>2010-01-01T02:59:24Z</time>
      </trkpt>
      <trkpt lat="42.378" lon="2.31769">
        <ele>1391</ele>
        <time>2010-01-01T02:59:32Z</time>
      </trkpt>
      <trkpt lat="42.37808" lon="2.31792">
        <ele>1390</ele>
        <time>2010-01-01T02:59:40Z</time>
      </trkpt>
      <trkpt lat="42.37817" lon="2.31816">
        <ele>1393</ele>
        <time>2010-01-01T02:59:48Z</time>
      </trkpt>
      <trkpt lat="42.37814" lon="2.31841">
        <ele>1396</ele>
        <time>2010-01-01T02:59:55Z</time>
      </trkpt>
      <trkpt lat="42.37823" lon="2.31862">
        <ele>1397</ele>
        <time>2010-01-01T03:00:02Z</time>
      </trkpt>
      <trkpt lat="42.37826" lon="2.31886">
        <ele>1399</ele>
        <time>2010-01-01T03:00:09Z</time>
      </trkpt>
      <trkpt lat="42.37819" lon="2.3191">
        <ele>1398</ele>
        <time>2010-01-01T03:00:17Z</time>
      </trkpt>
      <trkpt lat="42.37813" lon="2.31933">
        <ele>1396</ele>
        <time>2010-01-01T03:00:24Z</time>
      </trkpt>
      <trkpt lat="42.37814" lon="2.31959">
        <ele>1398</ele>
        <time>2010-01-01T03:00:32Z</time>
      </trkpt>
      <trkpt lat="42.37821" lon="2.31982">
        <ele>1400</ele>
        <time>2010-01-01T03:00:39Z</time>
      </trkpt>
      <trkpt lat="42.37823" lon="2.32006">
        <ele>1401</ele>
        <time>2010-01-01T03:00:46Z</time>
      </trkpt>
      <trkpt lat="42.37835" lon="2.32028">
        <ele>1401</ele>
        <time>2010-01-01T03:00:54Z</time>
      </trkpt>
      <trkpt lat="42.37847" lon="2.32045">
        <ele>1407</ele>
        <time>2010-01-01T03:01:01Z</time>
      </trkpt>
      <trkpt lat="42.37845" lon="2.3207">
        <ele>1407</ele>
        <time>2010-01-01T03:01:09Z</time>
      </trkpt>
      <trkpt lat="42.37853" lon="2.32093">
        <ele>1413</ele>
        <time>2010-01-01T03:01:16Z</time>
      </trkpt>
      <trkpt lat="42.37858" lon="2.32117">
        <ele>1417</ele>
        <time>2010-01-01T03:01:24Z</time>
      </trkpt>
      <trkpt lat="42.37863" lon="2.32142">
        <ele>1419</ele>
        <time>2010-01-01T03:01:31Z</time>
      </trkpt>
      <trkpt lat="42.37865" lon="2.32168">
        <ele>1420</ele>
        <time>2010-01-01T03:01:39Z</time>
      </trkpt>
      <trkpt lat="42.37869" lon="2.32192">
        <ele>1424</ele>
        <time>2010-01-01T03:01:46Z</time>
      </trkpt>
      <trkpt lat="42.3787" lon="2.32218">
        <ele>1424</ele>
        <time>2010-01-01T03:01:54Z</time>
      </trkpt>
      <trkpt lat="42.37873" lon="2.32242">
        <ele>1424</ele>
        <time>2010-01-01T03:02:01Z</time>
      </trkpt>
      <trkpt lat="42.3788" lon="2.32266">
        <ele>1424</ele>
        <time>2010-01-01T03:02:09Z</time>
      </trkpt>
      <trkpt lat="42.37875" lon="2.3229">
        <ele>1423</ele>
        <time>2010-01-01T03:02:16Z</time>
      </trkpt>
      <trkpt lat="42.37879" lon="2.32315">
        <ele>1424</ele>
        <time>2010-01-01T03:02:24Z</time>
      </trkpt>
      <trkpt lat="42.37888" lon="2.32337">
        <ele>1426</ele>
        <time>2010-01-01T03:02:31Z</time>
      </trkpt>
      <trkpt lat="42.37896" lon="2.32315">
        <ele>1426</ele>
        <time>2010-01-01T03:02:38Z</time>
      </trkpt>
      <trkpt lat="42.37897" lon="2.32339">
        <ele>1429</ele>
        <time>2010-01-01T03:02:45Z</time>
      </trkpt>
      <trkpt lat="42.3791" lon="2.32358">
        <ele>1434</ele>
        <time>2010-01-01T03:02:53Z</time>
      </trkpt>
      <trkpt lat="42.37927" lon="2.32367">
        <ele>1435</ele>
        <time>2010-01-01T03:03:00Z</time>
      </trkpt>
      <trkpt lat="42.37944" lon="2.32379">
        <ele>1435</ele>
        <time>2010-01-01T03:03:08Z</time>
      </trkpt>
      <trkpt lat="42.37962" lon="2.32382">
        <ele>1436</ele>
        <time>2010-01-01T03:03:15Z</time>
      </trkpt>
      <trkpt lat="42.3798" lon="2.32388">
        <ele>1437</ele>
        <time>2010-01-01T03:03:23Z</time>
      </trkpt>
      <trkpt lat="42.37995" lon="2.32402">
        <ele>1439</ele>
        <time>2010-01-01T03:03:30Z</time>
      </trkpt>
      <trkpt lat="42.38013" lon="2.32415">
        <ele>1441</ele>
        <time>2010-01-01T03:03:38Z</time>
      </trkpt>
      <trkpt lat="42.38028" lon="2.32429">
        <ele>1443</ele>
        <time>2010-01-01T03:03:45Z</time>
      </trkpt>
      <trkpt lat="42.38025" lon="2.32453">
        <ele>1443</ele>
        <time>2010-01-01T03:03:53Z</time>
      </trkpt>
      <trkpt lat="42.3803" lon="2.32478">
        <ele>1444</ele>
        <time>2010-01-01T03:04:00Z</time>
      </trkpt>
      <trkpt lat="42.38032" lon="2.32503">
        <ele>1441</ele>
        <time>2010-01-01T03:04:08Z</time>
      </trkpt>
      <trkpt lat="42.38042" lon="2.32525">
        <ele>1446</ele>
        <time>2010-01-01T03:04:15Z</time>
      </trkpt>
      <trkpt lat="42.38056" lon="2.3254">
        <ele>1448</ele>
        <time>2010-01-01T03:04:22Z</time>
      </trkpt>
      <trkpt lat="42.38058" lon="2.32565">
        <ele>1451</ele>
        <time>2010-01-01T03:04:30Z</time>
      </trkpt>
      <trkpt lat="42.38071" lon="2.32582">
        <ele>1453</ele>
        <time>2010-01-01T03:04:37Z</time>
      </trkpt>
      <trkpt lat="42.38083" lon="2.32604">
        <ele>1455</ele>
        <time>2010-01-01T03:04:45Z</time>
      </trkpt>
      <trkpt lat="42.3809" lon="2.32627">
        <ele>1458</ele>
        <time>2010-01-01T03:04:52Z</time>
      </trkpt>
      <trkpt lat="42.38101" lon="2.32648">
        <ele>1461</ele>
        <time>2010-01-01T03:05:00Z</time>
      </trkpt>
      <trkpt lat="42.38106" lon="2.32671">
        <ele>1462</ele>
        <time>2010-01-01T03:05:07Z</time>
      </trkpt>
      <trkpt lat="42.38118" lon="2.32691">
        <ele>1463</ele>
        <time>2010-01-01T03:05:14Z</time>
      </trkpt>
      <trkpt lat="42.38133" lon="2.32705">
        <ele>1465</ele>
        <time>2010-01-01T03:05:22Z</time>
      </trkpt>
      <trkpt lat="42.3815" lon="2.32714">
        <ele>1467</ele>
        <time>2010-01-01T03:05:29Z</time>
      </trkpt>
      <trkpt lat="42.38168" lon="2.32725">
        <ele>1469</ele>
        <time>2010-01-01T03:05:37Z</time>
      </trkpt>
      <trkpt lat="42.38186" lon="2.32726">
        <ele>1474</ele>
        <time>2010-01-01T03:05:44Z</time>
      </trkpt>
      <trkpt lat="42.38205" lon="2.32724">
        <ele>1477</ele>
        <time>2010-01-01T03:05:52Z</time>
      </trkpt>
      <trkpt lat="42.38223" lon="2.32722">
        <ele>1479</ele>
        <time>2010-01-01T03:05:59Z</time>
      </trkpt>
      <trkpt lat="42.38242" lon="2.32727">
        <ele>1479</ele>
        <time>2010-01-01T03:06:07Z</time>
      </trkpt>
      <trkpt lat="42.38259" lon="2.32737">
        <ele>1478</ele>
        <time>2010-01-01T03:06:14Z</time>
      </trkpt>
      <trkpt lat="42.38277" lon="2.32753">
        <ele>1476</ele>
        <time>2010-01-01T03:06:23Z</time>
      </trkpt>
      <trkpt lat="42.38295" lon="2.32759">
        <ele>1480</ele>
        <time>2010-01-01T03:06:30Z</time>
      </trkpt>
      <trkpt lat="42.38314" lon="2.32755">
        <ele>1484</ele>
        <time>2010-01-01T03:06:38Z</time>
      </trkpt>
      <trkpt lat="42.38331" lon="2.3276">
        <ele>1485</ele>
        <time>2010-01-01T03:06:45Z</time>
      </trkpt>
      <trkpt lat="42.38349" lon="2.32768">
        <ele>1486</ele>
        <time>2010-01-01T03:06:53Z</time>
      </trkpt>
      <trkpt lat="42.38362" lon="2.32784">
        <ele>1485</ele>
        <time>2010-01-01T03:07:00Z</time>
      </trkpt>
      <trkpt lat="42.38381" lon="2.32785">
        <ele>1489</ele>
        <time>2010-01-01T03:07:07Z</time>
      </trkpt>
      <trkpt lat="42.38399" lon="2.3279">
        <ele>1492</ele>
        <time>2010-01-01T03:07:15Z</time>
      </trkpt>
      <trkpt lat="42.38418" lon="2.32793">
        <ele>1494</ele>
        <time>2010-01-01T03:07:22Z</time>
      </trkpt>
      <trkpt lat="42.38436" lon="2.32799">
        <ele>1495</ele>
        <time>2010-01-01T03:07:30Z</time>
      </trkpt>
      <trkpt lat="42.38455" lon="2.32801">
        <ele>1496</ele>
        <time>2010-01-01T03:07:37Z</time>
      </trkpt>
      <trkpt lat="42.38474" lon="2.32801">
        <ele>1497</ele>
        <time>2010-01-01T03:07:45Z</time>
      </trkpt>
      <trkpt lat="42.38493" lon="2.32802">
        <ele>1501</ele>
        <time>2010-01-01T03:07:52Z</time>
      </trkpt>
      <trkpt lat="42.38507" lon="2.32817">
        <ele>1506</ele>
        <time>2010-01-01T03:08:00Z</time>
      </trkpt>
      <trkpt lat="42.3852" lon="2.32834">
        <ele>1510</ele>
        <time>2010-01-01T03:08:07Z</time>
      </trkpt>
      <trkpt lat="42.38534" lon="2.3285">
        <ele>1515</ele>
        <time>2010-01-01T03:08:14Z</time>
      </trkpt>
      <trkpt lat="42.38542" lon="2.32872">
        <ele>1517</ele>
        <time>2010-01-01T03:08:22Z</time>
      </trkpt>
      <trkpt lat="42.38554" lon="2.3289">
        <ele>1518</ele>
        <time>2010-01-01T03:08:29Z</time>
      </trkpt>
      <trkpt lat="42.38569" lon="2.32906">
        <ele>1523</ele>
        <time>2010-01-01T03:08:37Z</time>
      </trkpt>
      <trkpt lat="42.38578" lon="2.32928">
        <ele>1526</ele>
        <time>2010-01-01T03:08:44Z</time>
      </trkpt>
      <trkpt lat="42.38582" lon="2.32953">
        <ele>1525</ele>
        <time>2010-01-01T03:08:51Z</time>
      </trkpt>
      <trkpt lat="42.3859" lon="2.32976">
        <ele>1526</ele>
        <time>2010-01-01T03:08:59Z</time>
      </trkpt>
      <trkpt lat="42.38595" lon="2.33">
        <ele>1529</ele>
        <time>2010-01-01T03:09:06Z</time>
      </trkpt>
      <trkpt lat="42.38598" lon="2.33025">
        <ele>1533</ele>
        <time>2010-01-01T03:09:14Z</time>
      </trkpt>
      <trkpt lat="42.38595" lon="2.3305">
        <ele>1534</ele>
        <time>2010-01-01T03:09:21Z</time>
      </trkpt>
      <trkpt lat="42.38596" lon="2.33074">
        <ele>1536</ele>
        <time>2010-01-01T03:09:28Z</time>
      </trkpt>
      <trkpt lat="42.38597" lon="2.331">
        <ele>1536</ele>
        <time>2010-01-01T03:09:36Z</time>
      </trkpt>
      <trkpt lat="42.38598" lon="2.33125">
        <ele>1539</ele>
        <time>2010-01-01T03:09:43Z</time>
      </trkpt>
      <trkpt lat="42.38605" lon="2.33149">
        <ele>1541</ele>
        <time>2010-01-01T03:09:51Z</time>
      </trkpt>
      <trkpt lat="42.38616" lon="2.33169">
        <ele>1540</ele>
        <time>2010-01-01T03:09:58Z</time>
      </trkpt>
      <trkpt lat="42.38628" lon="2.33189">
        <ele>1545</ele>
        <time>2010-01-01T03:10:06Z</time>
      </trkpt>
      <trkpt lat="42.38643" lon="2.33205">
        <ele>1547</ele>
        <time>2010-01-01T03:10:14Z</time>
      </trkpt>
      <trkpt lat="42.38658" lon="2.3322">
        <ele>1551</ele>
        <time>2010-01-01T03:10:21Z</time>
      </trkpt>
      <trkpt lat="42.38673" lon="2.33235">
        <ele>1553</ele>
        <time>2010-01-01T03:10:29Z</time>
      </trkpt>
      <trkpt lat="42.38689" lon="2.33248">
        <ele>1554</ele>
        <time>2010-01-01T03:10:36Z</time>
      </trkpt>
      <trkpt lat="42.38703" lon="2.33264">
        <ele>1557</ele>
        <time>2010-01-01T03:10:43Z</time>
      </trkpt>
      <trkpt lat="42.38719" lon="2.33278">
        <ele>1560</ele>
        <time>2010-01-01T03:10:51Z</time>
      </trkpt>
      <trkpt lat="42.38733" lon="2.33297">
        <ele>1564</ele>
        <time>2010-01-01T03:10:59Z</time>
      </trkpt>
      <trkpt lat="42.38746" lon="2.33313">
        <ele>1568</ele>
        <time>2010-01-01T03:11:06Z</time>
      </trkpt>
      <trkpt lat="42.38764" lon="2.33321">
        <ele>1570</ele>
        <time>2010-01-01T03:11:13Z</time>
      </trkpt>
      <trkpt lat="42.3878" lon="2.33334">
        <ele>1571</ele>
        <time>2010-01-01T03:11:21Z</time>
      </trkpt>
      <trkpt lat="42.38789" lon="2.33357">
        <ele>1573</ele>
        <time>2010-01-01T03:11:29Z</time>
      </trkpt>
      <trkpt lat="42.38795" lon="2.33381">
        <ele>1575</ele>
        <time>2010-01-01T03:11:36Z</time>
      </trkpt>
      <trkpt lat="42.38809" lon="2.33398">
        <ele>1576</ele>
        <time>2010-01-01T03:11:44Z</time>
      </trkpt>
      <trkpt lat="42.38818" lon="2.33421">
        <ele>1581</ele>
        <time>2010-01-01T03:11:51Z</time>
      </trkpt>
      <trkpt lat="42.38822" lon="2.33445">
        <ele>1588</ele>
        <time>2010-01-01T03:11:59Z</time>
      </trkpt>
      <trkpt lat="42.38836" lon="2.33462">
        <ele>1590</ele>
        <time>2010-01-01T03:12:06Z</time>
      </trkpt>
      <trkpt lat="42.38851" lon="2.33477">
        <ele>1593</ele>
        <time>2010-01-01T03:12:13Z</time>
      </trkpt>
      <trkpt lat="42.38866" lon="2.33492">
        <ele>1594</ele>
        <time>2010-01-01T03:12:21Z</time>
      </trkpt>
      <trkpt lat="42.38881" lon="2.33509">
        <ele>1596</ele>
        <time>2010-01-01T03:12:29Z</time>
      </trkpt>
      <trkpt lat="42.38888" lon="2.33532">
        <ele>1596</ele>
        <time>2010-01-01T03:12:36Z</time>
      </trkpt>
      <trkpt lat="42.38895" lon="2.33557">
        <ele>1599</ele>
        <time>2010-01-01T03:12:44Z</time>
      </trkpt>
      <trkpt lat="42.38902" lon="2.33579">
        <ele>1602</ele>
        <time>2010-01-01T03:12:51Z</time>
      </trkpt>
      <trkpt lat="42.38917" lon="2.33596">
        <ele>1600</ele>
        <time>2010-01-01T03:12:59Z</time>
      </trkpt>
      <trkpt lat="42.38932" lon="2.33609">
        <ele>1602</ele>
        <time>2010-01-01T03:13:06Z</time>
      </trkpt>
      <trkpt lat="42.38951" lon="2.33606">
        <ele>1604</ele>
        <time>2010-01-01T03:13:14Z</time>
      </trkpt>
      <trkpt lat="42.38967" lon="2.33617">
        <ele>1609</ele>
        <time>2010-01-01T03:13:21Z</time>
      </trkpt>
      <trkpt lat="42.38986" lon="2.33624">
        <ele>1617</ele>
        <time>2010-01-01T03:13:29Z</time>
      </trkpt>
      <trkpt lat="42.39004" lon="2.33625">
        <ele>1622</ele>
        <time>2010-01-01T03:13:36Z</time>
      </trkpt>
      <trkpt lat="42.39023" lon="2.33625">
        <ele>1626</ele>
        <time>2010-01-01T03:13:44Z</time>
      </trkpt>
      <trkpt lat="42.3904" lon="2.33612">
        <ele>1626</ele>
        <time>2010-01-01T03:13:51Z</time>
      </trkpt>
      <trkpt lat="42.39059" lon="2.3361">
        <ele>1630</ele>
        <time>2010-01-01T03:13:59Z</time>
      </trkpt>
      <trkpt lat="42.39079" lon="2.33611">
        <ele>1631</ele>
        <time>2010-01-01T03:14:07Z</time>
      </trkpt>
      <trkpt lat="42.39096" lon="2.33619">
        <ele>1633</ele>
        <time>2010-01-01T03:14:14Z</time>
      </trkpt>
      <trkpt lat="42.39113" lon="2.33625">
        <ele>1633</ele>
        <time>2010-01-01T03:14:21Z</time>
      </trkpt>
      <trkpt lat="42.39131" lon="2.3363">
        <ele>1634</ele>
        <time>2010-01-01T03:14:29Z</time>
      </trkpt>
      <trkpt lat="42.39148" lon="2.33622">
        <ele>1636</ele>
        <time>2010-01-01T03:14:36Z</time>
      </trkpt>
      <trkpt lat="42.39166" lon="2.33616">
        <ele>1637</ele>
        <time>2010-01-01T03:14:43Z</time>
      </trkpt>
      <trkpt lat="42.39185" lon="2.33622">
        <ele>1641</ele>
        <time>2010-01-01T03:14:51Z</time>
      </trkpt>
      <trkpt lat="42.39202" lon="2.33632">
        <ele>1644</ele>
        <time>2010-01-01T03:14:59Z</time>
      </trkpt>
      <trkpt lat="42.39218" lon="2.33646">
        <ele>1648</ele>
        <time>2010-01-01T03:15:06Z</time>
      </trkpt>
      <trkpt lat="42.39237" lon="2.33644">
        <ele>1653</ele>
        <time>2010-01-01T03:15:14Z</time>
      </trkpt>
      <trkpt lat="42.39245" lon="2.33666">
        <ele>1654</ele>
        <time>2010-01-01T03:15:21Z</time>
      </trkpt>
      <trkpt lat="42.39251" lon="2.33689">
        <ele>1654</ele>
        <time>2010-01-01T03:15:28Z</time>
      </trkpt>
      <trkpt lat="42.39265" lon="2.33706">
        <ele>1658</ele>
        <time>2010-01-01T03:15:36Z</time>
      </trkpt>
      <trkpt lat="42.3928" lon="2.33721">
        <ele>1661</ele>
        <time>2010-01-01T03:15:43Z</time>
      </trkpt>
      <trkpt lat="42.39296" lon="2.33734">
        <ele>1664</ele>
        <time>2010-01-01T03:15:51Z</time>
      </trkpt>
      <trkpt lat="42.39314" lon="2.33738">
        <ele>1668</ele>
        <time>2010-01-01T03:15:58Z</time>
      </trkpt>
      <trkpt lat="42.3933" lon="2.33751">
        <ele>1669</ele>
        <time>2010-01-01T03:16:05Z</time>
      </trkpt>
      <trkpt lat="42.39348" lon="2.33755">
        <ele>1675</ele>
        <time>2010-01-01T03:16:13Z</time>
      </trkpt>
      <trkpt lat="42.39367" lon="2.33755">
        <ele>1681</ele>
        <time>2010-01-01T03:16:20Z</time>
      </trkpt>
      <trkpt lat="42.39384" lon="2.33762">
        <ele>1684</ele>
        <time>2010-01-01T03:16:28Z</time>
      </trkpt>
      <trkpt lat="42.39403" lon="2.33769">
        <ele>1685</ele>
        <time>2010-01-01T03:16:35Z</time>
      </trkpt>
      <trkpt lat="42.39421" lon="2.33768">
        <ele>1689</ele>
        <time>2010-01-01T03:16:43Z</time>
      </trkpt>
      <trkpt lat="42.39439" lon="2.33774">
        <ele>1691</ele>
        <time>2010-01-01T03:16:50Z</time>
      </trkpt>
      <trkpt lat="42.39457" lon="2.3378">
        <ele>1693</ele>
        <time>2010-01-01T03:16:58Z</time>
      </trkpt>
      <trkpt lat="42.39475" lon="2.33783">
        <ele>1696</ele>
        <time>2010-01-01T03:17:05Z</time>
      </trkpt>
      <trkpt lat="42.39495" lon="2.33779">
        <ele>1697</ele>
        <time>2010-01-01T03:17:13Z</time>
      </trkpt>
      <trkpt lat="42.39514" lon="2.33779">
        <ele>1699</ele>
        <time>2010-01-01T03:17:20Z</time>
      </trkpt>
      <trkpt lat="42.39531" lon="2.33771">
        <ele>1704</ele>
        <time>2010-01-01T03:17:28Z</time>
      </trkpt>
      <trkpt lat="42.39549" lon="2.33775">
        <ele>1704</ele>
        <time>2010-01-01T03:17:35Z</time>
      </trkpt>
      <trkpt lat="42.39566" lon="2.33788">
        <ele>1702</ele>
        <time>2010-01-01T03:17:43Z</time>
      </trkpt>
      <trkpt lat="42.39584" lon="2.33786">
        <ele>1705</ele>
        <time>2010-01-01T03:17:50Z</time>
      </trkpt>
      <trkpt lat="42.39601" lon="2.33798">
        <ele>1706</ele>
        <time>2010-01-01T03:17:58Z</time>
      </trkpt>
      <trkpt lat="42.3962" lon="2.33798">
        <ele>1710</ele>
        <time>2010-01-01T03:18:05Z</time>
      </trkpt>
      <trkpt lat="42.39639" lon="2.33801">
        <ele>1715</ele>
        <time>2010-01-01T03:18:13Z</time>
      </trkpt>
      <trkpt lat="42.39656" lon="2.3379">
        <ele>1719</ele>
        <time>2010-01-01T03:18:20Z</time>
      </trkpt>
      <trkpt lat="42.3967" lon="2.33774">
        <ele>1720</ele>
        <time>2010-01-01T03:18:28Z</time>
      </trkpt>
      <trkpt lat="42.39681" lon="2.33756">
        <ele>1722</ele>
        <time>2010-01-01T03:18:35Z</time>
      </trkpt>
      <trkpt lat="42.39699" lon="2.33745">
        <ele>1723</ele>
        <time>2010-01-01T03:18:43Z</time>
      </trkpt>
      <trkpt lat="42.39716" lon="2.33735">
        <ele>1727</ele>
        <time>2010-01-01T03:18:50Z</time>
      </trkpt>
      <trkpt lat="42.39732" lon="2.33723">
        <ele>1732</ele>
        <time>2010-01-01T03:18:57Z</time>
      </trkpt>
      <trkpt lat="42.39749" lon="2.33714">
        <ele>1741</ele>
        <time>2010-01-01T03:19:05Z</time>
      </trkpt>
      <trkpt lat="42.39768" lon="2.33711">
        <ele>1745</ele>
        <time>2010-01-01T03:19:12Z</time>
      </trkpt>
      <trkpt lat="42.39787" lon="2.33711">
        <ele>1746</ele>
        <time>2010-01-01T03:19:20Z</time>
      </trkpt>
      <trkpt lat="42.39805" lon="2.33714">
        <ele>1745</ele>
        <time>2010-01-01T03:19:27Z</time>
      </trkpt>
      <trkpt lat="42.3982" lon="2.337">
        <ele>1747</ele>
        <time>2010-01-01T03:19:35Z</time>
      </trkpt>
      <trkpt lat="42.39837" lon="2.3369">
        <ele>1748</ele>
        <time>2010-01-01T03:19:42Z</time>
      </trkpt>
      <trkpt lat="42.39854" lon="2.33682">
        <ele>1751</ele>
        <time>2010-01-01T03:19:49Z</time>
      </trkpt>
      <trkpt lat="42.39862" lon="2.33659">
        <ele>1753</ele>
        <time>2010-01-01T03:19:57Z</time>
      </trkpt>
      <trkpt lat="42.39879" lon="2.33648">
        <ele>1756</ele>
        <time>2010-01-01T03:20:04Z</time>
      </trkpt>
      <trkpt lat="42.3989" lon="2.33628">
        <ele>1757</ele>
        <time>2010-01-01T03:20:12Z</time>
      </trkpt>
      <trkpt lat="42.39907" lon="2.3362">
        <ele>1760</ele>
        <time>2010-01-01T03:20:19Z</time>
      </trkpt>
      <trkpt lat="42.39926" lon="2.3362">
        <ele>1763</ele>
        <time>2010-01-01T03:20:26Z</time>
      </trkpt>
      <trkpt lat="42.39937" lon="2.33639">
        <ele>1766</ele>
        <time>2010-01-01T03:20:34Z</time>
      </trkpt>
      <trkpt lat="42.39952" lon="2.33653">
        <ele>1772</ele>
        <time>2010-01-01T03:20:41Z</time>
      </trkpt>
      <trkpt lat="42.39959" lon="2.33676">
        <ele>1777</ele>
        <time>2010-01-01T03:20:48Z</time>
      </trkpt>
      <trkpt lat="42.39968" lon="2.33698">
        <ele>1782</ele>
        <time>2010-01-01T03:20:56Z</time>
      </trkpt>
      <trkpt lat="42.39983" lon="2.33711">
        <ele>1784</ele>
        <time>2010-01-01T03:21:03Z</time>
      </trkpt>
      <trkpt lat="42.39996" lon="2.33729">
        <ele>1785</ele>
        <time>2010-01-01T03:21:10Z</time>
      </trkpt>
      <trkpt lat="42.40009" lon="2.33747">
        <ele>1789</ele>
        <time>2010-01-01T03:21:18Z</time>
      </trkpt>
      <trkpt lat="42.40019" lon="2.33767">
        <ele>1794</ele>
        <time>2010-01-01T03:21:25Z</time>
      </trkpt>
      <trkpt lat="42.40034" lon="2.33781">
        <ele>1798</ele>
        <time>2010-01-01T03:21:32Z</time>
      </trkpt>
      <trkpt lat="42.40049" lon="2.33796">
        <ele>1802</ele>
        <time>2010-01-01T03:21:40Z</time>
      </trkpt>
      <trkpt lat="42.40049" lon="2.33822">
        <ele>1805</ele>
        <time>2010-01-01T03:21:47Z</time>
      </trkpt>
      <trkpt lat="42.40052" lon="2.33846">
        <ele>1811</ele>
        <time>2010-01-01T03:21:54Z</time>
      </trkpt>
      <trkpt lat="42.40051" lon="2.3387">
        <ele>1816</ele>
        <time>2010-01-01T03:22:02Z</time>
      </trkpt>
      <trkpt lat="42.40054" lon="2.33895">
        <ele>1820</ele>
        <time>2010-01-01T03:22:09Z</time>
      </trkpt>
      <trkpt lat="42.40069" lon="2.33914">
        <ele>1825</ele>
        <time>2010-01-01T03:22:17Z</time>
      </trkpt>
      <trkpt lat="42.40088" lon="2.33908">
        <ele>1825</ele>
        <time>2010-01-01T03:22:25Z</time>
      </trkpt>
      <trkpt lat="42.40105" lon="2.3392">
        <ele>1828</ele>
        <time>2010-01-01T03:22:32Z</time>
      </trkpt>
      <trkpt lat="42.40123" lon="2.33914">
        <ele>1829</ele>
        <time>2010-01-01T03:22:40Z</time>
      </trkpt>
      <trkpt lat="42.40142" lon="2.33915">
        <ele>1833</ele>
        <time>2010-01-01T03:22:47Z</time>
      </trkpt>
      <trkpt lat="42.40161" lon="2.33914">
        <ele>1835</ele>
        <time>2010-01-01T03:22:55Z</time>
      </trkpt>
      <trkpt lat="42.40179" lon="2.33917">
        <ele>1839</ele>
        <time>2010-01-01T03:23:02Z</time>
      </trkpt>
      <trkpt lat="42.40197" lon="2.33915">
        <ele>1842</ele>
        <time>2010-01-01T03:23:10Z</time>
      </trkpt>
      <trkpt lat="42.40215" lon="2.33915">
        <ele>1845</ele>
        <time>2010-01-01T03:23:17Z</time>
      </trkpt>
      <trkpt lat="42.40233" lon="2.33914">
        <ele>1848</ele>
        <time>2010-01-01T03:23:24Z</time>
      </trkpt>
      <trkpt lat="42.40251" lon="2.3392">
        <ele>1853</ele>
        <time>2010-01-01T03:23:32Z</time>
      </trkpt>
      <trkpt lat="42.40269" lon="2.33922">
        <ele>1857</ele>
        <time>2010-01-01T03:23:39Z</time>
      </trkpt>
      <trkpt lat="42.40288" lon="2.33927">
        <ele>1861</ele>
        <time>2010-01-01T03:23:46Z</time>
      </trkpt>
      <trkpt lat="42.40306" lon="2.33926">
        <ele>1864</ele>
        <time>2010-01-01T03:23:54Z</time>
      </trkpt>
      <trkpt lat="42.40325" lon="2.33924">
        <ele>1866</ele>
        <time>2010-01-01T03:24:01Z</time>
      </trkpt>
      <trkpt lat="42.40345" lon="2.33924">
        <ele>1870</ele>
        <time>2010-01-01T03:24:09Z</time>
      </trkpt>
      <trkpt lat="42.40363" lon="2.33928">
        <ele>1874</ele>
        <time>2010-01-01T03:24:17Z</time>
      </trkpt>
      <trkpt lat="42.40382" lon="2.33932">
        <ele>1878</ele>
        <time>2010-01-01T03:24:24Z</time>
      </trkpt>
      <trkpt lat="42.40399" lon="2.33941">
        <ele>1883</ele>
        <time>2010-01-01T03:24:32Z</time>
      </trkpt>
      <trkpt lat="42.40415" lon="2.33953">
        <ele>1888</ele>
        <time>2010-01-01T03:24:39Z</time>
      </trkpt>
      <trkpt lat="42.40427" lon="2.33973">
        <ele>1893</ele>
        <time>2010-01-01T03:24:47Z</time>
      </trkpt>
      <trkpt lat="42.40442" lon="2.3399">
        <ele>1897</ele>
        <time>2010-01-01T03:24:54Z</time>
      </trkpt>
      <trkpt lat="42.40456" lon="2.34005">
        <ele>1900</ele>
        <time>2010-01-01T03:25:02Z</time>
      </trkpt>
      <trkpt lat="42.40472" lon="2.34017">
        <ele>1903</ele>
        <time>2010-01-01T03:25:09Z</time>
      </trkpt>
      <trkpt lat="42.40486" lon="2.34033">
        <ele>1910</ele>
        <time>2010-01-01T03:25:16Z</time>
      </trkpt>
      <trkpt lat="42.40502" lon="2.34043">
        <ele>1915</ele>
        <time>2010-01-01T03:25:23Z</time>
      </trkpt>
      <trkpt lat="42.40521" lon="2.34046">
        <ele>1917</ele>
        <time>2010-01-01T03:25:31Z</time>
      </trkpt>
      <trkpt lat="42.4054" lon="2.34051">
        <ele>1919</ele>
        <time>2010-01-01T03:25:39Z</time>
      </trkpt>
      <trkpt lat="42.40555" lon="2.34064">
        <ele>1923</ele>
        <time>2010-01-01T03:25:46Z</time>
      </trkpt>
      <trkpt lat="42.40574" lon="2.34068">
        <ele>1929</ele>
        <time>2010-01-01T03:25:54Z</time>
      </trkpt>
      <trkpt lat="42.40591" lon="2.34078">
        <ele>1936</ele>
        <time>2010-01-01T03:26:01Z</time>
      </trkpt>
      <trkpt lat="42.40605" lon="2.34093">
        <ele>1943</ele>
        <time>2010-01-01T03:26:08Z</time>
      </trkpt>
      <trkpt lat="42.40616" lon="2.34112">
        <ele>1948</ele>
        <time>2010-01-01T03:26:15Z</time>
      </trkpt>
      <trkpt lat="42.40629" lon="2.3413">
        <ele>1954</ele>
        <time>2010-01-01T03:26:23Z</time>
      </trkpt>
      <trkpt lat="42.40647" lon="2.34138">
        <ele>1959</ele>
        <time>2010-01-01T03:26:30Z</time>
      </trkpt>
      <trkpt lat="42.40662" lon="2.34125">
        <ele>1961</ele>
        <time>2010-01-01T03:26:38Z</time>
      </trkpt>
      <trkpt lat="42.40681" lon="2.3413">
        <ele>1967</ele>
        <time>2010-01-01T03:26:45Z</time>
      </trkpt>
      <trkpt lat="42.40699" lon="2.34137">
        <ele>1974</ele>
        <time>2010-01-01T03:26:53Z</time>
      </trkpt>
      <trkpt lat="42.40717" lon="2.34142">
        <ele>1981</ele>
        <time>2010-01-01T03:27:00Z</time>
      </trkpt>
      <trkpt lat="42.40733" lon="2.34154">
        <ele>1989</ele>
        <time>2010-01-01T03:27:07Z</time>
      </trkpt>
      <trkpt lat="42.4075" lon="2.34166">
        <ele>1997</ele>
        <time>2010-01-01T03:27:15Z</time>
      </trkpt>
      <trkpt lat="42.40768" lon="2.34165">
        <ele>2004</ele>
        <time>2010-01-01T03:27:22Z</time>
      </trkpt>
      <trkpt lat="42.40787" lon="2.34169">
        <ele>2013</ele>
        <time>2010-01-01T03:27:30Z</time>
      </trkpt>
      <trkpt lat="42.40801" lon="2.34187">
        <ele>2022</ele>
        <time>2010-01-01T03:27:38Z</time>
      </trkpt>
      <trkpt lat="42.40817" lon="2.34199">
        <ele>2030</ele>
        <time>2010-01-01T03:27:45Z</time>
      </trkpt>
      <trkpt lat="42.40831" lon="2.34214">
        <ele>2039</ele>
        <time>2010-01-01T03:27:52Z</time>
      </trkpt>
      <trkpt lat="42.40849" lon="2.34218">
        <ele>2047</ele>
        <time>2010-01-01T03:28:00Z</time>
      </trkpt>
      <trkpt lat="42.40867" lon="2.34208">
        <ele>2051</ele>
        <time>2010-01-01T03:28:07Z</time>
      </trkpt>
      <trkpt lat="42.40884" lon="2.34197">
        <ele>2052</ele>
        <time>2010-01-01T03:28:15Z</time>
      </trkpt>
      <trkpt lat="42.40902" lon="2.34188">
        <ele>2056</ele>
        <time>2010-01-01T03:28:22Z</time>
      </trkpt>
      <trkpt lat="42.40919" lon="2.34196">
        <ele>2063</ele>
        <time>2010-01-01T03:28:30Z</time>
      </trkpt>
      <trkpt lat="42.40938" lon="2.34197">
        <ele>2069</ele>
        <time>2010-01-01T03:28:37Z</time>
      </trkpt>
      <trkpt lat="42.40957" lon="2.34194">
        <ele>2073</ele>
        <time>2010-01-01T03:28:45Z</time>
      </trkpt>
      <trkpt lat="42.40975" lon="2.34198">
        <ele>2077</ele>
        <time>2010-01-01T03:28:52Z</time>
      </trkpt>
      <trkpt lat="42.4099" lon="2.34179">
        <ele>2078</ele>
        <time>2010-01-01T03:29:01Z</time>
      </trkpt>
      <trkpt lat="42.41008" lon="2.34172">
        <ele>2083</ele>
        <time>2010-01-01T03:29:08Z</time>
      </trkpt>
      <trkpt lat="42.41027" lon="2.3417">
        <ele>2092</ele>
        <time>2010-01-01T03:29:16Z</time>
      </trkpt>
      <trkpt lat="42.41045" lon="2.34163">
        <ele>2103</ele>
        <time>2010-01-01T03:29:23Z</time>
      </trkpt>
      <trkpt lat="42.41063" lon="2.34168">
        <ele>2110</ele>
        <time>2010-01-01T03:29:30Z</time>
      </trkpt>
      <trkpt lat="42.41081" lon="2.34162">
        <ele>2119</ele>
        <time>2010-01-01T03:29:38Z</time>
      </trkpt>
      <trkpt lat="42.41098" lon="2.34157">
        <ele>2126</ele>
        <time>2010-01-01T03:29:45Z</time>
      </trkpt>
      <trkpt lat="42.41114" lon="2.34168">
        <ele>2129</ele>
        <time>2010-01-01T03:29:52Z</time>
      </trkpt>
      <trkpt lat="42.41126" lon="2.34189">
        <ele>2137</ele>
        <time>2010-01-01T03:30:00Z</time>
      </trkpt>
      <trkpt lat="42.41126" lon="2.34214">
        <ele>2142</ele>
        <time>2010-01-01T03:30:07Z</time>
      </trkpt>
      <trkpt lat="42.41128" lon="2.34238">
        <ele>2148</ele>
        <time>2010-01-01T03:30:14Z</time>
      </trkpt>
      <trkpt lat="42.41129" lon="2.34263">
        <ele>2153</ele>
        <time>2010-01-01T03:30:22Z</time>
      </trkpt>
      <trkpt lat="42.41132" lon="2.34287">
        <ele>2160</ele>
        <time>2010-01-01T03:30:29Z</time>
      </trkpt>
      <trkpt lat="42.41137" lon="2.34311">
        <ele>2169</ele>
        <time>2010-01-01T03:30:36Z</time>
      </trkpt>
      <trkpt lat="42.41153" lon="2.343">
        <ele>2175</ele>
        <time>2010-01-01T03:30:44Z</time>
      </trkpt>
      <trkpt lat="42.4117" lon="2.3431">
        <ele>2189</ele>
        <time>2010-01-01T03:30:51Z</time>
      </trkpt>
      <trkpt lat="42.41184" lon="2.34327">
        <ele>2201</ele>
        <time>2010-01-01T03:30:58Z</time>
      </trkpt>
      <trkpt lat="42.41199" lon="2.34342">
        <ele>2214</ele>
        <time>2010-01-01T03:31:06Z</time>
      </trkpt>
      <trkpt lat="42.41209" lon="2.34363">
        <ele>2222</ele>
        <time>2010-01-01T03:31:13Z</time>
      </trkpt>
      <trkpt lat="42.41226" lon="2.34371">
        <ele>2230</ele>
        <time>2010-01-01T03:31:21Z</time>
      </trkpt>
      <trkpt lat="42.41245" lon="2.3437">
        <ele>2237</ele>
        <time>2010-01-01T03:31:28Z</time>
      </trkpt>
      <trkpt lat="42.41243" lon="2.34395">
        <ele>2242</ele>
        <time>2010-01-01T03:31:35Z</time>
      </trkpt>
      <trkpt lat="42.41256" lon="2.34411">
        <ele>2252</ele>
        <time>2010-01-01T03:31:43Z</time>
      </trkpt>
      <trkpt lat="42.41271" lon="2.34428">
        <ele>2264</ele>
        <time>2010-01-01T03:31:50Z</time>
      </trkpt>
      <trkpt lat="42.41269" lon="2.34452">
        <ele>2265</ele>
        <time>2010-01-01T03:31:58Z</time>
      </trkpt>
      <trkpt lat="42.41282" lon="2.34471">
        <ele>2274</ele>
        <time>2010-01-01T03:32:05Z</time>
      </trkpt>
      <trkpt lat="42.41292" lon="2.34495">
        <ele>2282</ele>
        <time>2010-01-01T03:32:13Z</time>
      </trkpt>
      <trkpt lat="42.41303" lon="2.34516">
        <ele>2288</ele>
        <time>2010-01-01T03:32:21Z</time>
      </trkpt>
      <trkpt lat="42.41315" lon="2.34536">
        <ele>2291</ele>
        <time>2010-01-01T03:32:28Z</time>
      </trkpt>
      <trkpt lat="42.41333" lon="2.34544">
        <ele>2297</ele>
        <time>2010-01-01T03:32:36Z</time>
      </trkpt>
      <trkpt lat="42.41351" lon="2.34543">
        <ele>2309</ele>
        <time>2010-01-01T03:32:43Z</time>
      </trkpt>
      <trkpt lat="42.41368" lon="2.34553">
        <ele>2319</ele>
        <time>2010-01-01T03:32:50Z</time>
      </trkpt>
      <trkpt lat="42.41386" lon="2.34556">
        <ele>2330</ele>
        <time>2010-01-01T03:32:58Z</time>
      </trkpt>
      <trkpt lat="42.41404" lon="2.34551">
        <ele>2339</ele>
        <time>2010-01-01T03:33:05Z</time>
      </trkpt>
      <trkpt lat="42.41413" lon="2.34529">
        <ele>2342</ele>
        <time>2010-01-01T03:33:13Z</time>
      </trkpt>
      <trkpt lat="42.41429" lon="2.34542">
        <ele>2350</ele>
        <time>2010-01-01T03:33:20Z</time>
      </trkpt>
      <trkpt lat="42.41439" lon="2.34565">
        <ele>2355</ele>
        <time>2010-01-01T03:33:28Z</time>
      </trkpt>
      <trkpt lat="42.41446" lon="2.34588">
        <ele>2357</ele>
        <time>2010-01-01T03:33:35Z</time>
      </trkpt>
      <trkpt lat="42.41458" lon="2.34606">
        <ele>2362</ele>
        <time>2010-01-01T03:33:43Z</time>
      </trkpt>
      <trkpt lat="42.41467" lon="2.34628">
        <ele>2365</ele>
        <time>2010-01-01T03:33:50Z</time>
      </trkpt>
      <trkpt lat="42.41482" lon="2.34642">
        <ele>2369</ele>
        <time>2010-01-01T03:33:57Z</time>
      </trkpt>
      <trkpt lat="42.415" lon="2.34634">
        <ele>2377</ele>
        <time>2010-01-01T03:34:05Z</time>
      </trkpt>
      <trkpt lat="42.41504" lon="2.34611">
        <ele>2383</ele>
        <time>2010-01-01T03:34:12Z</time>
      </trkpt>
      <trkpt lat="42.41519" lon="2.34626">
        <ele>2385</ele>
        <time>2010-01-01T03:34:19Z</time>
      </trkpt>
      <trkpt lat="42.41534" lon="2.34611">
        <ele>2395</ele>
        <time>2010-01-01T03:34:27Z</time>
      </trkpt>
      <trkpt lat="42.41546" lon="2.34592">
        <ele>2401</ele>
        <time>2010-01-01T03:34:34Z</time>
      </trkpt>
      <trkpt lat="42.41563" lon="2.34584">
        <ele>2407</ele>
        <time>2010-01-01T03:34:41Z</time>
      </trkpt>
      <trkpt lat="42.41576" lon="2.34567">
        <ele>2413</ele>
        <time>2010-01-01T03:34:49Z</time>
      </trkpt>
      <trkpt lat="42.41594" lon="2.34562">
        <ele>2417</ele>
        <time>2010-01-01T03:34:56Z</time>
      </trkpt>
      <trkpt lat="42.41602" lon="2.3454">
        <ele>2422</ele>
        <time>2010-01-01T03:35:04Z</time>
      </trkpt>
      <trkpt lat="42.41607" lon="2.34516">
        <ele>2429</ele>
        <time>2010-01-01T03:35:11Z</time>
      </trkpt>
      <trkpt lat="42.41612" lon="2.34493">
        <ele>2436</ele>
        <time>2010-01-01T03:35:18Z</time>
      </trkpt>
      <trkpt lat="42.41624" lon="2.34474">
        <ele>2441</ele>
        <time>2010-01-01T03:35:25Z</time>
      </trkpt>
      <trkpt lat="42.41637" lon="2.34455">
        <ele>2445</ele>
        <time>2010-01-01T03:35:33Z</time>
      </trkpt>
      <trkpt lat="42.4165" lon="2.34435">
        <ele>2447</ele>
        <time>2010-01-01T03:35:41Z</time>
      </trkpt>
      <trkpt lat="42.41667" lon="2.34426">
        <ele>2450</ele>
        <time>2010-01-01T03:35:48Z</time>
      </trkpt>
      <trkpt lat="42.4168" lon="2.34408">
        <ele>2451</ele>
        <time>2010-01-01T03:35:56Z</time>
      </trkpt>
      <trkpt lat="42.41681" lon="2.34417">
        <ele>2450</ele>
        <time>2010-01-01T03:35:58Z</time>
      </trkpt>
      <trkpt lat="42.41661" lon="2.34439">
        <ele>2447</ele>
        <time>2010-01-01T03:36:09Z</time>
      </trkpt>
      <trkpt lat="42.41584" lon="2.34541">
        <ele>2419</ele>
        <time>2010-01-01T03:36:52Z</time>
      </trkpt>
      <trkpt lat="42.41544" lon="2.34592">
        <ele>2401</ele>
        <time>2010-01-01T03:37:14Z</time>
      </trkpt>
      <trkpt lat="42.41503" lon="2.3462">
        <ele>2380</ele>
        <time>2010-01-01T03:37:32Z</time>
      </trkpt>
      <trkpt lat="42.41462" lon="2.34599">
        <ele>2364</ele>
        <time>2010-01-01T03:37:49Z</time>
      </trkpt>
      <trkpt lat="42.41433" lon="2.34538">
        <ele>2352</ele>
        <time>2010-01-01T03:38:11Z</time>
      </trkpt>
      <trkpt lat="42.41407" lon="2.34505">
        <ele>2335</ele>
        <time>2010-01-01T03:38:25Z</time>
      </trkpt>
      <trkpt lat="42.41341" lon="2.34529">
        <ele>2305</ele>
        <time>2010-01-01T03:38:52Z</time>
      </trkpt>
      <trkpt lat="42.4125" lon="2.34526">
        <ele>2262</ele>
        <time>2010-01-01T03:39:29Z</time>
      </trkpt>
      <trkpt lat="42.41207" lon="2.34496">
        <ele>2242</ele>
        <time>2010-01-01T03:39:48Z</time>
      </trkpt>
      <trkpt lat="42.41176" lon="2.34506">
        <ele>2228</ele>
        <time>2010-01-01T03:40:01Z</time>
      </trkpt>
      <trkpt lat="42.4111" lon="2.34514">
        <ele>2206</ele>
        <time>2010-01-01T03:40:28Z</time>
      </trkpt>
      <trkpt lat="42.40996" lon="2.34549">
        <ele>2190</ele>
        <time>2010-01-01T03:41:15Z</time>
      </trkpt>
      <trkpt lat="42.40888" lon="2.34588">
        <ele>2158</ele>
        <time>2010-01-01T03:41:59Z</time>
      </trkpt>
      <trkpt lat="42.40837" lon="2.34604">
        <ele>2145</ele>
        <time>2010-01-01T03:42:20Z</time>
      </trkpt>
      <trkpt lat="42.40766" lon="2.3472">
        <ele>2095</ele>
        <time>2010-01-01T03:43:05Z</time>
      </trkpt>
      <trkpt lat="42.40649" lon="2.34941">
        <ele>2009</ele>
        <time>2010-01-01T03:44:25Z</time>
      </trkpt>
      <trkpt lat="42.40562" lon="2.35192">
        <ele>1941</ele>
        <time>2010-01-01T03:45:47Z</time>
      </trkpt>
      <trkpt lat="42.40442" lon="2.35541">
        <ele>1904</ele>
        <time>2010-01-01T03:47:41Z</time>
      </trkpt>
      <trkpt lat="42.40335" lon="2.35923">
        <ele>1853</ele>
        <time>2010-01-01T03:49:42Z</time>
      </trkpt>
      <trkpt lat="42.40284" lon="2.36021">
        <ele>1826</ele>
        <time>2010-01-01T03:50:17Z</time>
      </trkpt>
      <trkpt lat="42.4025" lon="2.36113">
        <ele>1811</ele>
        <time>2010-01-01T03:50:47Z</time>
      </trkpt>
      <trkpt lat="42.40222" lon="2.36243">
        <ele>1785</ele>
        <time>2010-01-01T03:51:27Z</time>
      </trkpt>
      <trkpt lat="42.40219" lon="2.36517">
        <ele>1747</ele>
        <time>2010-01-01T03:52:48Z</time>
      </trkpt>
      <trkpt lat="42.40191" lon="2.36666">
        <ele>1723</ele>
        <time>2010-01-01T03:53:34Z</time>
      </trkpt>
      <trkpt lat="42.40114" lon="2.36851">
        <ele>1692</ele>
        <time>2010-01-01T03:54:37Z</time>
      </trkpt>
      <trkpt lat="42.40023" lon="2.3706">
        <ele>1673</ele>
        <time>2010-01-01T03:55:48Z</time>
      </trkpt>
      <trkpt lat="42.39997" lon="2.37138">
        <ele>1668</ele>
        <time>2010-01-01T03:56:14Z</time>
      </trkpt>
      <trkpt lat="42.40015" lon="2.37276">
        <ele>1663</ele>
        <time>2010-01-01T03:56:55Z</time>
      </trkpt>
      <trkpt lat="42.4008" lon="2.37596">
        <ele>1626</ele>
        <time>2010-01-01T03:58:33Z</time>
      </trkpt>
      <trkpt lat="42.4" lon="2.37865">
        <ele>1639</ele>
        <time>2010-01-01T03:59:59Z</time>
      </trkpt>
      <trkpt lat="42.3995" lon="2.38131">
        <ele>1645</ele>
        <time>2010-01-01T04:01:20Z</time>
      </trkpt>
      <trkpt lat="42.39858" lon="2.38438">
        <ele>1654</ele>
        <time>2010-01-01T04:02:58Z</time>
      </trkpt>
      <trkpt lat="42.39838" lon="2.3853">
        <ele>1653</ele>
        <time>2010-01-01T04:03:27Z</time>
      </trkpt>
      <trkpt lat="42.39846" lon="2.38573">
        <ele>1648</ele>
        <time>2010-01-01T04:03:40Z</time>
      </trkpt>
      <trkpt lat="42.39883" lon="2.38653">
        <ele>1650</ele>
        <time>2010-01-01T04:04:08Z</time>
      </trkpt>
      <trkpt lat="42.39877" lon="2.38712">
        <ele>1645</ele>
        <time>2010-01-01T04:04:25Z</time>
      </trkpt>
      <trkpt lat="42.39839" lon="2.38813">
        <ele>1638</ele>
        <time>2010-01-01T04:04:59Z</time>
      </trkpt>
      <trkpt lat="42.39775" lon="2.38985">
        <ele>1639</ele>
        <time>2010-01-01T04:05:56Z</time>
      </trkpt>
      <trkpt lat="42.3971" lon="2.39091">
        <ele>1639</ele>
        <time>2010-01-01T04:06:36Z</time>
      </trkpt>
      <trkpt lat="42.39572" lon="2.3925">
        <ele>1635</ele>
        <time>2010-01-01T04:07:49Z</time>
      </trkpt>
      <trkpt lat="42.39526" lon="2.39358">
        <ele>1628</ele>
        <time>2010-01-01T04:08:25Z</time>
      </trkpt>
      <trkpt lat="42.39481" lon="2.3957">
        <ele>1608</ele>
        <time>2010-01-01T04:09:31Z</time>
      </trkpt>
      <trkpt lat="42.39465" lon="2.39674">
        <ele>1608</ele>
        <time>2010-01-01T04:10:02Z</time>
      </trkpt>
      <trkpt lat="42.39485" lon="2.39843">
        <ele>1629</ele>
        <time>2010-01-01T04:10:53Z</time>
      </trkpt>
      <trkpt lat="42.39472" lon="2.39889">
        <ele>1630</ele>
        <time>2010-01-01T04:11:07Z</time>
      </trkpt>
      <trkpt lat="42.39421" lon="2.39982">
        <ele>1621</ele>
        <time>2010-01-01T04:11:42Z</time>
      </trkpt>
      <trkpt lat="42.39254" lon="2.40149">
        <ele>1586</ele>
        <time>2010-01-01T04:13:05Z</time>
      </trkpt>
      <trkpt lat="42.39292" lon="2.40436">
        <ele>1558</ele>
        <time>2010-01-01T04:14:31Z</time>
      </trkpt>
      <trkpt lat="42.39293" lon="2.40615">
        <ele>1543</ele>
        <time>2010-01-01T04:15:24Z</time>
      </trkpt>
      <trkpt lat="42.39287" lon="2.40785">
        <ele>1535</ele>
        <time>2010-01-01T04:16:14Z</time>
      </trkpt>
      <trkpt lat="42.39221" lon="2.40734">
        <ele>1530</ele>
        <time>2010-01-01T04:16:45Z</time>
      </trkpt>
      <trkpt lat="42.39094" lon="2.40525">
        <ele>1514</ele>
        <time>2010-01-01T04:18:04Z</time>
      </trkpt>
      <trkpt lat="42.38917" lon="2.40433">
        <ele>1484</ele>
        <time>2010-01-01T04:19:21Z</time>
      </trkpt>
      <trkpt lat="42.38885" lon="2.40418">
        <ele>1476</ele>
        <time>2010-01-01T04:19:34Z</time>
      </trkpt>
      <trkpt lat="42.38809" lon="2.40439">
        <ele>1451</ele>
        <time>2010-01-01T04:20:05Z</time>
      </trkpt>
      <trkpt lat="42.38803" lon="2.40323">
        <ele>1453</ele>
        <time>2010-01-01T04:20:39Z</time>
      </trkpt>
      <trkpt lat="42.38701" lon="2.40288">
        <ele>1431</ele>
        <time>2010-01-01T04:21:22Z</time>
      </trkpt>
      <trkpt lat="42.38609" lon="2.40164">
        <ele>1424</ele>
        <time>2010-01-01T04:22:14Z</time>
      </trkpt>
      <trkpt lat="42.38465" lon="2.40141">
        <ele>1402</ele>
        <time>2010-01-01T04:23:12Z</time>
      </trkpt>
      <trkpt lat="42.38244" lon="2.40018">
        <ele>1378</ele>
        <time>2010-01-01T04:24:47Z</time>
      </trkpt>
      <trkpt lat="42.38096" lon="2.39917">
        <ele>1359</ele>
        <time>2010-01-01T04:25:54Z</time>
      </trkpt>
      <trkpt lat="42.38085" lon="2.39868">
        <ele>1356</ele>
        <time>2010-01-01T04:26:09Z</time>
      </trkpt>
      <trkpt lat="42.38084" lon="2.39854">
        <ele>1354</ele>
        <time>2010-01-01T04:26:13Z</time>
      </trkpt>
      <trkpt lat="42.38043" lon="2.39884">
        <ele>1348</ele>
        <time>2010-01-01T04:26:31Z</time>
      </trkpt>
      <trkpt lat="42.38021" lon="2.39844">
        <ele>1331</ele>
        <time>2010-01-01T04:26:46Z</time>
      </trkpt>
      <trkpt lat="42.3801" lon="2.39846">
        <ele>1326</ele>
        <time>2010-01-01T04:26:51Z</time>
      </trkpt>
      <trkpt lat="42.37999" lon="2.39881">
        <ele>1328</ele>
        <time>2010-01-01T04:27:02Z</time>
      </trkpt>
      <trkpt lat="42.37929" lon="2.3988">
        <ele>1299</ele>
        <time>2010-01-01T04:27:30Z</time>
      </trkpt>
      <trkpt lat="42.37926" lon="2.39845">
        <ele>1290</ele>
        <time>2010-01-01T04:27:41Z</time>
      </trkpt>
      <trkpt lat="42.37904" lon="2.39855">
        <ele>1284</ele>
        <time>2010-01-01T04:27:50Z</time>
      </trkpt>
      <trkpt lat="42.37874" lon="2.39878">
        <ele>1277</ele>
        <time>2010-01-01T04:28:04Z</time>
      </trkpt>
      <trkpt lat="42.37824" lon="2.3989">
        <ele>1264</ele>
        <time>2010-01-01T04:28:24Z</time>
      </trkpt>
      <trkpt lat="42.37739" lon="2.39917">
        <ele>1235</ele>
        <time>2010-01-01T04:28:59Z</time>
      </trkpt>
      <trkpt lat="42.37734" lon="2.39897">
        <ele>1231</ele>
        <time>2010-01-01T04:29:05Z</time>
      </trkpt>
      <trkpt lat="42.37746" lon="2.39842">
        <ele>1227</ele>
        <time>2010-01-01T04:29:22Z</time>
      </trkpt>
      <trkpt lat="42.37715" lon="2.39851">
        <ele>1218</ele>
        <time>2010-01-01T04:29:35Z</time>
      </trkpt>
      <trkpt lat="42.37691" lon="2.39868">
        <ele>1214</ele>
        <time>2010-01-01T04:29:46Z</time>
      </trkpt>
      <trkpt lat="42.37664" lon="2.3985">
        <ele>1206</ele>
        <time>2010-01-01T04:29:58Z</time>
      </trkpt>
      <trkpt lat="42.37608" lon="2.39859">
        <ele>1198</ele>
        <time>2010-01-01T04:30:20Z</time>
      </trkpt>
      <trkpt lat="42.37564" lon="2.39851">
        <ele>1193</ele>
        <time>2010-01-01T04:30:38Z</time>
      </trkpt>
      <trkpt lat="42.37509" lon="2.39826">
        <ele>1188</ele>
        <time>2010-01-01T04:31:01Z</time>
      </trkpt>
      <trkpt lat="42.37473" lon="2.39814">
        <ele>1193</ele>
        <time>2010-01-01T04:31:16Z</time>
      </trkpt>
      <trkpt lat="42.37455" lon="2.39822">
        <ele>1194</ele>
        <time>2010-01-01T04:31:24Z</time>
      </trkpt>
      <trkpt lat="42.37417" lon="2.39806">
        <ele>1201</ele>
        <time>2010-01-01T04:31:40Z</time>
      </trkpt>
      <trkpt lat="42.37364" lon="2.39815">
        <ele>1217</ele>
        <time>2010-01-01T04:32:01Z</time>
      </trkpt>
      <trkpt lat="42.37313" lon="2.39823">
        <ele>1236</ele>
        <time>2010-01-01T04:32:21Z</time>
      </trkpt>
      <trkpt lat="42.37277" lon="2.39831">
        <ele>1241</ele>
        <time>2010-01-01T04:32:36Z</time>
      </trkpt>
      <trkpt lat="42.37222" lon="2.39808">
        <ele>1252</ele>
        <time>2010-01-01T04:32:59Z</time>
      </trkpt>
      <trkpt lat="42.37185" lon="2.39788">
        <ele>1257</ele>
        <time>2010-01-01T04:33:15Z</time>
      </trkpt>
      <trkpt lat="42.3715" lon="2.39773">
        <ele>1271</ele>
        <time>2010-01-01T04:33:30Z</time>
      </trkpt>
      <trkpt lat="42.37117" lon="2.39839">
        <ele>1261</ele>
        <time>2010-01-01T04:33:54Z</time>
      </trkpt>
      <trkpt lat="42.37029" lon="2.39827">
        <ele>1281</ele>
        <time>2010-01-01T04:34:29Z</time>
      </trkpt>
      <trkpt lat="42.36878" lon="2.39798">
        <ele>1293</ele>
        <time>2010-01-01T04:35:30Z</time>
      </trkpt>
      <trkpt lat="42.36842" lon="2.3975">
        <ele>1299</ele>
        <time>2010-01-01T04:35:50Z</time>
      </trkpt>
      <trkpt lat="42.3684" lon="2.39725">
        <ele>1300</ele>
        <time>2010-01-01T04:35:57Z</time>
      </trkpt>
      <trkpt lat="42.36856" lon="2.39645">
        <ele>1307</ele>
        <time>2010-01-01T04:36:22Z</time>
      </trkpt>
      <trkpt lat="42.36857" lon="2.39611">
        <ele>1308</ele>
        <time>2010-01-01T04:36:32Z</time>
      </trkpt>
      <trkpt lat="42.36858" lon="2.39568">
        <ele>1313</ele>
        <time>2010-01-01T04:36:45Z</time>
      </trkpt>
      <trkpt lat="42.36816" lon="2.39469">
        <ele>1314</ele>
        <time>2010-01-01T04:37:19Z</time>
      </trkpt>
      <trkpt lat="42.36776" lon="2.39424">
        <ele>1310</ele>
        <time>2010-01-01T04:37:40Z</time>
      </trkpt>
      <trkpt lat="42.3674" lon="2.39388">
        <ele>1313</ele>
        <time>2010-01-01T04:37:58Z</time>
      </trkpt>
      <trkpt lat="42.36706" lon="2.39405">
        <ele>1322</ele>
        <time>2010-01-01T04:38:12Z</time>
      </trkpt>
      <trkpt lat="42.3673" lon="2.39457">
        <ele>1306</ele>
        <time>2010-01-01T04:38:30Z</time>
      </trkpt>
      <trkpt lat="42.36706" lon="2.39524">
        <ele>1313</ele>
        <time>2010-01-01T04:38:52Z</time>
      </trkpt>
      <trkpt lat="42.36687" lon="2.39566">
        <ele>1316</ele>
        <time>2010-01-01T04:39:06Z</time>
      </trkpt>
      <trkpt lat="42.36623" lon="2.39605">
        <ele>1324</ele>
        <time>2010-01-01T04:39:35Z</time>
      </trkpt>
      <trkpt lat="42.36591" lon="2.39631">
        <ele>1323</ele>
        <time>2010-01-01T04:39:50Z</time>
      </trkpt>
      <trkpt lat="42.36547" lon="2.39649">
        <ele>1321</ele>
        <time>2010-01-01T04:40:08Z</time>
      </trkpt>
      <trkpt lat="42.36503" lon="2.39649">
        <ele>1327</ele>
        <time>2010-01-01T04:40:26Z</time>
      </trkpt>
      <trkpt lat="42.36446" lon="2.39698">
        <ele>1328</ele>
        <time>2010-01-01T04:40:53Z</time>
      </trkpt>
      <trkpt lat="42.36386" lon="2.39733">
        <ele>1326</ele>
        <time>2010-01-01T04:41:19Z</time>
      </trkpt>
      <trkpt lat="42.36305" lon="2.3969">
        <ele>1332</ele>
        <time>2010-01-01T04:41:53Z</time>
      </trkpt>
      <trkpt lat="42.3627" lon="2.39642">
        <ele>1337</ele>
        <time>2010-01-01T04:42:14Z</time>
      </trkpt>
      <trkpt lat="42.36252" lon="2.39631">
        <ele>1341</ele>
        <time>2010-01-01T04:42:22Z</time>
      </trkpt>
      <trkpt lat="42.36219" lon="2.39708">
        <ele>1332</ele>
        <time>2010-01-01T04:42:48Z</time>
      </trkpt>
      <trkpt lat="42.36166" lon="2.39831">
        <ele>1322</ele>
        <time>2010-01-01T04:43:30Z</time>
      </trkpt>
      <trkpt lat="42.36124" lon="2.39872">
        <ele>1318</ele>
        <time>2010-01-01T04:43:51Z</time>
      </trkpt>
      <trkpt lat="42.36058" lon="2.39918">
        <ele>1314</ele>
        <time>2010-01-01T04:44:20Z</time>
      </trkpt>
      <trkpt lat="42.35945" lon="2.39947">
        <ele>1312</ele>
        <time>2010-01-01T04:45:06Z</time>
      </trkpt>
      <trkpt lat="42.3591" lon="2.39938">
        <ele>1303</ele>
        <time>2010-01-01T04:45:21Z</time>
      </trkpt>
      <trkpt lat="42.35839" lon="2.39824">
        <ele>1299</ele>
        <time>2010-01-01T04:46:05Z</time>
      </trkpt>
      <trkpt lat="42.3582" lon="2.3981">
        <ele>1290</ele>
        <time>2010-01-01T04:46:14Z</time>
      </trkpt>
      <trkpt lat="42.35825" lon="2.39846">
        <ele>1289</ele>
        <time>2010-01-01T04:46:25Z</time>
      </trkpt>
      <trkpt lat="42.35802" lon="2.39829">
        <ele>1282</ele>
        <time>2010-01-01T04:46:35Z</time>
      </trkpt>
      <trkpt lat="42.35789" lon="2.39762">
        <ele>1286</ele>
        <time>2010-01-01T04:46:56Z</time>
      </trkpt>
      <trkpt lat="42.35772" lon="2.39774">
        <ele>1287</ele>
        <time>2010-01-01T04:47:04Z</time>
      </trkpt>
      <trkpt lat="42.35712" lon="2.39932">
        <ele>1266</ele>
        <time>2010-01-01T04:47:56Z</time>
      </trkpt>
      <trkpt lat="42.35694" lon="2.40031">
        <ele>1261</ele>
        <time>2010-01-01T04:48:26Z</time>
      </trkpt>
      <trkpt lat="42.35664" lon="2.40088">
        <ele>1256</ele>
        <time>2010-01-01T04:48:47Z</time>
      </trkpt>
      <trkpt lat="42.35596" lon="2.40168">
        <ele>1254</ele>
        <time>2010-01-01T04:49:23Z</time>
      </trkpt>
      <trkpt lat="42.35535" lon="2.40218">
        <ele>1251</ele>
        <time>2010-01-01T04:49:52Z</time>
      </trkpt>
      <trkpt lat="42.35435" lon="2.40279">
        <ele>1246</ele>
        <time>2010-01-01T04:50:35Z</time>
      </trkpt>
      <trkpt lat="42.35392" lon="2.40295">
        <ele>1247</ele>
        <time>2010-01-01T04:50:53Z</time>
      </trkpt>
      <trkpt lat="42.35352" lon="2.403">
        <ele>1242</ele>
        <time>2010-01-01T04:51:09Z</time>
      </trkpt>
      <trkpt lat="42.35304" lon="2.4029">
        <ele>1245</ele>
        <time>2010-01-01T04:51:29Z</time>
      </trkpt>
      <trkpt lat="42.35233" lon="2.40322">
        <ele>1244</ele>
        <time>2010-01-01T04:51:59Z</time>
      </trkpt>
      <trkpt lat="42.35169" lon="2.40338">
        <ele>1240</ele>
        <time>2010-01-01T04:52:25Z</time>
      </trkpt>
      <trkpt lat="42.35118" lon="2.4041">
        <ele>1234</ele>
        <time>2010-01-01T04:52:54Z</time>
      </trkpt>
      <trkpt lat="42.35102" lon="2.40334">
        <ele>1235</ele>
        <time>2010-01-01T04:53:18Z</time>
      </trkpt>
      <trkpt lat="42.35039" lon="2.4034">
        <ele>1228</ele>
        <time>2010-01-01T04:53:43Z</time>
      </trkpt>
      <trkpt lat="42.34993" lon="2.40347">
        <ele>1216</ele>
        <time>2010-01-01T04:54:01Z</time>
      </trkpt>
      <trkpt lat="42.34946" lon="2.40378">
        <ele>1208</ele>
        <time>2010-01-01T04:54:22Z</time>
      </trkpt>
      <trkpt lat="42.34892" lon="2.40405">
        <ele>1200</ele>
        <time>2010-01-01T04:54:45Z</time>
      </trkpt>
      <trkpt lat="42.34845" lon="2.4043">
        <ele>1193</ele>
        <time>2010-01-01T04:55:06Z</time>
      </trkpt>
      <trkpt lat="42.34827" lon="2.40422">
        <ele>1190</ele>
        <time>2010-01-01T04:55:13Z</time>
      </trkpt>
      <trkpt lat="42.34829" lon="2.40417">
        <ele>1189</ele>
        <time>2010-01-01T04:55:15Z</time>
      </trkpt>
      <trkpt lat="42.34836" lon="2.404">
        <ele>1188</ele>
        <time>2010-01-01T04:55:21Z</time>
      </trkpt>
      <trkpt lat="42.34844" lon="2.4039">
        <ele>1187</ele>
        <time>2010-01-01T04:55:25Z</time>
      </trkpt>
      <trkpt lat="42.34847" lon="2.40386">
        <ele>1187</ele>
        <time>2010-01-01T04:55:27Z</time>
      </trkpt>
      <trkpt lat="42.34846" lon="2.40371">
        <ele>1186</ele>
        <time>2010-01-01T04:55:31Z</time>
      </trkpt>
      <trkpt lat="42.34848" lon="2.40365">
        <ele>1186</ele>
        <time>2010-01-01T04:55:33Z</time>
      </trkpt>
      <trkpt lat="42.34849" lon="2.40359">
        <ele>1186</ele>
        <time>2010-01-01T04:55:35Z</time>
      </trkpt>
      <trkpt lat="42.3485" lon="2.40357">
        <ele>1186</ele>
        <time>2010-01-01T04:55:36Z</time>
      </trkpt>
      <trkpt lat="42.34856" lon="2.4035">
        <ele>1186</ele>
        <time>2010-01-01T04:55:39Z</time>
      </trkpt>
      <trkpt lat="42.3486" lon="2.40348">
        <ele>1186</ele>
        <time>2010-01-01T04:55:40Z</time>
      </trkpt>
      <trkpt lat="42.34864" lon="2.40342">
        <ele>1186</ele>
        <time>2010-01-01T04:55:43Z</time>
      </trkpt>
      <trkpt lat="42.34867" lon="2.40339">
        <ele>1186</ele>
        <time>2010-01-01T04:55:44Z</time>
      </trkpt>
      <trkpt lat="42.34879" lon="2.40322">
        <ele>1187</ele>
        <time>2010-01-01T04:55:51Z</time>
      </trkpt>
      <trkpt lat="42.34881" lon="2.40317">
        <ele>1187</ele>
        <time>2010-01-01T04:55:53Z</time>
      </trkpt>
      <trkpt lat="42.34877" lon="2.403">
        <ele>1188</ele>
        <time>2010-01-01T04:55:58Z</time>
      </trkpt>
      <trkpt lat="42.34877" lon="2.40298">
        <ele>1188</ele>
        <time>2010-01-01T04:55:59Z</time>
      </trkpt>
      <trkpt lat="42.34873" lon="2.4029">
        <ele>1189</ele>
        <time>2010-01-01T04:56:02Z</time>
      </trkpt>
      <trkpt lat="42.34869" lon="2.40291">
        <ele>1189</ele>
        <time>2010-01-01T04:56:03Z</time>
      </trkpt>
      <trkpt lat="42.34867" lon="2.40289">
        <ele>1189</ele>
        <time>2010-01-01T04:56:05Z</time>
      </trkpt>
      <trkpt lat="42.3486" lon="2.4029">
        <ele>1189</ele>
        <time>2010-01-01T04:56:07Z</time>
      </trkpt>
      <trkpt lat="42.34852" lon="2.40289">
        <ele>1189</ele>
        <time>2010-01-01T04:56:11Z</time>
      </trkpt>
      <trkpt lat="42.3485" lon="2.40289">
        <ele>1189</ele>
        <time>2010-01-01T04:56:11Z</time>
      </trkpt>
      <trkpt lat="42.34841" lon="2.40288">
        <ele>1189</ele>
        <time>2010-01-01T04:56:15Z</time>
      </trkpt>
      <trkpt lat="42.34833" lon="2.40278">
        <ele>1189</ele>
        <time>2010-01-01T04:56:19Z</time>
      </trkpt>
      <trkpt lat="42.34829" lon="2.40263">
        <ele>1191</ele>
        <time>2010-01-01T04:56:24Z</time>
      </trkpt>
      <trkpt lat="42.34829" lon="2.40262">
        <ele>1191</ele>
        <time>2010-01-01T04:56:24Z</time>
      </trkpt>
      <trkpt lat="42.34819" lon="2.40248">
        <ele>1192</ele>
        <time>2010-01-01T04:56:30Z</time>
      </trkpt>
      <trkpt lat="42.34818" lon="2.40248">
        <ele>1192</ele>
        <time>2010-01-01T04:56:30Z</time>
      </trkpt>
      <trkpt lat="42.34815" lon="2.40246">
        <ele>1192</ele>
        <time>2010-01-01T04:56:32Z</time>
      </trkpt>
      <trkpt lat="42.3481" lon="2.40242">
        <ele>1192</ele>
        <time>2010-01-01T04:56:34Z</time>
      </trkpt>
      <trkpt lat="42.34807" lon="2.4024">
        <ele>1192</ele>
        <time>2010-01-01T04:56:35Z</time>
      </trkpt>
      <trkpt lat="42.34802" lon="2.40237">
        <ele>1192</ele>
        <time>2010-01-01T04:56:37Z</time>
      </trkpt>
      <trkpt lat="42.34791" lon="2.4023">
        <ele>1193</ele>
        <time>2010-01-01T04:56:43Z</time>
      </trkpt>
      <trkpt lat="42.34785" lon="2.40221">
        <ele>1194</ele>
        <time>2010-01-01T04:56:46Z</time>
      </trkpt>
      <trkpt lat="42.34781" lon="2.40217">
        <ele>1195</ele>
        <time>2010-01-01T04:56:48Z</time>
      </trkpt>
      <trkpt lat="42.34777" lon="2.40211">
        <ele>1196</ele>
        <time>2010-01-01T04:56:50Z</time>
      </trkpt>
      <trkpt lat="42.34776" lon="2.40208">
        <ele>1197</ele>
        <time>2010-01-01T04:56:51Z</time>
      </trkpt>
      <trkpt lat="42.34775" lon="2.40202">
        <ele>1198</ele>
        <time>2010-01-01T04:56:53Z</time>
      </trkpt>
      <trkpt lat="42.34774" lon="2.40198">
        <ele>1199</ele>
        <time>2010-01-01T04:56:54Z</time>
      </trkpt>
      <trkpt lat="42.34773" lon="2.40196">
        <ele>1199</ele>
        <time>2010-01-01T04:56:55Z</time>
      </trkpt>
      <trkpt lat="42.34773" lon="2.40192">
        <ele>1200</ele>
        <time>2010-01-01T04:56:56Z</time>
      </trkpt>
      <trkpt lat="42.34767" lon="2.40176">
        <ele>1203</ele>
        <time>2010-01-01T04:57:02Z</time>
      </trkpt>
      <trkpt lat="42.34767" lon="2.40175">
        <ele>1203</ele>
        <time>2010-01-01T04:57:02Z</time>
      </trkpt>
      <trkpt lat="42.34765" lon="2.40173">
        <ele>1203</ele>
        <time>2010-01-01T04:57:03Z</time>
      </trkpt>
      <trkpt lat="42.34754" lon="2.40161">
        <ele>1203</ele>
        <time>2010-01-01T04:57:08Z</time>
      </trkpt>
      <trkpt lat="42.34746" lon="2.40147">
        <ele>1204</ele>
        <time>2010-01-01T04:57:14Z</time>
      </trkpt>
      <trkpt lat="42.3474" lon="2.40137">
        <ele>1205</ele>
        <time>2010-01-01T04:57:18Z</time>
      </trkpt>
      <trkpt lat="42.34734" lon="2.40132">
        <ele>1205</ele>
        <time>2010-01-01T04:57:20Z</time>
      </trkpt>
      <trkpt lat="42.34728" lon="2.40132">
        <ele>1204</ele>
        <time>2010-01-01T04:57:23Z</time>
      </trkpt>
      <trkpt lat="42.34726" lon="2.40134">
        <ele>1204</ele>
        <time>2010-01-01T04:57:24Z</time>
      </trkpt>
      <trkpt lat="42.3472" lon="2.40131">
        <ele>1204</ele>
        <time>2010-01-01T04:57:26Z</time>
      </trkpt>
      <trkpt lat="42.34718" lon="2.40129">
        <ele>1204</ele>
        <time>2010-01-01T04:57:28Z</time>
      </trkpt>
      <trkpt lat="42.34714" lon="2.40129">
        <ele>1204</ele>
        <time>2010-01-01T04:57:29Z</time>
      </trkpt>
      <trkpt lat="42.34709" lon="2.40129">
        <ele>1205</ele>
        <time>2010-01-01T04:57:31Z</time>
      </trkpt>
      <trkpt lat="42.34705" lon="2.40129">
        <ele>1205</ele>
        <time>2010-01-01T04:57:33Z</time>
      </trkpt>
      <trkpt lat="42.34698" lon="2.40126">
        <ele>1205</ele>
        <time>2010-01-01T04:57:36Z</time>
      </trkpt>
      <trkpt lat="42.34685" lon="2.40124">
        <ele>1205</ele>
        <time>2010-01-01T04:57:41Z</time>
      </trkpt>
      <trkpt lat="42.34683" lon="2.40123">
        <ele>1205</ele>
        <time>2010-01-01T04:57:41Z</time>
      </trkpt>
      <trkpt lat="42.3468" lon="2.40121">
        <ele>1205</ele>
        <time>2010-01-01T04:57:43Z</time>
      </trkpt>
      <trkpt lat="42.34678" lon="2.4012">
        <ele>1205</ele>
        <time>2010-01-01T04:57:44Z</time>
      </trkpt>
      <trkpt lat="42.34667" lon="2.40112">
        <ele>1206</ele>
        <time>2010-01-01T04:57:49Z</time>
      </trkpt>
      <trkpt lat="42.34662" lon="2.40109">
        <ele>1206</ele>
        <time>2010-01-01T04:57:51Z</time>
      </trkpt>
      <trkpt lat="42.34661" lon="2.40107">
        <ele>1205</ele>
        <time>2010-01-01T04:57:52Z</time>
      </trkpt>
      <trkpt lat="42.34658" lon="2.40103">
        <ele>1205</ele>
        <time>2010-01-01T04:57:53Z</time>
      </trkpt>
      <trkpt lat="42.34651" lon="2.40089">
        <ele>1204</ele>
        <time>2010-01-01T04:57:58Z</time>
      </trkpt>
      <trkpt lat="42.34651" lon="2.40087">
        <ele>1204</ele>
        <time>2010-01-01T04:57:59Z</time>
      </trkpt>
      <trkpt lat="42.34649" lon="2.40076">
        <ele>1204</ele>
        <time>2010-01-01T04:58:02Z</time>
      </trkpt>
      <trkpt lat="42.34648" lon="2.40069">
        <ele>1204</ele>
        <time>2010-01-01T04:58:04Z</time>
      </trkpt>
      <trkpt lat="42.34647" lon="2.40064">
        <ele>1204</ele>
        <time>2010-01-01T04:58:06Z</time>
      </trkpt>
      <trkpt lat="42.34647" lon="2.40059">
        <ele>1203</ele>
        <time>2010-01-01T04:58:07Z</time>
      </trkpt>
      <trkpt lat="42.34646" lon="2.4004">
        <ele>1203</ele>
        <time>2010-01-01T04:58:13Z</time>
      </trkpt>
      <trkpt lat="42.34647" lon="2.40035">
        <ele>1203</ele>
        <time>2010-01-01T04:58:15Z</time>
      </trkpt>
      <trkpt lat="42.34648" lon="2.40013">
        <ele>1202</ele>
        <time>2010-01-01T04:58:21Z</time>
      </trkpt>
      <trkpt lat="42.34647" lon="2.4001">
        <ele>1202</ele>
        <time>2010-01-01T04:58:22Z</time>
      </trkpt>
      <trkpt lat="42.34651" lon="2.39995">
        <ele>1202</ele>
        <time>2010-01-01T04:58:27Z</time>
      </trkpt>
      <trkpt lat="42.34653" lon="2.39989">
        <ele>1202</ele>
        <time>2010-01-01T04:58:29Z</time>
      </trkpt>
      <trkpt lat="42.34659" lon="2.39971">
        <ele>1202</ele>
        <time>2010-01-01T04:58:35Z</time>
      </trkpt>
      <trkpt lat="42.3466" lon="2.39969">
        <ele>1202</ele>
        <time>2010-01-01T04:58:35Z</time>
      </trkpt>
      <trkpt lat="42.34668" lon="2.39952">
        <ele>1204</ele>
        <time>2010-01-01T04:58:41Z</time>
      </trkpt>
      <trkpt lat="42.34668" lon="2.39949">
        <ele>1204</ele>
        <time>2010-01-01T04:58:42Z</time>
      </trkpt>
      <trkpt lat="42.34672" lon="2.39941">
        <ele>1206</ele>
        <time>2010-01-01T04:58:45Z</time>
      </trkpt>
      <trkpt lat="42.34673" lon="2.39935">
        <ele>1206</ele>
        <time>2010-01-01T04:58:47Z</time>
      </trkpt>
      <trkpt lat="42.34678" lon="2.39922">
        <ele>1208</ele>
        <time>2010-01-01T04:58:51Z</time>
      </trkpt>
      <trkpt lat="42.34679" lon="2.3992">
        <ele>1208</ele>
        <time>2010-01-01T04:58:52Z</time>
      </trkpt>
      <trkpt lat="42.34683" lon="2.39909">
        <ele>1210</ele>
        <time>2010-01-01T04:58:55Z</time>
      </trkpt>
      <trkpt lat="42.34689" lon="2.39892">
        <ele>1212</ele>
        <time>2010-01-01T04:59:01Z</time>
      </trkpt>
      <trkpt lat="42.34693" lon="2.39876">
        <ele>1214</ele>
        <time>2010-01-01T04:59:06Z</time>
      </trkpt>
      <trkpt lat="42.34694" lon="2.39872">
        <ele>1215</ele>
        <time>2010-01-01T04:59:07Z</time>
      </trkpt>
      <trkpt lat="42.34697" lon="2.3985">
        <ele>1214</ele>
        <time>2010-01-01T04:59:14Z</time>
      </trkpt>
      <trkpt lat="42.34699" lon="2.39848">
        <ele>1215</ele>
        <time>2010-01-01T04:59:15Z</time>
      </trkpt>
      <trkpt lat="42.34702" lon="2.39828">
        <ele>1215</ele>
        <time>2010-01-01T04:59:21Z</time>
      </trkpt>
      <trkpt lat="42.34705" lon="2.39807">
        <ele>1217</ele>
        <time>2010-01-01T04:59:27Z</time>
      </trkpt>
      <trkpt lat="42.34705" lon="2.39804">
        <ele>1217</ele>
        <time>2010-01-01T04:59:28Z</time>
      </trkpt>
      <trkpt lat="42.34703" lon="2.3979">
        <ele>1218</ele>
        <time>2010-01-01T04:59:32Z</time>
      </trkpt>
      <trkpt lat="42.34695" lon="2.39775">
        <ele>1218</ele>
        <time>2010-01-01T04:59:37Z</time>
      </trkpt>
      <trkpt lat="42.34694" lon="2.39771">
        <ele>1218</ele>
        <time>2010-01-01T04:59:39Z</time>
      </trkpt>
      <trkpt lat="42.34694" lon="2.3977">
        <ele>1219</ele>
        <time>2010-01-01T04:59:39Z</time>
      </trkpt>
      <trkpt lat="42.34693" lon="2.39768">
        <ele>1219</ele>
        <time>2010-01-01T04:59:40Z</time>
      </trkpt>
      <trkpt lat="42.34691" lon="2.39766">
        <ele>1218</ele>
        <time>2010-01-01T04:59:41Z</time>
      </trkpt>
      <trkpt lat="42.34679" lon="2.39743">
        <ele>1218</ele>
        <time>2010-01-01T04:59:49Z</time>
      </trkpt>
      <trkpt lat="42.34679" lon="2.39742">
        <ele>1218</ele>
        <time>2010-01-01T04:59:49Z</time>
      </trkpt>
      <trkpt lat="42.34676" lon="2.39728">
        <ele>1221</ele>
        <time>2010-01-01T04:59:54Z</time>
      </trkpt>
      <trkpt lat="42.34671" lon="2.39709">
        <ele>1223</ele>
        <time>2010-01-01T04:59:59Z</time>
      </trkpt>
      <trkpt lat="42.3467" lon="2.39706">
        <ele>1224</ele>
        <time>2010-01-01T05:00:01Z</time>
      </trkpt>
      <trkpt lat="42.34663" lon="2.39691">
        <ele>1226</ele>
        <time>2010-01-01T05:00:06Z</time>
      </trkpt>
      <trkpt lat="42.34657" lon="2.39676">
        <ele>1227</ele>
        <time>2010-01-01T05:00:11Z</time>
      </trkpt>
      <trkpt lat="42.34653" lon="2.39668">
        <ele>1227</ele>
        <time>2010-01-01T05:00:14Z</time>
      </trkpt>
      <trkpt lat="42.34652" lon="2.39661">
        <ele>1228</ele>
        <time>2010-01-01T05:00:16Z</time>
      </trkpt>
      <trkpt lat="42.34652" lon="2.39659">
        <ele>1228</ele>
        <time>2010-01-01T05:00:16Z</time>
      </trkpt>
      <trkpt lat="42.34651" lon="2.39658">
        <ele>1228</ele>
        <time>2010-01-01T05:00:17Z</time>
      </trkpt>
      <trkpt lat="42.34652" lon="2.39655">
        <ele>1229</ele>
        <time>2010-01-01T05:00:18Z</time>
      </trkpt>
      <trkpt lat="42.34656" lon="2.39639">
        <ele>1232</ele>
        <time>2010-01-01T05:00:23Z</time>
      </trkpt>
      <trkpt lat="42.34661" lon="2.39622">
        <ele>1233</ele>
        <time>2010-01-01T05:00:28Z</time>
      </trkpt>
      <trkpt lat="42.3466" lon="2.39615">
        <ele>1233</ele>
        <time>2010-01-01T05:00:30Z</time>
      </trkpt>
      <trkpt lat="42.3466" lon="2.39593">
        <ele>1234</ele>
        <time>2010-01-01T05:00:37Z</time>
      </trkpt>
      <trkpt lat="42.34662" lon="2.39585">
        <ele>1235</ele>
        <time>2010-01-01T05:00:39Z</time>
      </trkpt>
      <trkpt lat="42.34663" lon="2.39583">
        <ele>1235</ele>
        <time>2010-01-01T05:00:40Z</time>
      </trkpt>
      <trkpt lat="42.34665" lon="2.39575">
        <ele>1236</ele>
        <time>2010-01-01T05:00:42Z</time>
      </trkpt>
      <trkpt lat="42.34666" lon="2.39573">
        <ele>1236</ele>
        <time>2010-01-01T05:00:43Z</time>
      </trkpt>
      <trkpt lat="42.34671" lon="2.39562">
        <ele>1237</ele>
        <time>2010-01-01T05:00:47Z</time>
      </trkpt>
      <trkpt lat="42.34673" lon="2.39558">
        <ele>1238</ele>
        <time>2010-01-01T05:00:48Z</time>
      </trkpt>
      <trkpt lat="42.34676" lon="2.39551">
        <ele>1238</ele>
        <time>2010-01-01T05:00:51Z</time>
      </trkpt>
      <trkpt lat="42.34688" lon="2.39535">
        <ele>1240</ele>
        <time>2010-01-01T05:00:58Z</time>
      </trkpt>
      <trkpt lat="42.34691" lon="2.3953">
        <ele>1240</ele>
        <time>2010-01-01T05:00:59Z</time>
      </trkpt>
      <trkpt lat="42.34694" lon="2.39527">
        <ele>1240</ele>
        <time>2010-01-01T05:01:01Z</time>
      </trkpt>
      <trkpt lat="42.347" lon="2.39519">
        <ele>1240</ele>
        <time>2010-01-01T05:01:04Z</time>
      </trkpt>
      <trkpt lat="42.34704" lon="2.39515">
        <ele>1241</ele>
        <time>2010-01-01T05:01:06Z</time>
      </trkpt>
      <trkpt lat="42.34704" lon="2.39513">
        <ele>1241</ele>
        <time>2010-01-01T05:01:07Z</time>
      </trkpt>
      <trkpt lat="42.34706" lon="2.3951">
        <ele>1241</ele>
        <time>2010-01-01T05:01:08Z</time>
      </trkpt>
      <trkpt lat="42.34711" lon="2.39491">
        <ele>1240</ele>
        <time>2010-01-01T05:01:14Z</time>
      </trkpt>
      <trkpt lat="42.34712" lon="2.39491">
        <ele>1240</ele>
        <time>2010-01-01T05:01:14Z</time>
      </trkpt>
      <trkpt lat="42.34712" lon="2.39488">
        <ele>1240</ele>
        <time>2010-01-01T05:01:15Z</time>
      </trkpt>
      <trkpt lat="42.34723" lon="2.39468">
        <ele>1240</ele>
        <time>2010-01-01T05:01:22Z</time>
      </trkpt>
      <trkpt lat="42.34725" lon="2.39465">
        <ele>1240</ele>
        <time>2010-01-01T05:01:23Z</time>
      </trkpt>
      <trkpt lat="42.34729" lon="2.39462">
        <ele>1240</ele>
        <time>2010-01-01T05:01:25Z</time>
      </trkpt>
      <trkpt lat="42.34733" lon="2.39459">
        <ele>1240</ele>
        <time>2010-01-01T05:01:27Z</time>
      </trkpt>
      <trkpt lat="42.34747" lon="2.39451">
        <ele>1241</ele>
        <time>2010-01-01T05:01:33Z</time>
      </trkpt>
      <trkpt lat="42.34754" lon="2.39445">
        <ele>1242</ele>
        <time>2010-01-01T05:01:36Z</time>
      </trkpt>
      <trkpt lat="42.34771" lon="2.39432">
        <ele>1243</ele>
        <time>2010-01-01T05:01:44Z</time>
      </trkpt>
      <trkpt lat="42.34783" lon="2.39419">
        <ele>1244</ele>
        <time>2010-01-01T05:01:50Z</time>
      </trkpt>
      <trkpt lat="42.34797" lon="2.39401">
        <ele>1246</ele>
        <time>2010-01-01T05:01:58Z</time>
      </trkpt>
      <trkpt lat="42.34808" lon="2.39384">
        <ele>1246</ele>
        <time>2010-01-01T05:02:05Z</time>
      </trkpt>
      <trkpt lat="42.34818" lon="2.39366">
        <ele>1245</ele>
        <time>2010-01-01T05:02:12Z</time>
      </trkpt>
      <trkpt lat="42.3483" lon="2.3935">
        <ele>1244</ele>
        <time>2010-01-01T05:02:18Z</time>
      </trkpt>
      <trkpt lat="42.34841" lon="2.3934">
        <ele>1244</ele>
        <time>2010-01-01T05:02:24Z</time>
      </trkpt>
      <trkpt lat="42.34844" lon="2.39333">
        <ele>1243</ele>
        <time>2010-01-01T05:02:26Z</time>
      </trkpt>
      <trkpt lat="42.34857" lon="2.39317">
        <ele>1242</ele>
        <time>2010-01-01T05:02:33Z</time>
      </trkpt>
      <trkpt lat="42.34858" lon="2.39316">
        <ele>1242</ele>
        <time>2010-01-01T05:02:33Z</time>
      </trkpt>
      <trkpt lat="42.34872" lon="2.39297">
        <ele>1243</ele>
        <time>2010-01-01T05:02:41Z</time>
      </trkpt>
      <trkpt lat="42.34883" lon="2.39283">
        <ele>1244</ele>
        <time>2010-01-01T05:02:47Z</time>
      </trkpt>
      <trkpt lat="42.34888" lon="2.39273">
        <ele>1244</ele>
        <time>2010-01-01T05:02:51Z</time>
      </trkpt>
      <trkpt lat="42.34895" lon="2.39261">
        <ele>1245</ele>
        <time>2010-01-01T05:02:55Z</time>
      </trkpt>
      <trkpt lat="42.34898" lon="2.39258">
        <ele>1246</ele>
        <time>2010-01-01T05:02:57Z</time>
      </trkpt>
      <trkpt lat="42.34903" lon="2.39246">
        <ele>1247</ele>
        <time>2010-01-01T05:03:01Z</time>
      </trkpt>
      <trkpt lat="42.34911" lon="2.3923">
        <ele>1247</ele>
        <time>2010-01-01T05:03:07Z</time>
      </trkpt>
      <trkpt lat="42.34917" lon="2.39216">
        <ele>1247</ele>
        <time>2010-01-01T05:03:11Z</time>
      </trkpt>
      <trkpt lat="42.34918" lon="2.39213">
        <ele>1247</ele>
        <time>2010-01-01T05:03:13Z</time>
      </trkpt>
      <trkpt lat="42.34932" lon="2.39196">
        <ele>1249</ele>
        <time>2010-01-01T05:03:20Z</time>
      </trkpt>
      <trkpt lat="42.34936" lon="2.39181">
        <ele>1248</ele>
        <time>2010-01-01T05:03:25Z</time>
      </trkpt>
      <trkpt lat="42.34945" lon="2.39167">
        <ele>1250</ele>
        <time>2010-01-01T05:03:30Z</time>
      </trkpt>
      <trkpt lat="42.34956" lon="2.39155">
        <ele>1250</ele>
        <time>2010-01-01T05:03:36Z</time>
      </trkpt>
      <trkpt lat="42.34959" lon="2.39151">
        <ele>1249</ele>
        <time>2010-01-01T05:03:38Z</time>
      </trkpt>
      <trkpt lat="42.34971" lon="2.39136">
        <ele>1247</ele>
        <time>2010-01-01T05:03:44Z</time>
      </trkpt>
      <trkpt lat="42.34983" lon="2.39127">
        <ele>1247</ele>
        <time>2010-01-01T05:03:49Z</time>
      </trkpt>
      <trkpt lat="42.34994" lon="2.39115">
        <ele>1246</ele>
        <time>2010-01-01T05:03:55Z</time>
      </trkpt>
      <trkpt lat="42.34996" lon="2.39114">
        <ele>1246</ele>
        <time>2010-01-01T05:03:56Z</time>
      </trkpt>
      <trkpt lat="42.35" lon="2.39108">
        <ele>1245</ele>
        <time>2010-01-01T05:03:58Z</time>
      </trkpt>
      <trkpt lat="42.35003" lon="2.39104">
        <ele>1245</ele>
        <time>2010-01-01T05:04:00Z</time>
      </trkpt>
      <trkpt lat="42.35017" lon="2.39099">
        <ele>1251</ele>
        <time>2010-01-01T05:04:06Z</time>
      </trkpt>
      <trkpt lat="42.35018" lon="2.39098">
        <ele>1251</ele>
        <time>2010-01-01T05:04:06Z</time>
      </trkpt>
      <trkpt lat="42.35029" lon="2.3909">
        <ele>1252</ele>
        <time>2010-01-01T05:04:11Z</time>
      </trkpt>
      <trkpt lat="42.35037" lon="2.39082">
        <ele>1253</ele>
        <time>2010-01-01T05:04:16Z</time>
      </trkpt>
      <trkpt lat="42.35042" lon="2.39078">
        <ele>1254</ele>
        <time>2010-01-01T05:04:18Z</time>
      </trkpt>
      <trkpt lat="42.35043" lon="2.39077">
        <ele>1254</ele>
        <time>2010-01-01T05:04:18Z</time>
      </trkpt>
      <trkpt lat="42.35047" lon="2.39074">
        <ele>1255</ele>
        <time>2010-01-01T05:04:20Z</time>
      </trkpt>
      <trkpt lat="42.35064" lon="2.39057">
        <ele>1258</ele>
        <time>2010-01-01T05:04:29Z</time>
      </trkpt>
      <trkpt lat="42.35068" lon="2.39053">
        <ele>1258</ele>
        <time>2010-01-01T05:04:30Z</time>
      </trkpt>
      <trkpt lat="42.35072" lon="2.3905">
        <ele>1259</ele>
        <time>2010-01-01T05:04:32Z</time>
      </trkpt>
      <trkpt lat="42.35076" lon="2.39046">
        <ele>1260</ele>
        <time>2010-01-01T05:04:35Z</time>
      </trkpt>
      <trkpt lat="42.35089" lon="2.39036">
        <ele>1261</ele>
        <time>2010-01-01T05:04:40Z</time>
      </trkpt>
      <trkpt lat="42.35089" lon="2.39035">
        <ele>1261</ele>
        <time>2010-01-01T05:04:41Z</time>
      </trkpt>
      <trkpt lat="42.35092" lon="2.39034">
        <ele>1262</ele>
        <time>2010-01-01T05:04:42Z</time>
      </trkpt>
      <trkpt lat="42.35095" lon="2.39031">
        <ele>1263</ele>
        <time>2010-01-01T05:04:43Z</time>
      </trkpt>
      <trkpt lat="42.35104" lon="2.39023">
        <ele>1264</ele>
        <time>2010-01-01T05:04:48Z</time>
      </trkpt>
      <trkpt lat="42.35113" lon="2.39013">
        <ele>1265</ele>
        <time>2010-01-01T05:04:52Z</time>
      </trkpt>
      <trkpt lat="42.35121" lon="2.39004">
        <ele>1266</ele>
        <time>2010-01-01T05:04:56Z</time>
      </trkpt>
      <trkpt lat="42.35136" lon="2.38995">
        <ele>1268</ele>
        <time>2010-01-01T05:05:03Z</time>
      </trkpt>
      <trkpt lat="42.35146" lon="2.38991">
        <ele>1270</ele>
        <time>2010-01-01T05:05:07Z</time>
      </trkpt>
      <trkpt lat="42.3516" lon="2.38977">
        <ele>1272</ele>
        <time>2010-01-01T05:05:14Z</time>
      </trkpt>
      <trkpt lat="42.35162" lon="2.38976">
        <ele>1273</ele>
        <time>2010-01-01T05:05:15Z</time>
      </trkpt>
      <trkpt lat="42.35165" lon="2.38975">
        <ele>1273</ele>
        <time>2010-01-01T05:05:16Z</time>
      </trkpt>
      <trkpt lat="42.35171" lon="2.38971">
        <ele>1274</ele>
        <time>2010-01-01T05:05:19Z</time>
      </trkpt>
      <trkpt lat="42.35176" lon="2.38968">
        <ele>1275</ele>
        <time>2010-01-01T05:05:21Z</time>
      </trkpt>
      <trkpt lat="42.35188" lon="2.38955">
        <ele>1277</ele>
        <time>2010-01-01T05:05:27Z</time>
      </trkpt>
      <trkpt lat="42.35195" lon="2.38948">
        <ele>1278</ele>
        <time>2010-01-01T05:05:31Z</time>
      </trkpt>
      <trkpt lat="42.35199" lon="2.38945">
        <ele>1278</ele>
        <time>2010-01-01T05:05:33Z</time>
      </trkpt>
      <trkpt lat="42.35207" lon="2.38945">
        <ele>1280</ele>
        <time>2010-01-01T05:05:36Z</time>
      </trkpt>
      <trkpt lat="42.35212" lon="2.38946">
        <ele>1281</ele>
        <time>2010-01-01T05:05:38Z</time>
      </trkpt>
      <trkpt lat="42.35221" lon="2.38938">
        <ele>1282</ele>
        <time>2010-01-01T05:05:42Z</time>
      </trkpt>
      <trkpt lat="42.35215" lon="2.38927">
        <ele>1282</ele>
        <time>2010-01-01T05:05:46Z</time>
      </trkpt>
      <trkpt lat="42.35203" lon="2.38921">
        <ele>1280</ele>
        <time>2010-01-01T05:05:51Z</time>
      </trkpt>
      <trkpt lat="42.35197" lon="2.38925">
        <ele>1279</ele>
        <time>2010-01-01T05:05:54Z</time>
      </trkpt>
      <trkpt lat="42.35192" lon="2.38923">
        <ele>1278</ele>
        <time>2010-01-01T05:05:56Z</time>
      </trkpt>
      <trkpt lat="42.35186" lon="2.3892">
        <ele>1277</ele>
        <time>2010-01-01T05:05:58Z</time>
      </trkpt>
      <trkpt lat="42.35186" lon="2.3892">
        <ele>1277</ele>
        <time>2010-01-01T05:05:58Z</time>
      </trkpt>
      <trkpt lat="42.35187" lon="2.38918">
        <ele>1277</ele>
        <time>2010-01-01T05:05:59Z</time>
      </trkpt>
      <trkpt lat="42.35186" lon="2.38918">
        <ele>1277</ele>
        <time>2010-01-01T05:05:59Z</time>
      </trkpt>
      <trkpt lat="42.35183" lon="2.38917">
        <ele>1277</ele>
        <time>2010-01-01T05:06:01Z</time>
      </trkpt>
      <trkpt lat="42.35173" lon="2.38913">
        <ele>1276</ele>
        <time>2010-01-01T05:06:05Z</time>
      </trkpt>
      <trkpt lat="42.35172" lon="2.38911">
        <ele>1276</ele>
        <time>2010-01-01T05:06:06Z</time>
      </trkpt>
      <trkpt lat="42.35169" lon="2.38909">
        <ele>1276</ele>
        <time>2010-01-01T05:06:07Z</time>
      </trkpt>
      <trkpt lat="42.35156" lon="2.38894">
        <ele>1276</ele>
        <time>2010-01-01T05:06:14Z</time>
      </trkpt>
      <trkpt lat="42.35149" lon="2.38885">
        <ele>1276</ele>
        <time>2010-01-01T05:06:18Z</time>
      </trkpt>
      <trkpt lat="42.35144" lon="2.38879">
        <ele>1276</ele>
        <time>2010-01-01T05:06:20Z</time>
      </trkpt>
      <trkpt lat="42.35135" lon="2.38859">
        <ele>1278</ele>
        <time>2010-01-01T05:06:27Z</time>
      </trkpt>
      <trkpt lat="42.35131" lon="2.3884">
        <ele>1280</ele>
        <time>2010-01-01T05:06:33Z</time>
      </trkpt>
      <trkpt lat="42.35126" lon="2.38816">
        <ele>1282</ele>
        <time>2010-01-01T05:06:40Z</time>
      </trkpt>
      <trkpt lat="42.35126" lon="2.3881">
        <ele>1283</ele>
        <time>2010-01-01T05:06:42Z</time>
      </trkpt>
      <trkpt lat="42.35127" lon="2.38786">
        <ele>1283</ele>
        <time>2010-01-01T05:06:49Z</time>
      </trkpt>
      <trkpt lat="42.35127" lon="2.38785">
        <ele>1283</ele>
        <time>2010-01-01T05:06:50Z</time>
      </trkpt>
      <trkpt lat="42.35128" lon="2.38776">
        <ele>1283</ele>
        <time>2010-01-01T05:06:52Z</time>
      </trkpt>
      <trkpt lat="42.3513" lon="2.38769">
        <ele>1283</ele>
        <time>2010-01-01T05:06:54Z</time>
      </trkpt>
      <trkpt lat="42.3513" lon="2.38764">
        <ele>1283</ele>
        <time>2010-01-01T05:06:56Z</time>
      </trkpt>
      <trkpt lat="42.35131" lon="2.38763">
        <ele>1283</ele>
        <time>2010-01-01T05:06:57Z</time>
      </trkpt>
      <trkpt lat="42.35138" lon="2.3876">
        <ele>1285</ele>
        <time>2010-01-01T05:06:59Z</time>
      </trkpt>
      <trkpt lat="42.3514" lon="2.38762">
        <ele>1286</ele>
        <time>2010-01-01T05:07:00Z</time>
      </trkpt>
      <trkpt lat="42.35134" lon="2.3876">
        <ele>1284</ele>
        <time>2010-01-01T05:07:03Z</time>
      </trkpt>
      <trkpt lat="42.35139" lon="2.38757">
        <ele>1285</ele>
        <time>2010-01-01T05:07:05Z</time>
      </trkpt>
      <trkpt lat="42.35141" lon="2.38759">
        <ele>1286</ele>
        <time>2010-01-01T05:07:06Z</time>
      </trkpt>
      <trkpt lat="42.35142" lon="2.38766">
        <ele>1287</ele>
        <time>2010-01-01T05:07:08Z</time>
      </trkpt>
      <trkpt lat="42.35142" lon="2.38763">
        <ele>1287</ele>
        <time>2010-01-01T05:07:08Z</time>
      </trkpt>
      <trkpt lat="42.3514" lon="2.38759">
        <ele>1286</ele>
        <time>2010-01-01T05:07:10Z</time>
      </trkpt>
      <trkpt lat="42.3514" lon="2.38751">
        <ele>1285</ele>
        <time>2010-01-01T05:07:12Z</time>
      </trkpt>
      <trkpt lat="42.35138" lon="2.38755">
        <ele>1285</ele>
        <time>2010-01-01T05:07:14Z</time>
      </trkpt>
      <trkpt lat="42.35139" lon="2.38757">
        <ele>1285</ele>
        <time>2010-01-01T05:07:14Z</time>
      </trkpt>
      <trkpt lat="42.3514" lon="2.38762">
        <ele>1286</ele>
        <time>2010-01-01T05:07:16Z</time>
      </trkpt>
      <trkpt lat="42.3514" lon="2.38765">
        <ele>1287</ele>
        <time>2010-01-01T05:07:17Z</time>
      </trkpt>
      <trkpt lat="42.35133" lon="2.38761">
        <ele>1284</ele>
        <time>2010-01-01T05:07:20Z</time>
      </trkpt>
      <trkpt lat="42.35127" lon="2.38794">
        <ele>1284</ele>
        <time>2010-01-01T05:07:30Z</time>
      </trkpt>
      <trkpt lat="42.35128" lon="2.38821">
        <ele>1282</ele>
        <time>2010-01-01T05:07:38Z</time>
      </trkpt>
      <trkpt lat="42.35131" lon="2.38846">
        <ele>1279</ele>
        <time>2010-01-01T05:07:45Z</time>
      </trkpt>
      <trkpt lat="42.35138" lon="2.3887">
        <ele>1277</ele>
        <time>2010-01-01T05:07:53Z</time>
      </trkpt>
      <trkpt lat="42.35147" lon="2.38885">
        <ele>1276</ele>
        <time>2010-01-01T05:07:59Z</time>
      </trkpt>
      <trkpt lat="42.35152" lon="2.38889">
        <ele>1276</ele>
        <time>2010-01-01T05:08:01Z</time>
      </trkpt>
      <trkpt lat="42.35169" lon="2.38904">
        <ele>1277</ele>
        <time>2010-01-01T05:08:09Z</time>
      </trkpt>
      <trkpt lat="42.35175" lon="2.38911">
        <ele>1276</ele>
        <time>2010-01-01T05:08:13Z</time>
      </trkpt>
      <trkpt lat="42.35178" lon="2.38915">
        <ele>1276</ele>
        <time>2010-01-01T05:08:14Z</time>
      </trkpt>
      <trkpt lat="42.35184" lon="2.38918">
        <ele>1277</ele>
        <time>2010-01-01T05:08:17Z</time>
      </trkpt>
      <trkpt lat="42.35186" lon="2.38922">
        <ele>1277</ele>
        <time>2010-01-01T05:08:18Z</time>
      </trkpt>
      <trkpt lat="42.35186" lon="2.38919">
        <ele>1277</ele>
        <time>2010-01-01T05:08:19Z</time>
      </trkpt>
      <trkpt lat="42.35185" lon="2.38919">
        <ele>1277</ele>
        <time>2010-01-01T05:08:19Z</time>
      </trkpt>
      <trkpt lat="42.35185" lon="2.3892">
        <ele>1277</ele>
        <time>2010-01-01T05:08:19Z</time>
      </trkpt>
      <trkpt lat="42.35182" lon="2.38918">
        <ele>1277</ele>
        <time>2010-01-01T05:08:20Z</time>
      </trkpt>
      <trkpt lat="42.35178" lon="2.38916">
        <ele>1276</ele>
        <time>2010-01-01T05:08:22Z</time>
      </trkpt>
      <trkpt lat="42.35169" lon="2.38905">
        <ele>1276</ele>
        <time>2010-01-01T05:08:27Z</time>
      </trkpt>
      <trkpt lat="42.35167" lon="2.38904">
        <ele>1276</ele>
        <time>2010-01-01T05:08:28Z</time>
      </trkpt>
      <trkpt lat="42.35159" lon="2.38895">
        <ele>1276</ele>
        <time>2010-01-01T05:08:32Z</time>
      </trkpt>
      <trkpt lat="42.35158" lon="2.38894">
        <ele>1276</ele>
        <time>2010-01-01T05:08:32Z</time>
      </trkpt>
      <trkpt lat="42.35153" lon="2.38891">
        <ele>1275</ele>
        <time>2010-01-01T05:08:35Z</time>
      </trkpt>
      <trkpt lat="42.35149" lon="2.38884">
        <ele>1276</ele>
        <time>2010-01-01T05:08:37Z</time>
      </trkpt>
      <trkpt lat="42.35143" lon="2.38875">
        <ele>1277</ele>
        <time>2010-01-01T05:08:41Z</time>
      </trkpt>
      <trkpt lat="42.35139" lon="2.38869">
        <ele>1277</ele>
        <time>2010-01-01T05:08:43Z</time>
      </trkpt>
      <trkpt lat="42.35136" lon="2.38856">
        <ele>1279</ele>
        <time>2010-01-01T05:08:47Z</time>
      </trkpt>
      <trkpt lat="42.35133" lon="2.38848">
        <ele>1279</ele>
        <time>2010-01-01T05:08:50Z</time>
      </trkpt>
      <trkpt lat="42.3513" lon="2.38831">
        <ele>1281</ele>
        <time>2010-01-01T05:08:55Z</time>
      </trkpt>
      <trkpt lat="42.35129" lon="2.38828">
        <ele>1282</ele>
        <time>2010-01-01T05:08:56Z</time>
      </trkpt>
      <trkpt lat="42.35127" lon="2.38814">
        <ele>1283</ele>
        <time>2010-01-01T05:09:00Z</time>
      </trkpt>
      <trkpt lat="42.35127" lon="2.38809">
        <ele>1284</ele>
        <time>2010-01-01T05:09:02Z</time>
      </trkpt>
      <trkpt lat="42.35126" lon="2.388">
        <ele>1284</ele>
        <time>2010-01-01T05:09:04Z</time>
      </trkpt>
      <trkpt lat="42.35126" lon="2.3879">
        <ele>1283</ele>
        <time>2010-01-01T05:09:08Z</time>
      </trkpt>
      <trkpt lat="42.3513" lon="2.38776">
        <ele>1284</ele>
        <time>2010-01-01T05:09:12Z</time>
      </trkpt>
      <trkpt lat="42.35131" lon="2.38767">
        <ele>1283</ele>
        <time>2010-01-01T05:09:15Z</time>
      </trkpt>
      <trkpt lat="42.35133" lon="2.3876">
        <ele>1284</ele>
        <time>2010-01-01T05:09:17Z</time>
      </trkpt>
      <trkpt lat="42.35136" lon="2.38757">
        <ele>1284</ele>
        <time>2010-01-01T05:09:18Z</time>
      </trkpt>
      <trkpt lat="42.35139" lon="2.38758">
        <ele>1285</ele>
        <time>2010-01-01T05:09:20Z</time>
      </trkpt>
      <trkpt lat="42.3514" lon="2.3876">
        <ele>1286</ele>
        <time>2010-01-01T05:09:20Z</time>
      </trkpt>
      <trkpt lat="42.35141" lon="2.38766">
        <ele>1287</ele>
        <time>2010-01-01T05:09:22Z</time>
      </trkpt>
      <trkpt lat="42.35141" lon="2.38767">
        <ele>1287</ele>
        <time>2010-01-01T05:09:22Z</time>
      </trkpt>
      <trkpt lat="42.3514" lon="2.38777">
        <ele>1288</ele>
        <time>2010-01-01T05:09:25Z</time>
      </trkpt>
      <trkpt lat="42.35139" lon="2.38798">
        <ele>1289</ele>
        <time>2010-01-01T05:09:31Z</time>
      </trkpt>
      <trkpt lat="42.35142" lon="2.38803">
        <ele>1290</ele>
        <time>2010-01-01T05:09:33Z</time>
      </trkpt>
      <trkpt lat="42.35146" lon="2.38802">
        <ele>1291</ele>
        <time>2010-01-01T05:09:35Z</time>
      </trkpt>
      <trkpt lat="42.35148" lon="2.38798">
        <ele>1291</ele>
        <time>2010-01-01T05:09:36Z</time>
      </trkpt>
      <trkpt lat="42.35148" lon="2.38795">
        <ele>1291</ele>
        <time>2010-01-01T05:09:37Z</time>
      </trkpt>
      <trkpt lat="42.35146" lon="2.38784">
        <ele>1290</ele>
        <time>2010-01-01T05:09:41Z</time>
      </trkpt>
      <trkpt lat="42.35147" lon="2.38777">
        <ele>1290</ele>
        <time>2010-01-01T05:09:43Z</time>
      </trkpt>
      <trkpt lat="42.3515" lon="2.38773">
        <ele>1290</ele>
        <time>2010-01-01T05:09:44Z</time>
      </trkpt>
      <trkpt lat="42.35159" lon="2.38784">
        <ele>1293</ele>
        <time>2010-01-01T05:09:49Z</time>
      </trkpt>
      <trkpt lat="42.35161" lon="2.38789">
        <ele>1294</ele>
        <time>2010-01-01T05:09:51Z</time>
      </trkpt>
      <trkpt lat="42.35163" lon="2.38799">
        <ele>1294</ele>
        <time>2010-01-01T05:09:54Z</time>
      </trkpt>
      <trkpt lat="42.35166" lon="2.38808">
        <ele>1294</ele>
        <time>2010-01-01T05:09:57Z</time>
      </trkpt>
      <trkpt lat="42.3517" lon="2.38813">
        <ele>1294</ele>
        <time>2010-01-01T05:09:59Z</time>
      </trkpt>
      <trkpt lat="42.35176" lon="2.38815">
        <ele>1294</ele>
        <time>2010-01-01T05:10:02Z</time>
      </trkpt>
      <trkpt lat="42.35181" lon="2.38813">
        <ele>1295</ele>
        <time>2010-01-01T05:10:04Z</time>
      </trkpt>
      <trkpt lat="42.35186" lon="2.38799">
        <ele>1297</ele>
        <time>2010-01-01T05:10:08Z</time>
      </trkpt>
      <trkpt lat="42.3519" lon="2.38782">
        <ele>1299</ele>
        <time>2010-01-01T05:10:13Z</time>
      </trkpt>
      <trkpt lat="42.35201" lon="2.38768">
        <ele>1302</ele>
        <time>2010-01-01T05:10:19Z</time>
      </trkpt>
      <trkpt lat="42.35205" lon="2.38764">
        <ele>1303</ele>
        <time>2010-01-01T05:10:21Z</time>
      </trkpt>
      <trkpt lat="42.3521" lon="2.38755">
        <ele>1304</ele>
        <time>2010-01-01T05:10:25Z</time>
      </trkpt>
      <trkpt lat="42.35215" lon="2.38748">
        <ele>1305</ele>
        <time>2010-01-01T05:10:28Z</time>
      </trkpt>
      <trkpt lat="42.35219" lon="2.38741">
        <ele>1305</ele>
        <time>2010-01-01T05:10:30Z</time>
      </trkpt>
      <trkpt lat="42.35228" lon="2.38721">
        <ele>1306</ele>
        <time>2010-01-01T05:10:37Z</time>
      </trkpt>
      <trkpt lat="42.35232" lon="2.38715">
        <ele>1306</ele>
        <time>2010-01-01T05:10:40Z</time>
      </trkpt>
      <trkpt lat="42.35236" lon="2.3871">
        <ele>1307</ele>
        <time>2010-01-01T05:10:42Z</time>
      </trkpt>
      <trkpt lat="42.35243" lon="2.38688">
        <ele>1306</ele>
        <time>2010-01-01T05:10:49Z</time>
      </trkpt>
      <trkpt lat="42.35248" lon="2.38659">
        <ele>1306</ele>
        <time>2010-01-01T05:10:58Z</time>
      </trkpt>
      <trkpt lat="42.3525" lon="2.38646">
        <ele>1305</ele>
        <time>2010-01-01T05:11:02Z</time>
      </trkpt>
      <trkpt lat="42.35251" lon="2.38643">
        <ele>1305</ele>
        <time>2010-01-01T05:11:03Z</time>
      </trkpt>
      <trkpt lat="42.3525" lon="2.38644">
        <ele>1305</ele>
        <time>2010-01-01T05:11:03Z</time>
      </trkpt>
      <trkpt lat="42.3525" lon="2.38644">
        <ele>1305</ele>
        <time>2010-01-01T05:11:03Z</time>
      </trkpt>
      <trkpt lat="42.3525" lon="2.38642">
        <ele>1305</ele>
        <time>2010-01-01T05:11:04Z</time>
      </trkpt>
      <trkpt lat="42.35251" lon="2.3864">
        <ele>1305</ele>
        <time>2010-01-01T05:11:04Z</time>
      </trkpt>
      <trkpt lat="42.35248" lon="2.38617">
        <ele>1302</ele>
        <time>2010-01-01T05:11:11Z</time>
      </trkpt>
      <trkpt lat="42.35247" lon="2.38605">
        <ele>1301</ele>
        <time>2010-01-01T05:11:15Z</time>
      </trkpt>
      <trkpt lat="42.35252" lon="2.38593">
        <ele>1301</ele>
        <time>2010-01-01T05:11:19Z</time>
      </trkpt>
      <trkpt lat="42.35252" lon="2.38586">
        <ele>1300</ele>
        <time>2010-01-01T05:11:21Z</time>
      </trkpt>
      <trkpt lat="42.35253" lon="2.38579">
        <ele>1300</ele>
        <time>2010-01-01T05:11:23Z</time>
      </trkpt>
      <trkpt lat="42.35254" lon="2.38572">
        <ele>1300</ele>
        <time>2010-01-01T05:11:25Z</time>
      </trkpt>
      <trkpt lat="42.35256" lon="2.38563">
        <ele>1300</ele>
        <time>2010-01-01T05:11:28Z</time>
      </trkpt>
      <trkpt lat="42.3526" lon="2.3855">
        <ele>1301</ele>
        <time>2010-01-01T05:11:32Z</time>
      </trkpt>
      <trkpt lat="42.3526" lon="2.38551">
        <ele>1301</ele>
        <time>2010-01-01T05:11:32Z</time>
      </trkpt>
      <trkpt lat="42.3526" lon="2.38556">
        <ele>1301</ele>
        <time>2010-01-01T05:11:34Z</time>
      </trkpt>
      <trkpt lat="42.3526" lon="2.38557">
        <ele>1301</ele>
        <time>2010-01-01T05:11:34Z</time>
      </trkpt>
      <trkpt lat="42.35262" lon="2.38553">
        <ele>1301</ele>
        <time>2010-01-01T05:11:36Z</time>
      </trkpt>
      <trkpt lat="42.35263" lon="2.38553">
        <ele>1301</ele>
        <time>2010-01-01T05:11:36Z</time>
      </trkpt>
      <trkpt lat="42.35264" lon="2.38544">
        <ele>1301</ele>
        <time>2010-01-01T05:11:38Z</time>
      </trkpt>
      <trkpt lat="42.35266" lon="2.38541">
        <ele>1301</ele>
        <time>2010-01-01T05:11:39Z</time>
      </trkpt>
      <trkpt lat="42.35269" lon="2.38529">
        <ele>1301</ele>
        <time>2010-01-01T05:11:43Z</time>
      </trkpt>
      <trkpt lat="42.35273" lon="2.3852">
        <ele>1301</ele>
        <time>2010-01-01T05:11:46Z</time>
      </trkpt>
      <trkpt lat="42.35274" lon="2.38513">
        <ele>1301</ele>
        <time>2010-01-01T05:11:48Z</time>
      </trkpt>
      <trkpt lat="42.35276" lon="2.38507">
        <ele>1301</ele>
        <time>2010-01-01T05:11:50Z</time>
      </trkpt>
      <trkpt lat="42.35285" lon="2.38489">
        <ele>1304</ele>
        <time>2010-01-01T05:11:57Z</time>
      </trkpt>
      <trkpt lat="42.3529" lon="2.38476">
        <ele>1306</ele>
        <time>2010-01-01T05:12:01Z</time>
      </trkpt>
      <trkpt lat="42.35291" lon="2.38471">
        <ele>1306</ele>
        <time>2010-01-01T05:12:03Z</time>
      </trkpt>
      <trkpt lat="42.35293" lon="2.38463">
        <ele>1308</ele>
        <time>2010-01-01T05:12:05Z</time>
      </trkpt>
      <trkpt lat="42.35294" lon="2.38464">
        <ele>1308</ele>
        <time>2010-01-01T05:12:05Z</time>
      </trkpt>
      <trkpt lat="42.35291" lon="2.38463">
        <ele>1308</ele>
        <time>2010-01-01T05:12:06Z</time>
      </trkpt>
      <trkpt lat="42.3529" lon="2.38462">
        <ele>1308</ele>
        <time>2010-01-01T05:12:07Z</time>
      </trkpt>
      <trkpt lat="42.35286" lon="2.38461">
        <ele>1308</ele>
        <time>2010-01-01T05:12:09Z</time>
      </trkpt>
      <trkpt lat="42.35282" lon="2.38463">
        <ele>1307</ele>
        <time>2010-01-01T05:12:10Z</time>
      </trkpt>
      <trkpt lat="42.3527" lon="2.3846">
        <ele>1306</ele>
        <time>2010-01-01T05:12:15Z</time>
      </trkpt>
      <trkpt lat="42.35268" lon="2.3846">
        <ele>1305</ele>
        <time>2010-01-01T05:12:16Z</time>
      </trkpt>
      <trkpt lat="42.3526" lon="2.38468">
        <ele>1302</ele>
        <time>2010-01-01T05:12:20Z</time>
      </trkpt>
      <trkpt lat="42.35256" lon="2.38472">
        <ele>1301</ele>
        <time>2010-01-01T05:12:22Z</time>
      </trkpt>
      <trkpt lat="42.35253" lon="2.38472">
        <ele>1300</ele>
        <time>2010-01-01T05:12:23Z</time>
      </trkpt>
      <trkpt lat="42.35249" lon="2.38479">
        <ele>1298</ele>
        <time>2010-01-01T05:12:26Z</time>
      </trkpt>
      <trkpt lat="42.35245" lon="2.38479">
        <ele>1298</ele>
        <time>2010-01-01T05:12:28Z</time>
      </trkpt>
      <trkpt lat="42.35238" lon="2.38481">
        <ele>1297</ele>
        <time>2010-01-01T05:12:30Z</time>
      </trkpt>
      <trkpt lat="42.35224" lon="2.38482">
        <ele>1296</ele>
        <time>2010-01-01T05:12:36Z</time>
      </trkpt>
      <trkpt lat="42.35215" lon="2.38483">
        <ele>1296</ele>
        <time>2010-01-01T05:12:39Z</time>
      </trkpt>
      <trkpt lat="42.35213" lon="2.38483">
        <ele>1296</ele>
        <time>2010-01-01T05:12:40Z</time>
      </trkpt>
      <trkpt lat="42.35207" lon="2.38485">
        <ele>1295</ele>
        <time>2010-01-01T05:12:43Z</time>
      </trkpt>
      <trkpt lat="42.35201" lon="2.38485">
        <ele>1295</ele>
        <time>2010-01-01T05:12:45Z</time>
      </trkpt>
      <trkpt lat="42.35186" lon="2.38486">
        <ele>1294</ele>
        <time>2010-01-01T05:12:51Z</time>
      </trkpt>
      <trkpt lat="42.35182" lon="2.38486">
        <ele>1294</ele>
        <time>2010-01-01T05:12:53Z</time>
      </trkpt>
      <trkpt lat="42.35163" lon="2.38477">
        <ele>1295</ele>
        <time>2010-01-01T05:13:01Z</time>
      </trkpt>
      <trkpt lat="42.35155" lon="2.38472">
        <ele>1295</ele>
        <time>2010-01-01T05:13:04Z</time>
      </trkpt>
      <trkpt lat="42.35151" lon="2.38471">
        <ele>1295</ele>
        <time>2010-01-01T05:13:06Z</time>
      </trkpt>
      <trkpt lat="42.35149" lon="2.38472">
        <ele>1295</ele>
        <time>2010-01-01T05:13:07Z</time>
      </trkpt>
      <trkpt lat="42.3515" lon="2.38469">
        <ele>1295</ele>
        <time>2010-01-01T05:13:08Z</time>
      </trkpt>
      <trkpt lat="42.35149" lon="2.38467">
        <ele>1295</ele>
        <time>2010-01-01T05:13:08Z</time>
      </trkpt>
      <trkpt lat="42.35148" lon="2.38465">
        <ele>1295</ele>
        <time>2010-01-01T05:13:09Z</time>
      </trkpt>
      <trkpt lat="42.35146" lon="2.38462">
        <ele>1296</ele>
        <time>2010-01-01T05:13:10Z</time>
      </trkpt>
      <trkpt lat="42.35145" lon="2.38461">
        <ele>1296</ele>
        <time>2010-01-01T05:13:11Z</time>
      </trkpt>
      <trkpt lat="42.35142" lon="2.38455">
        <ele>1296</ele>
        <time>2010-01-01T05:13:13Z</time>
      </trkpt>
      <trkpt lat="42.35137" lon="2.38436">
        <ele>1296</ele>
        <time>2010-01-01T05:13:19Z</time>
      </trkpt>
      <trkpt lat="42.35137" lon="2.38438">
        <ele>1296</ele>
        <time>2010-01-01T05:13:19Z</time>
      </trkpt>
      <trkpt lat="42.35138" lon="2.38445">
        <ele>1296</ele>
        <time>2010-01-01T05:13:22Z</time>
      </trkpt>
      <trkpt lat="42.35141" lon="2.38452">
        <ele>1296</ele>
        <time>2010-01-01T05:13:24Z</time>
      </trkpt>
      <trkpt lat="42.35149" lon="2.3847">
        <ele>1295</ele>
        <time>2010-01-01T05:13:30Z</time>
      </trkpt>
      <trkpt lat="42.35145" lon="2.3847">
        <ele>1294</ele>
        <time>2010-01-01T05:13:32Z</time>
      </trkpt>
      <trkpt lat="42.35145" lon="2.3847">
        <ele>1294</ele>
        <time>2010-01-01T05:13:32Z</time>
      </trkpt>
      <trkpt lat="42.35131" lon="2.38457">
        <ele>1293</ele>
        <time>2010-01-01T05:13:39Z</time>
      </trkpt>
      <trkpt lat="42.35126" lon="2.3845">
        <ele>1293</ele>
        <time>2010-01-01T05:13:42Z</time>
      </trkpt>
      <trkpt lat="42.35126" lon="2.3845">
        <ele>1292</ele>
        <time>2010-01-01T05:13:42Z</time>
      </trkpt>
      <trkpt lat="42.35126" lon="2.3845">
        <ele>1292</ele>
        <time>2010-01-01T05:13:42Z</time>
      </trkpt>
      <trkpt lat="42.35124" lon="2.38445">
        <ele>1292</ele>
        <time>2010-01-01T05:13:43Z</time>
      </trkpt>
      <trkpt lat="42.35119" lon="2.3844">
        <ele>1291</ele>
        <time>2010-01-01T05:13:46Z</time>
      </trkpt>
      <trkpt lat="42.35117" lon="2.38428">
        <ele>1290</ele>
        <time>2010-01-01T05:13:49Z</time>
      </trkpt>
      <trkpt lat="42.35116" lon="2.38426">
        <ele>1290</ele>
        <time>2010-01-01T05:13:50Z</time>
      </trkpt>
      <trkpt lat="42.35113" lon="2.38418">
        <ele>1288</ele>
        <time>2010-01-01T05:13:53Z</time>
      </trkpt>
      <trkpt lat="42.35114" lon="2.38409">
        <ele>1288</ele>
        <time>2010-01-01T05:13:56Z</time>
      </trkpt>
      <trkpt lat="42.35113" lon="2.38398">
        <ele>1287</ele>
        <time>2010-01-01T05:13:59Z</time>
      </trkpt>
      <trkpt lat="42.35113" lon="2.38389">
        <ele>1286</ele>
        <time>2010-01-01T05:14:01Z</time>
      </trkpt>
      <trkpt lat="42.35113" lon="2.38378">
        <ele>1285</ele>
        <time>2010-01-01T05:14:04Z</time>
      </trkpt>
      <trkpt lat="42.35115" lon="2.38368">
        <ele>1285</ele>
        <time>2010-01-01T05:14:08Z</time>
      </trkpt>
      <trkpt lat="42.35116" lon="2.38358">
        <ele>1284</ele>
        <time>2010-01-01T05:14:11Z</time>
      </trkpt>
      <trkpt lat="42.35117" lon="2.38339">
        <ele>1285</ele>
        <time>2010-01-01T05:14:16Z</time>
      </trkpt>
      <trkpt lat="42.35119" lon="2.38325">
        <ele>1286</ele>
        <time>2010-01-01T05:14:21Z</time>
      </trkpt>
      <trkpt lat="42.35121" lon="2.38303">
        <ele>1287</ele>
        <time>2010-01-01T05:14:27Z</time>
      </trkpt>
      <trkpt lat="42.35121" lon="2.38303">
        <ele>1287</ele>
        <time>2010-01-01T05:14:27Z</time>
      </trkpt>
      <trkpt lat="42.35122" lon="2.38298">
        <ele>1288</ele>
        <time>2010-01-01T05:14:29Z</time>
      </trkpt>
      <trkpt lat="42.35123" lon="2.38284">
        <ele>1288</ele>
        <time>2010-01-01T05:14:33Z</time>
      </trkpt>
      <trkpt lat="42.35122" lon="2.38271">
        <ele>1287</ele>
        <time>2010-01-01T05:14:37Z</time>
      </trkpt>
      <trkpt lat="42.35123" lon="2.38267">
        <ele>1288</ele>
        <time>2010-01-01T05:14:38Z</time>
      </trkpt>
      <trkpt lat="42.35124" lon="2.38251">
        <ele>1287</ele>
        <time>2010-01-01T05:14:43Z</time>
      </trkpt>
      <trkpt lat="42.35124" lon="2.38245">
        <ele>1288</ele>
        <time>2010-01-01T05:14:44Z</time>
      </trkpt>
      <trkpt lat="42.35124" lon="2.38237">
        <ele>1288</ele>
        <time>2010-01-01T05:14:47Z</time>
      </trkpt>
      <trkpt lat="42.35127" lon="2.38225">
        <ele>1290</ele>
        <time>2010-01-01T05:14:51Z</time>
      </trkpt>
      <trkpt lat="42.35128" lon="2.38224">
        <ele>1291</ele>
        <time>2010-01-01T05:14:51Z</time>
      </trkpt>
      <trkpt lat="42.35129" lon="2.38216">
        <ele>1292</ele>
        <time>2010-01-01T05:14:54Z</time>
      </trkpt>
      <trkpt lat="42.3513" lon="2.38209">
        <ele>1293</ele>
        <time>2010-01-01T05:14:56Z</time>
      </trkpt>
      <trkpt lat="42.35131" lon="2.382">
        <ele>1294</ele>
        <time>2010-01-01T05:14:58Z</time>
      </trkpt>
      <trkpt lat="42.35129" lon="2.38201">
        <ele>1293</ele>
        <time>2010-01-01T05:14:59Z</time>
      </trkpt>
      <trkpt lat="42.35129" lon="2.38199">
        <ele>1294</ele>
        <time>2010-01-01T05:15:00Z</time>
      </trkpt>
      <trkpt lat="42.35129" lon="2.38199">
        <ele>1294</ele>
        <time>2010-01-01T05:15:00Z</time>
      </trkpt>
      <trkpt lat="42.35127" lon="2.38198">
        <ele>1293</ele>
        <time>2010-01-01T05:15:01Z</time>
      </trkpt>
      <trkpt lat="42.35128" lon="2.38198">
        <ele>1294</ele>
        <time>2010-01-01T05:15:01Z</time>
      </trkpt>
      <trkpt lat="42.35128" lon="2.38198">
        <ele>1294</ele>
        <time>2010-01-01T05:15:01Z</time>
      </trkpt>
      <trkpt lat="42.35126" lon="2.38194">
        <ele>1293</ele>
        <time>2010-01-01T05:15:02Z</time>
      </trkpt>
      <trkpt lat="42.35129" lon="2.3819">
        <ele>1294</ele>
        <time>2010-01-01T05:15:04Z</time>
      </trkpt>
      <trkpt lat="42.35131" lon="2.38186">
        <ele>1295</ele>
        <time>2010-01-01T05:15:06Z</time>
      </trkpt>
      <trkpt lat="42.35129" lon="2.38181">
        <ele>1295</ele>
        <time>2010-01-01T05:15:07Z</time>
      </trkpt>
      <trkpt lat="42.35128" lon="2.38175">
        <ele>1295</ele>
        <time>2010-01-01T05:15:09Z</time>
      </trkpt>
      <trkpt lat="42.35128" lon="2.38173">
        <ele>1294</ele>
        <time>2010-01-01T05:15:10Z</time>
      </trkpt>
      <trkpt lat="42.35128" lon="2.38171">
        <ele>1295</ele>
        <time>2010-01-01T05:15:10Z</time>
      </trkpt>
      <trkpt lat="42.35133" lon="2.38171">
        <ele>1296</ele>
        <time>2010-01-01T05:15:12Z</time>
      </trkpt>
      <trkpt lat="42.35134" lon="2.38168">
        <ele>1297</ele>
        <time>2010-01-01T05:15:13Z</time>
      </trkpt>
      <trkpt lat="42.35134" lon="2.38151">
        <ele>1295</ele>
        <time>2010-01-01T05:15:18Z</time>
      </trkpt>
      <trkpt lat="42.35135" lon="2.38152">
        <ele>1296</ele>
        <time>2010-01-01T05:15:19Z</time>
      </trkpt>
      <trkpt lat="42.35135" lon="2.38147">
        <ele>1295</ele>
        <time>2010-01-01T05:15:20Z</time>
      </trkpt>
      <trkpt lat="42.35135" lon="2.38143">
        <ele>1295</ele>
        <time>2010-01-01T05:15:21Z</time>
      </trkpt>
      <trkpt lat="42.35136" lon="2.3814">
        <ele>1294</ele>
        <time>2010-01-01T05:15:22Z</time>
      </trkpt>
      <trkpt lat="42.35138" lon="2.38133">
        <ele>1294</ele>
        <time>2010-01-01T05:15:24Z</time>
      </trkpt>
      <trkpt lat="42.35139" lon="2.38127">
        <ele>1294</ele>
        <time>2010-01-01T05:15:26Z</time>
      </trkpt>
      <trkpt lat="42.35142" lon="2.38119">
        <ele>1295</ele>
        <time>2010-01-01T05:15:29Z</time>
      </trkpt>
      <trkpt lat="42.35144" lon="2.3811">
        <ele>1295</ele>
        <time>2010-01-01T05:15:32Z</time>
      </trkpt>
      <trkpt lat="42.35147" lon="2.38104">
        <ele>1295</ele>
        <time>2010-01-01T05:15:34Z</time>
      </trkpt>
      <trkpt lat="42.35149" lon="2.38097">
        <ele>1296</ele>
        <time>2010-01-01T05:15:36Z</time>
      </trkpt>
      <trkpt lat="42.3515" lon="2.38091">
        <ele>1296</ele>
        <time>2010-01-01T05:15:38Z</time>
      </trkpt>
      <trkpt lat="42.35154" lon="2.38081">
        <ele>1296</ele>
        <time>2010-01-01T05:15:41Z</time>
      </trkpt>
      <trkpt lat="42.35157" lon="2.38074">
        <ele>1297</ele>
        <time>2010-01-01T05:15:44Z</time>
      </trkpt>
      <trkpt lat="42.35161" lon="2.38067">
        <ele>1297</ele>
        <time>2010-01-01T05:15:46Z</time>
      </trkpt>
      <trkpt lat="42.35168" lon="2.38057">
        <ele>1299</ele>
        <time>2010-01-01T05:15:50Z</time>
      </trkpt>
      <trkpt lat="42.35172" lon="2.38051">
        <ele>1300</ele>
        <time>2010-01-01T05:15:53Z</time>
      </trkpt>
      <trkpt lat="42.35176" lon="2.38044">
        <ele>1300</ele>
        <time>2010-01-01T05:15:55Z</time>
      </trkpt>
      <trkpt lat="42.35177" lon="2.38041">
        <ele>1300</ele>
        <time>2010-01-01T05:15:56Z</time>
      </trkpt>
      <trkpt lat="42.35179" lon="2.3804">
        <ele>1300</ele>
        <time>2010-01-01T05:15:57Z</time>
      </trkpt>
      <trkpt lat="42.35188" lon="2.38031">
        <ele>1302</ele>
        <time>2010-01-01T05:16:02Z</time>
      </trkpt>
      <trkpt lat="42.35195" lon="2.38022">
        <ele>1304</ele>
        <time>2010-01-01T05:16:05Z</time>
      </trkpt>
      <trkpt lat="42.35198" lon="2.38017">
        <ele>1304</ele>
        <time>2010-01-01T05:16:07Z</time>
      </trkpt>
      <trkpt lat="42.35208" lon="2.38">
        <ele>1304</ele>
        <time>2010-01-01T05:16:13Z</time>
      </trkpt>
      <trkpt lat="42.35212" lon="2.3799">
        <ele>1304</ele>
        <time>2010-01-01T05:16:17Z</time>
      </trkpt>
      <trkpt lat="42.35215" lon="2.37988">
        <ele>1305</ele>
        <time>2010-01-01T05:16:18Z</time>
      </trkpt>
      <trkpt lat="42.35217" lon="2.37986">
        <ele>1305</ele>
        <time>2010-01-01T05:16:19Z</time>
      </trkpt>
      <trkpt lat="42.35221" lon="2.37979">
        <ele>1306</ele>
        <time>2010-01-01T05:16:22Z</time>
      </trkpt>
      <trkpt lat="42.35223" lon="2.37975">
        <ele>1306</ele>
        <time>2010-01-01T05:16:23Z</time>
      </trkpt>
      <trkpt lat="42.35228" lon="2.37967">
        <ele>1307</ele>
        <time>2010-01-01T05:16:27Z</time>
      </trkpt>
      <trkpt lat="42.35229" lon="2.37966">
        <ele>1307</ele>
        <time>2010-01-01T05:16:27Z</time>
      </trkpt>
      <trkpt lat="42.35237" lon="2.37956">
        <ele>1309</ele>
        <time>2010-01-01T05:16:31Z</time>
      </trkpt>
      <trkpt lat="42.35247" lon="2.3794">
        <ele>1312</ele>
        <time>2010-01-01T05:16:37Z</time>
      </trkpt>
      <trkpt lat="42.35257" lon="2.37927">
        <ele>1317</ele>
        <time>2010-01-01T05:16:43Z</time>
      </trkpt>
      <trkpt lat="42.35258" lon="2.37926">
        <ele>1318</ele>
        <time>2010-01-01T05:16:44Z</time>
      </trkpt>
      <trkpt lat="42.35261" lon="2.37918">
        <ele>1319</ele>
        <time>2010-01-01T05:16:46Z</time>
      </trkpt>
      <trkpt lat="42.35261" lon="2.37917">
        <ele>1319</ele>
        <time>2010-01-01T05:16:46Z</time>
      </trkpt>
      <trkpt lat="42.35262" lon="2.37915">
        <ele>1319</ele>
        <time>2010-01-01T05:16:47Z</time>
      </trkpt>
      <trkpt lat="42.35264" lon="2.37898">
        <ele>1319</ele>
        <time>2010-01-01T05:16:52Z</time>
      </trkpt>
      <trkpt lat="42.35264" lon="2.37896">
        <ele>1319</ele>
        <time>2010-01-01T05:16:53Z</time>
      </trkpt>
      <trkpt lat="42.35265" lon="2.37888">
        <ele>1320</ele>
        <time>2010-01-01T05:16:55Z</time>
      </trkpt>
      <trkpt lat="42.35263" lon="2.37882">
        <ele>1319</ele>
        <time>2010-01-01T05:16:57Z</time>
      </trkpt>
      <trkpt lat="42.35259" lon="2.37876">
        <ele>1318</ele>
        <time>2010-01-01T05:17:00Z</time>
      </trkpt>
      <trkpt lat="42.35256" lon="2.37858">
        <ele>1318</ele>
        <time>2010-01-01T05:17:05Z</time>
      </trkpt>
      <trkpt lat="42.35254" lon="2.37846">
        <ele>1319</ele>
        <time>2010-01-01T05:17:09Z</time>
      </trkpt>
      <trkpt lat="42.35254" lon="2.37844">
        <ele>1319</ele>
        <time>2010-01-01T05:17:09Z</time>
      </trkpt>
      <trkpt lat="42.35258" lon="2.37832">
        <ele>1321</ele>
        <time>2010-01-01T05:17:13Z</time>
      </trkpt>
      <trkpt lat="42.35264" lon="2.37826">
        <ele>1323</ele>
        <time>2010-01-01T05:17:16Z</time>
      </trkpt>
      <trkpt lat="42.35268" lon="2.37822">
        <ele>1324</ele>
        <time>2010-01-01T05:17:18Z</time>
      </trkpt>
      <trkpt lat="42.35276" lon="2.37815">
        <ele>1326</ele>
        <time>2010-01-01T05:17:22Z</time>
      </trkpt>
      <trkpt lat="42.35282" lon="2.37808">
        <ele>1328</ele>
        <time>2010-01-01T05:17:25Z</time>
      </trkpt>
      <trkpt lat="42.35284" lon="2.37806">
        <ele>1329</ele>
        <time>2010-01-01T05:17:26Z</time>
      </trkpt>
      <trkpt lat="42.35283" lon="2.378">
        <ele>1331</ele>
        <time>2010-01-01T05:17:28Z</time>
      </trkpt>
      <trkpt lat="42.35281" lon="2.37796">
        <ele>1331</ele>
        <time>2010-01-01T05:17:29Z</time>
      </trkpt>
      <trkpt lat="42.35277" lon="2.3779">
        <ele>1333</ele>
        <time>2010-01-01T05:17:32Z</time>
      </trkpt>
      <trkpt lat="42.35271" lon="2.37786">
        <ele>1333</ele>
        <time>2010-01-01T05:17:35Z</time>
      </trkpt>
      <trkpt lat="42.35259" lon="2.37784">
        <ele>1333</ele>
        <time>2010-01-01T05:17:39Z</time>
      </trkpt>
      <trkpt lat="42.35257" lon="2.37784">
        <ele>1333</ele>
        <time>2010-01-01T05:17:40Z</time>
      </trkpt>
      <trkpt lat="42.35251" lon="2.37785">
        <ele>1332</ele>
        <time>2010-01-01T05:17:43Z</time>
      </trkpt>
      <trkpt lat="42.35246" lon="2.37788">
        <ele>1330</ele>
        <time>2010-01-01T05:17:45Z</time>
      </trkpt>
      <trkpt lat="42.3523" lon="2.3779">
        <ele>1330</ele>
        <time>2010-01-01T05:17:51Z</time>
      </trkpt>
      <trkpt lat="42.3522" lon="2.37792">
        <ele>1329</ele>
        <time>2010-01-01T05:17:55Z</time>
      </trkpt>
      <trkpt lat="42.35219" lon="2.37792">
        <ele>1329</ele>
        <time>2010-01-01T05:17:56Z</time>
      </trkpt>
      <trkpt lat="42.35212" lon="2.37793">
        <ele>1329</ele>
        <time>2010-01-01T05:17:59Z</time>
      </trkpt>
      <trkpt lat="42.35208" lon="2.37795">
        <ele>1329</ele>
        <time>2010-01-01T05:18:00Z</time>
      </trkpt>
      <trkpt lat="42.35195" lon="2.37799">
        <ele>1328</ele>
        <time>2010-01-01T05:18:05Z</time>
      </trkpt>
      <trkpt lat="42.35188" lon="2.37803">
        <ele>1327</ele>
        <time>2010-01-01T05:18:09Z</time>
      </trkpt>
      <trkpt lat="42.35185" lon="2.37803">
        <ele>1327</ele>
        <time>2010-01-01T05:18:10Z</time>
      </trkpt>
      <trkpt lat="42.35173" lon="2.37803">
        <ele>1327</ele>
        <time>2010-01-01T05:18:15Z</time>
      </trkpt>
      <trkpt lat="42.35172" lon="2.37805">
        <ele>1327</ele>
        <time>2010-01-01T05:18:15Z</time>
      </trkpt>
      <trkpt lat="42.35165" lon="2.37808">
        <ele>1326</ele>
        <time>2010-01-01T05:18:18Z</time>
      </trkpt>
      <trkpt lat="42.35163" lon="2.37808">
        <ele>1326</ele>
        <time>2010-01-01T05:18:19Z</time>
      </trkpt>
      <trkpt lat="42.35161" lon="2.37808">
        <ele>1326</ele>
        <time>2010-01-01T05:18:20Z</time>
      </trkpt>
      <trkpt lat="42.35158" lon="2.37807">
        <ele>1326</ele>
        <time>2010-01-01T05:18:21Z</time>
      </trkpt>
      <trkpt lat="42.35151" lon="2.37803">
        <ele>1327</ele>
        <time>2010-01-01T05:18:24Z</time>
      </trkpt>
      <trkpt lat="42.35145" lon="2.37793">
        <ele>1330</ele>
        <time>2010-01-01T05:18:28Z</time>
      </trkpt>
      <trkpt lat="42.35138" lon="2.37783">
        <ele>1333</ele>
        <time>2010-01-01T05:18:32Z</time>
      </trkpt>
      <trkpt lat="42.3513" lon="2.37778">
        <ele>1335</ele>
        <time>2010-01-01T05:18:36Z</time>
      </trkpt>
      <trkpt lat="42.3512" lon="2.37776">
        <ele>1337</ele>
        <time>2010-01-01T05:18:40Z</time>
      </trkpt>
      <trkpt lat="42.35115" lon="2.37774">
        <ele>1338</ele>
        <time>2010-01-01T05:18:42Z</time>
      </trkpt>
      <trkpt lat="42.3511" lon="2.37779">
        <ele>1336</ele>
        <time>2010-01-01T05:18:44Z</time>
      </trkpt>
      <trkpt lat="42.35106" lon="2.37783">
        <ele>1335</ele>
        <time>2010-01-01T05:18:46Z</time>
      </trkpt>
      <trkpt lat="42.35095" lon="2.3779">
        <ele>1332</ele>
        <time>2010-01-01T05:18:51Z</time>
      </trkpt>
      <trkpt lat="42.35094" lon="2.3779">
        <ele>1333</ele>
        <time>2010-01-01T05:18:52Z</time>
      </trkpt>
      <trkpt lat="42.35091" lon="2.37793">
        <ele>1332</ele>
        <time>2010-01-01T05:18:53Z</time>
      </trkpt>
      <trkpt lat="42.35086" lon="2.37789">
        <ele>1333</ele>
        <time>2010-01-01T05:18:55Z</time>
      </trkpt>
      <trkpt lat="42.35085" lon="2.37789">
        <ele>1333</ele>
        <time>2010-01-01T05:18:56Z</time>
      </trkpt>
      <trkpt lat="42.35081" lon="2.37788">
        <ele>1334</ele>
        <time>2010-01-01T05:18:57Z</time>
      </trkpt>
      <trkpt lat="42.35069" lon="2.37788">
        <ele>1333</ele>
        <time>2010-01-01T05:19:02Z</time>
      </trkpt>
      <trkpt lat="42.35067" lon="2.37787">
        <ele>1334</ele>
        <time>2010-01-01T05:19:03Z</time>
      </trkpt>
      <trkpt lat="42.35064" lon="2.37786">
        <ele>1334</ele>
        <time>2010-01-01T05:19:04Z</time>
      </trkpt>
      <trkpt lat="42.35061" lon="2.37785">
        <ele>1335</ele>
        <time>2010-01-01T05:19:05Z</time>
      </trkpt>
      <trkpt lat="42.35057" lon="2.37785">
        <ele>1335</ele>
        <time>2010-01-01T05:19:07Z</time>
      </trkpt>
      <trkpt lat="42.35053" lon="2.37786">
        <ele>1334</ele>
        <time>2010-01-01T05:19:09Z</time>
      </trkpt>
      <trkpt lat="42.35039" lon="2.3779">
        <ele>1332</ele>
        <time>2010-01-01T05:19:14Z</time>
      </trkpt>
      <trkpt lat="42.35037" lon="2.3779">
        <ele>1331</ele>
        <time>2010-01-01T05:19:15Z</time>
      </trkpt>
      <trkpt lat="42.35032" lon="2.37789">
        <ele>1332</ele>
        <time>2010-01-01T05:19:17Z</time>
      </trkpt>
      <trkpt lat="42.35027" lon="2.37789">
        <ele>1331</ele>
        <time>2010-01-01T05:19:20Z</time>
      </trkpt>
      <trkpt lat="42.35025" lon="2.37791">
        <ele>1331</ele>
        <time>2010-01-01T05:19:21Z</time>
      </trkpt>
      <trkpt lat="42.35016" lon="2.3779">
        <ele>1330</ele>
        <time>2010-01-01T05:19:24Z</time>
      </trkpt>
      <trkpt lat="42.35007" lon="2.37793">
        <ele>1329</ele>
        <time>2010-01-01T05:19:28Z</time>
      </trkpt>
      <trkpt lat="42.34999" lon="2.37792">
        <ele>1329</ele>
        <time>2010-01-01T05:19:31Z</time>
      </trkpt>
      <trkpt lat="42.34993" lon="2.37792">
        <ele>1329</ele>
        <time>2010-01-01T05:19:33Z</time>
      </trkpt>
      <trkpt lat="42.3499" lon="2.37792">
        <ele>1329</ele>
        <time>2010-01-01T05:19:35Z</time>
      </trkpt>
      <trkpt lat="42.34981" lon="2.37792">
        <ele>1329</ele>
        <time>2010-01-01T05:19:38Z</time>
      </trkpt>
      <trkpt lat="42.34978" lon="2.37791">
        <ele>1329</ele>
        <time>2010-01-01T05:19:39Z</time>
      </trkpt>
      <trkpt lat="42.34966" lon="2.37793">
        <ele>1329</ele>
        <time>2010-01-01T05:19:44Z</time>
      </trkpt>
      <trkpt lat="42.34962" lon="2.37792">
        <ele>1329</ele>
        <time>2010-01-01T05:19:46Z</time>
      </trkpt>
      <trkpt lat="42.34953" lon="2.3779">
        <ele>1331</ele>
        <time>2010-01-01T05:19:50Z</time>
      </trkpt>
      <trkpt lat="42.34951" lon="2.37791">
        <ele>1330</ele>
        <time>2010-01-01T05:19:50Z</time>
      </trkpt>
      <trkpt lat="42.34943" lon="2.37791">
        <ele>1331</ele>
        <time>2010-01-01T05:19:54Z</time>
      </trkpt>
      <trkpt lat="42.34935" lon="2.37792">
        <ele>1331</ele>
        <time>2010-01-01T05:19:57Z</time>
      </trkpt>
      <trkpt lat="42.34927" lon="2.37792">
        <ele>1331</ele>
        <time>2010-01-01T05:20:00Z</time>
      </trkpt>
      <trkpt lat="42.34918" lon="2.37792">
        <ele>1332</ele>
        <time>2010-01-01T05:20:04Z</time>
      </trkpt>
      <trkpt lat="42.34918" lon="2.37792">
        <ele>1332</ele>
        <time>2010-01-01T05:20:04Z</time>
      </trkpt>
      <trkpt lat="42.34917" lon="2.37792">
        <ele>1332</ele>
        <time>2010-01-01T05:20:04Z</time>
      </trkpt>
      <trkpt lat="42.34909" lon="2.37792">
        <ele>1333</ele>
        <time>2010-01-01T05:20:07Z</time>
      </trkpt>
      <trkpt lat="42.34908" lon="2.37792">
        <ele>1333</ele>
        <time>2010-01-01T05:20:08Z</time>
      </trkpt>
      <trkpt lat="42.34903" lon="2.37792">
        <ele>1333</ele>
        <time>2010-01-01T05:20:10Z</time>
      </trkpt>
      <trkpt lat="42.349" lon="2.37792">
        <ele>1333</ele>
        <time>2010-01-01T05:20:11Z</time>
      </trkpt>
      <trkpt lat="42.34899" lon="2.37793">
        <ele>1333</ele>
        <time>2010-01-01T05:20:11Z</time>
      </trkpt>
      <trkpt lat="42.34897" lon="2.37794">
        <ele>1333</ele>
        <time>2010-01-01T05:20:12Z</time>
      </trkpt>
      <trkpt lat="42.34891" lon="2.37795">
        <ele>1333</ele>
        <time>2010-01-01T05:20:15Z</time>
      </trkpt>
      <trkpt lat="42.3489" lon="2.37794">
        <ele>1333</ele>
        <time>2010-01-01T05:20:15Z</time>
      </trkpt>
      <trkpt lat="42.34886" lon="2.37795">
        <ele>1334</ele>
        <time>2010-01-01T05:20:17Z</time>
      </trkpt>
      <trkpt lat="42.34883" lon="2.37794">
        <ele>1335</ele>
        <time>2010-01-01T05:20:18Z</time>
      </trkpt>
      <trkpt lat="42.34875" lon="2.37796">
        <ele>1336</ele>
        <time>2010-01-01T05:20:21Z</time>
      </trkpt>
      <trkpt lat="42.34871" lon="2.37799">
        <ele>1337</ele>
        <time>2010-01-01T05:20:23Z</time>
      </trkpt>
      <trkpt lat="42.34866" lon="2.37802">
        <ele>1337</ele>
        <time>2010-01-01T05:20:26Z</time>
      </trkpt>
      <trkpt lat="42.3486" lon="2.37803">
        <ele>1338</ele>
        <time>2010-01-01T05:20:28Z</time>
      </trkpt>
      <trkpt lat="42.34858" lon="2.37804">
        <ele>1339</ele>
        <time>2010-01-01T05:20:29Z</time>
      </trkpt>
      <trkpt lat="42.34854" lon="2.37806">
        <ele>1339</ele>
        <time>2010-01-01T05:20:30Z</time>
      </trkpt>
      <trkpt lat="42.3485" lon="2.37808">
        <ele>1339</ele>
        <time>2010-01-01T05:20:32Z</time>
      </trkpt>
      <trkpt lat="42.34847" lon="2.37808">
        <ele>1340</ele>
        <time>2010-01-01T05:20:33Z</time>
      </trkpt>
      <trkpt lat="42.3484" lon="2.37811">
        <ele>1341</ele>
        <time>2010-01-01T05:20:36Z</time>
      </trkpt>
      <trkpt lat="42.3484" lon="2.37811">
        <ele>1341</ele>
        <time>2010-01-01T05:20:36Z</time>
      </trkpt>
      <trkpt lat="42.34832" lon="2.37815">
        <ele>1342</ele>
        <time>2010-01-01T05:20:40Z</time>
      </trkpt>
      <trkpt lat="42.34828" lon="2.37816">
        <ele>1342</ele>
        <time>2010-01-01T05:20:41Z</time>
      </trkpt>
      <trkpt lat="42.34826" lon="2.37816">
        <ele>1343</ele>
        <time>2010-01-01T05:20:42Z</time>
      </trkpt>
      <trkpt lat="42.34824" lon="2.37817">
        <ele>1343</ele>
        <time>2010-01-01T05:20:43Z</time>
      </trkpt>
      <trkpt lat="42.34822" lon="2.37817">
        <ele>1343</ele>
        <time>2010-01-01T05:20:44Z</time>
      </trkpt>
      <trkpt lat="42.3481" lon="2.37821">
        <ele>1345</ele>
        <time>2010-01-01T05:20:48Z</time>
      </trkpt>
      <trkpt lat="42.34809" lon="2.37823">
        <ele>1345</ele>
        <time>2010-01-01T05:20:49Z</time>
      </trkpt>
      <trkpt lat="42.34804" lon="2.37825">
        <ele>1345</ele>
        <time>2010-01-01T05:20:51Z</time>
      </trkpt>
      <trkpt lat="42.34803" lon="2.37825">
        <ele>1345</ele>
        <time>2010-01-01T05:20:52Z</time>
      </trkpt>
      <trkpt lat="42.34803" lon="2.37825">
        <ele>1345</ele>
        <time>2010-01-01T05:20:52Z</time>
      </trkpt>
      <trkpt lat="42.34802" lon="2.37824">
        <ele>1345</ele>
        <time>2010-01-01T05:20:52Z</time>
      </trkpt>
      <trkpt lat="42.34804" lon="2.37826">
        <ele>1345</ele>
        <time>2010-01-01T05:20:53Z</time>
      </trkpt>
      <trkpt lat="42.34804" lon="2.37825">
        <ele>1345</ele>
        <time>2010-01-01T05:20:54Z</time>
      </trkpt>
      <trkpt lat="42.34802" lon="2.37826">
        <ele>1345</ele>
        <time>2010-01-01T05:20:54Z</time>
      </trkpt>
      <trkpt lat="42.34798" lon="2.37828">
        <ele>1345</ele>
        <time>2010-01-01T05:20:56Z</time>
      </trkpt>
      <trkpt lat="42.34797" lon="2.37828">
        <ele>1345</ele>
        <time>2010-01-01T05:20:56Z</time>
      </trkpt>
      <trkpt lat="42.34797" lon="2.37827">
        <ele>1345</ele>
        <time>2010-01-01T05:20:57Z</time>
      </trkpt>
      <trkpt lat="42.34797" lon="2.37827">
        <ele>1345</ele>
        <time>2010-01-01T05:20:57Z</time>
      </trkpt>
      <trkpt lat="42.34797" lon="2.37827">
        <ele>1345</ele>
        <time>2010-01-01T05:20:57Z</time>
      </trkpt>
      <trkpt lat="42.34797" lon="2.37827">
        <ele>1345</ele>
        <time>2010-01-01T05:20:57Z</time>
      </trkpt>
      <trkpt lat="42.34795" lon="2.3783">
        <ele>1345</ele>
        <time>2010-01-01T05:20:58Z</time>
      </trkpt>
      <trkpt lat="42.34794" lon="2.3783">
        <ele>1345</ele>
        <time>2010-01-01T05:20:59Z</time>
      </trkpt>
      <trkpt lat="42.34794" lon="2.3783">
        <ele>1345</ele>
        <time>2010-01-01T05:20:59Z</time>
      </trkpt>
      <trkpt lat="42.34794" lon="2.3783">
        <ele>1345</ele>
        <time>2010-01-01T05:20:59Z</time>
      </trkpt>
      <trkpt lat="42.34794" lon="2.3783">
        <ele>1345</ele>
        <time>2010-01-01T05:20:59Z</time>
      </trkpt>
      <trkpt lat="42.34794" lon="2.37829">
        <ele>1345</ele>
        <time>2010-01-01T05:20:59Z</time>
      </trkpt>
      <trkpt lat="42.34793" lon="2.37828">
        <ele>1345</ele>
        <time>2010-01-01T05:21:00Z</time>
      </trkpt>
      <trkpt lat="42.3479" lon="2.37829">
        <ele>1346</ele>
        <time>2010-01-01T05:21:01Z</time>
      </trkpt>
      <trkpt lat="42.34786" lon="2.37832">
        <ele>1346</ele>
        <time>2010-01-01T05:21:03Z</time>
      </trkpt>
      <trkpt lat="42.34779" lon="2.37834">
        <ele>1346</ele>
        <time>2010-01-01T05:21:06Z</time>
      </trkpt>
      <trkpt lat="42.34777" lon="2.37833">
        <ele>1346</ele>
        <time>2010-01-01T05:21:07Z</time>
      </trkpt>
      <trkpt lat="42.34772" lon="2.37836">
        <ele>1346</ele>
        <time>2010-01-01T05:21:09Z</time>
      </trkpt>
      <trkpt lat="42.34763" lon="2.37841">
        <ele>1345</ele>
        <time>2010-01-01T05:21:13Z</time>
      </trkpt>
      <trkpt lat="42.34748" lon="2.37849">
        <ele>1344</ele>
        <time>2010-01-01T05:21:19Z</time>
      </trkpt>
      <trkpt lat="42.34744" lon="2.3785">
        <ele>1344</ele>
        <time>2010-01-01T05:21:21Z</time>
      </trkpt>
      <trkpt lat="42.3474" lon="2.37852">
        <ele>1344</ele>
        <time>2010-01-01T05:21:22Z</time>
      </trkpt>
      <trkpt lat="42.34726" lon="2.37856">
        <ele>1343</ele>
        <time>2010-01-01T05:21:28Z</time>
      </trkpt>
      <trkpt lat="42.34722" lon="2.37857">
        <ele>1343</ele>
        <time>2010-01-01T05:21:29Z</time>
      </trkpt>
      <trkpt lat="42.34713" lon="2.37862">
        <ele>1343</ele>
        <time>2010-01-01T05:21:34Z</time>
      </trkpt>
      <trkpt lat="42.34707" lon="2.37866">
        <ele>1343</ele>
        <time>2010-01-01T05:21:36Z</time>
      </trkpt>
      <trkpt lat="42.34697" lon="2.3787">
        <ele>1343</ele>
        <time>2010-01-01T05:21:41Z</time>
      </trkpt>
      <trkpt lat="42.34697" lon="2.3787">
        <ele>1343</ele>
        <time>2010-01-01T05:21:41Z</time>
      </trkpt>
      <trkpt lat="42.34691" lon="2.37875">
        <ele>1342</ele>
        <time>2010-01-01T05:21:43Z</time>
      </trkpt>
      <trkpt lat="42.34676" lon="2.37884">
        <ele>1341</ele>
        <time>2010-01-01T05:21:50Z</time>
      </trkpt>
      <trkpt lat="42.34664" lon="2.37892">
        <ele>1341</ele>
        <time>2010-01-01T05:21:55Z</time>
      </trkpt>
      <trkpt lat="42.34653" lon="2.37896">
        <ele>1340</ele>
        <time>2010-01-01T05:22:00Z</time>
      </trkpt>
      <trkpt lat="42.34639" lon="2.37905">
        <ele>1340</ele>
        <time>2010-01-01T05:22:06Z</time>
      </trkpt>
      <trkpt lat="42.34634" lon="2.37909">
        <ele>1340</ele>
        <time>2010-01-01T05:22:08Z</time>
      </trkpt>
      <trkpt lat="42.34631" lon="2.37911">
        <ele>1339</ele>
        <time>2010-01-01T05:22:10Z</time>
      </trkpt>
      <trkpt lat="42.34616" lon="2.3792">
        <ele>1339</ele>
        <time>2010-01-01T05:22:16Z</time>
      </trkpt>
      <trkpt lat="42.34614" lon="2.3792">
        <ele>1339</ele>
        <time>2010-01-01T05:22:17Z</time>
      </trkpt>
      <trkpt lat="42.34607" lon="2.37925">
        <ele>1339</ele>
        <time>2010-01-01T05:22:20Z</time>
      </trkpt>
      <trkpt lat="42.34603" lon="2.37929">
        <ele>1338</ele>
        <time>2010-01-01T05:22:22Z</time>
      </trkpt>
      <trkpt lat="42.34597" lon="2.37932">
        <ele>1338</ele>
        <time>2010-01-01T05:22:25Z</time>
      </trkpt>
      <trkpt lat="42.34594" lon="2.37934">
        <ele>1337</ele>
        <time>2010-01-01T05:22:26Z</time>
      </trkpt>
      <trkpt lat="42.3458" lon="2.37943">
        <ele>1336</ele>
        <time>2010-01-01T05:22:32Z</time>
      </trkpt>
      <trkpt lat="42.34566" lon="2.37957">
        <ele>1336</ele>
        <time>2010-01-01T05:22:39Z</time>
      </trkpt>
      <trkpt lat="42.34551" lon="2.37971">
        <ele>1336</ele>
        <time>2010-01-01T05:22:46Z</time>
      </trkpt>
      <trkpt lat="42.34537" lon="2.37979">
        <ele>1337</ele>
        <time>2010-01-01T05:22:53Z</time>
      </trkpt>
      <trkpt lat="42.34538" lon="2.37981">
        <ele>1336</ele>
        <time>2010-01-01T05:22:53Z</time>
      </trkpt>
      <trkpt lat="42.34534" lon="2.37983">
        <ele>1337</ele>
        <time>2010-01-01T05:22:55Z</time>
      </trkpt>
      <trkpt lat="42.34532" lon="2.37985">
        <ele>1337</ele>
        <time>2010-01-01T05:22:56Z</time>
      </trkpt>
      <trkpt lat="42.34529" lon="2.37987">
        <ele>1337</ele>
        <time>2010-01-01T05:22:57Z</time>
      </trkpt>
      <trkpt lat="42.34527" lon="2.37989">
        <ele>1337</ele>
        <time>2010-01-01T05:22:58Z</time>
      </trkpt>
      <trkpt lat="42.34523" lon="2.37992">
        <ele>1337</ele>
        <time>2010-01-01T05:23:00Z</time>
      </trkpt>
      <trkpt lat="42.3452" lon="2.37996">
        <ele>1338</ele>
        <time>2010-01-01T05:23:02Z</time>
      </trkpt>
      <trkpt lat="42.34516" lon="2.38002">
        <ele>1338</ele>
        <time>2010-01-01T05:23:04Z</time>
      </trkpt>
      <trkpt lat="42.34509" lon="2.38013">
        <ele>1339</ele>
        <time>2010-01-01T05:23:09Z</time>
      </trkpt>
      <trkpt lat="42.34504" lon="2.38019">
        <ele>1339</ele>
        <time>2010-01-01T05:23:11Z</time>
      </trkpt>
      <trkpt lat="42.34501" lon="2.38026">
        <ele>1339</ele>
        <time>2010-01-01T05:23:14Z</time>
      </trkpt>
      <trkpt lat="42.34494" lon="2.38033">
        <ele>1339</ele>
        <time>2010-01-01T05:23:17Z</time>
      </trkpt>
      <trkpt lat="42.34489" lon="2.38035">
        <ele>1339</ele>
        <time>2010-01-01T05:23:19Z</time>
      </trkpt>
      <trkpt lat="42.34483" lon="2.38043">
        <ele>1339</ele>
        <time>2010-01-01T05:23:23Z</time>
      </trkpt>
      <trkpt lat="42.34479" lon="2.38047">
        <ele>1339</ele>
        <time>2010-01-01T05:23:24Z</time>
      </trkpt>
      <trkpt lat="42.34473" lon="2.38051">
        <ele>1339</ele>
        <time>2010-01-01T05:23:27Z</time>
      </trkpt>
      <trkpt lat="42.34463" lon="2.38062">
        <ele>1338</ele>
        <time>2010-01-01T05:23:32Z</time>
      </trkpt>
      <trkpt lat="42.34452" lon="2.3807">
        <ele>1339</ele>
        <time>2010-01-01T05:23:37Z</time>
      </trkpt>
      <trkpt lat="42.34449" lon="2.38073">
        <ele>1339</ele>
        <time>2010-01-01T05:23:39Z</time>
      </trkpt>
      <trkpt lat="42.34445" lon="2.38079">
        <ele>1339</ele>
        <time>2010-01-01T05:23:41Z</time>
      </trkpt>
      <trkpt lat="42.34443" lon="2.38078">
        <ele>1339</ele>
        <time>2010-01-01T05:23:42Z</time>
      </trkpt>
      <trkpt lat="42.34442" lon="2.38079">
        <ele>1339</ele>
        <time>2010-01-01T05:23:43Z</time>
      </trkpt>
      <trkpt lat="42.34438" lon="2.38081">
        <ele>1339</ele>
        <time>2010-01-01T05:23:44Z</time>
      </trkpt>
      <trkpt lat="42.34439" lon="2.3808">
        <ele>1339</ele>
        <time>2010-01-01T05:23:44Z</time>
      </trkpt>
      <trkpt lat="42.34438" lon="2.38083">
        <ele>1339</ele>
        <time>2010-01-01T05:23:45Z</time>
      </trkpt>
      <trkpt lat="42.34438" lon="2.38084">
        <ele>1339</ele>
        <time>2010-01-01T05:23:46Z</time>
      </trkpt>
      <trkpt lat="42.34433" lon="2.38087">
        <ele>1339</ele>
        <time>2010-01-01T05:23:48Z</time>
      </trkpt>
      <trkpt lat="42.34433" lon="2.38087">
        <ele>1339</ele>
        <time>2010-01-01T05:23:48Z</time>
      </trkpt>
      <trkpt lat="42.34431" lon="2.38089">
        <ele>1339</ele>
        <time>2010-01-01T05:23:49Z</time>
      </trkpt>
      <trkpt lat="42.34429" lon="2.38089">
        <ele>1339</ele>
        <time>2010-01-01T05:23:50Z</time>
      </trkpt>
      <trkpt lat="42.34426" lon="2.38093">
        <ele>1339</ele>
        <time>2010-01-01T05:23:51Z</time>
      </trkpt>
      <trkpt lat="42.34428" lon="2.38089">
        <ele>1339</ele>
        <time>2010-01-01T05:23:53Z</time>
      </trkpt>
      <trkpt lat="42.34429" lon="2.3809">
        <ele>1339</ele>
        <time>2010-01-01T05:23:53Z</time>
      </trkpt>
      <trkpt lat="42.34431" lon="2.3809">
        <ele>1339</ele>
        <time>2010-01-01T05:23:54Z</time>
      </trkpt>
      <trkpt lat="42.34431" lon="2.3809">
        <ele>1339</ele>
        <time>2010-01-01T05:23:54Z</time>
      </trkpt>
      <trkpt lat="42.34433" lon="2.38088">
        <ele>1339</ele>
        <time>2010-01-01T05:23:55Z</time>
      </trkpt>
      <trkpt lat="42.34432" lon="2.38089">
        <ele>1339</ele>
        <time>2010-01-01T05:23:56Z</time>
      </trkpt>
      <trkpt lat="42.34433" lon="2.38089">
        <ele>1339</ele>
        <time>2010-01-01T05:23:56Z</time>
      </trkpt>
      <trkpt lat="42.34433" lon="2.38089">
        <ele>1339</ele>
        <time>2010-01-01T05:23:57Z</time>
      </trkpt>
      <trkpt lat="42.34433" lon="2.38089">
        <ele>1339</ele>
        <time>2010-01-01T05:23:57Z</time>
      </trkpt>
      <trkpt lat="42.34435" lon="2.38089">
        <ele>1339</ele>
        <time>2010-01-01T05:23:57Z</time>
      </trkpt>
      <trkpt lat="42.34438" lon="2.38083">
        <ele>1339</ele>
        <time>2010-01-01T05:23:59Z</time>
      </trkpt>
      <trkpt lat="42.34437" lon="2.38084">
        <ele>1339</ele>
        <time>2010-01-01T05:24:00Z</time>
      </trkpt>
      <trkpt lat="42.34433" lon="2.38089">
        <ele>1339</ele>
        <time>2010-01-01T05:24:02Z</time>
      </trkpt>
      <trkpt lat="42.34433" lon="2.3809">
        <ele>1339</ele>
        <time>2010-01-01T05:24:02Z</time>
      </trkpt>
      <trkpt lat="42.34433" lon="2.38091">
        <ele>1339</ele>
        <time>2010-01-01T05:24:03Z</time>
      </trkpt>
      <trkpt lat="42.34433" lon="2.38091">
        <ele>1339</ele>
        <time>2010-01-01T05:24:03Z</time>
      </trkpt>
      <trkpt lat="42.34429" lon="2.38092">
        <ele>1339</ele>
        <time>2010-01-01T05:24:04Z</time>
      </trkpt>
      <trkpt lat="42.34428" lon="2.38093">
        <ele>1339</ele>
        <time>2010-01-01T05:24:05Z</time>
      </trkpt>
      <trkpt lat="42.34423" lon="2.38098">
        <ele>1338</ele>
        <time>2010-01-01T05:24:07Z</time>
      </trkpt>
      <trkpt lat="42.34419" lon="2.38104">
        <ele>1338</ele>
        <time>2010-01-01T05:24:09Z</time>
      </trkpt>
      <trkpt lat="42.34417" lon="2.38109">
        <ele>1338</ele>
        <time>2010-01-01T05:24:11Z</time>
      </trkpt>
      <trkpt lat="42.34408" lon="2.38133">
        <ele>1335</ele>
        <time>2010-01-01T05:24:19Z</time>
      </trkpt>
      <trkpt lat="42.34399" lon="2.38154">
        <ele>1333</ele>
        <time>2010-01-01T05:24:26Z</time>
      </trkpt>
      <trkpt lat="42.34398" lon="2.38156">
        <ele>1333</ele>
        <time>2010-01-01T05:24:27Z</time>
      </trkpt>
      <trkpt lat="42.34391" lon="2.38157">
        <ele>1333</ele>
        <time>2010-01-01T05:24:30Z</time>
      </trkpt>
      <trkpt lat="42.34387" lon="2.38152">
        <ele>1333</ele>
        <time>2010-01-01T05:24:32Z</time>
      </trkpt>
      <trkpt lat="42.34385" lon="2.38147">
        <ele>1333</ele>
        <time>2010-01-01T05:24:34Z</time>
      </trkpt>
      <trkpt lat="42.34379" lon="2.38127">
        <ele>1332</ele>
        <time>2010-01-01T05:24:40Z</time>
      </trkpt>
      <trkpt lat="42.34375" lon="2.38114">
        <ele>1332</ele>
        <time>2010-01-01T05:24:44Z</time>
      </trkpt>
      <trkpt lat="42.34375" lon="2.38113">
        <ele>1332</ele>
        <time>2010-01-01T05:24:45Z</time>
      </trkpt>
      <trkpt lat="42.34365" lon="2.38096">
        <ele>1331</ele>
        <time>2010-01-01T05:24:51Z</time>
      </trkpt>
      <trkpt lat="42.34356" lon="2.38075">
        <ele>1331</ele>
        <time>2010-01-01T05:24:58Z</time>
      </trkpt>
      <trkpt lat="42.34353" lon="2.38068">
        <ele>1330</ele>
        <time>2010-01-01T05:25:01Z</time>
      </trkpt>
      <trkpt lat="42.34351" lon="2.38063">
        <ele>1330</ele>
        <time>2010-01-01T05:25:02Z</time>
      </trkpt>
      <trkpt lat="42.34344" lon="2.38053">
        <ele>1330</ele>
        <time>2010-01-01T05:25:06Z</time>
      </trkpt>
      <trkpt lat="42.34341" lon="2.38053">
        <ele>1329</ele>
        <time>2010-01-01T05:25:08Z</time>
      </trkpt>
      <trkpt lat="42.34329" lon="2.38054">
        <ele>1326</ele>
        <time>2010-01-01T05:25:13Z</time>
      </trkpt>
      <trkpt lat="42.34323" lon="2.38056">
        <ele>1325</ele>
        <time>2010-01-01T05:25:15Z</time>
      </trkpt>
      <trkpt lat="42.3432" lon="2.38057">
        <ele>1324</ele>
        <time>2010-01-01T05:25:16Z</time>
      </trkpt>
      <trkpt lat="42.34304" lon="2.38061">
        <ele>1319</ele>
        <time>2010-01-01T05:25:23Z</time>
      </trkpt>
      <trkpt lat="42.34289" lon="2.38068">
        <ele>1313</ele>
        <time>2010-01-01T05:25:29Z</time>
      </trkpt>
      <trkpt lat="42.34279" lon="2.38071">
        <ele>1310</ele>
        <time>2010-01-01T05:25:33Z</time>
      </trkpt>
      <trkpt lat="42.34275" lon="2.38066">
        <ele>1309</ele>
        <time>2010-01-01T05:25:35Z</time>
      </trkpt>
      <trkpt lat="42.34264" lon="2.38051">
        <ele>1308</ele>
        <time>2010-01-01T05:25:41Z</time>
      </trkpt>
      <trkpt lat="42.34254" lon="2.38042">
        <ele>1307</ele>
        <time>2010-01-01T05:25:46Z</time>
      </trkpt>
      <trkpt lat="42.34246" lon="2.38038">
        <ele>1306</ele>
        <time>2010-01-01T05:25:50Z</time>
      </trkpt>
      <trkpt lat="42.34228" lon="2.38025">
        <ele>1304</ele>
        <time>2010-01-01T05:25:58Z</time>
      </trkpt>
      <trkpt lat="42.34214" lon="2.38017">
        <ele>1302</ele>
        <time>2010-01-01T05:26:04Z</time>
      </trkpt>
      <trkpt lat="42.34214" lon="2.38016">
        <ele>1302</ele>
        <time>2010-01-01T05:26:04Z</time>
      </trkpt>
      <trkpt lat="42.34211" lon="2.38015">
        <ele>1301</ele>
        <time>2010-01-01T05:26:05Z</time>
      </trkpt>
      <trkpt lat="42.34207" lon="2.38012">
        <ele>1300</ele>
        <time>2010-01-01T05:26:07Z</time>
      </trkpt>
      <trkpt lat="42.34198" lon="2.38007">
        <ele>1298</ele>
        <time>2010-01-01T05:26:11Z</time>
      </trkpt>
      <trkpt lat="42.34191" lon="2.38003">
        <ele>1296</ele>
        <time>2010-01-01T05:26:14Z</time>
      </trkpt>
      <trkpt lat="42.34172" lon="2.37993">
        <ele>1292</ele>
        <time>2010-01-01T05:26:22Z</time>
      </trkpt>
      <trkpt lat="42.34158" lon="2.37982">
        <ele>1290</ele>
        <time>2010-01-01T05:26:29Z</time>
      </trkpt>
      <trkpt lat="42.34157" lon="2.37979">
        <ele>1290</ele>
        <time>2010-01-01T05:26:30Z</time>
      </trkpt>
      <trkpt lat="42.34154" lon="2.37974">
        <ele>1290</ele>
        <time>2010-01-01T05:26:32Z</time>
      </trkpt>
      <trkpt lat="42.34153" lon="2.3797">
        <ele>1289</ele>
        <time>2010-01-01T05:26:33Z</time>
      </trkpt>
      <trkpt lat="42.34152" lon="2.37964">
        <ele>1288</ele>
        <time>2010-01-01T05:26:35Z</time>
      </trkpt>
      <trkpt lat="42.34151" lon="2.37952">
        <ele>1288</ele>
        <time>2010-01-01T05:26:38Z</time>
      </trkpt>
      <trkpt lat="42.34158" lon="2.3793">
        <ele>1288</ele>
        <time>2010-01-01T05:26:45Z</time>
      </trkpt>
      <trkpt lat="42.34161" lon="2.37918">
        <ele>1288</ele>
        <time>2010-01-01T05:26:49Z</time>
      </trkpt>
      <trkpt lat="42.34163" lon="2.37911">
        <ele>1288</ele>
        <time>2010-01-01T05:26:51Z</time>
      </trkpt>
      <trkpt lat="42.34166" lon="2.37893">
        <ele>1285</ele>
        <time>2010-01-01T05:26:57Z</time>
      </trkpt>
      <trkpt lat="42.34172" lon="2.37875">
        <ele>1286</ele>
        <time>2010-01-01T05:27:03Z</time>
      </trkpt>
      <trkpt lat="42.34172" lon="2.37871">
        <ele>1285</ele>
        <time>2010-01-01T05:27:04Z</time>
      </trkpt>
      <trkpt lat="42.34174" lon="2.37848">
        <ele>1285</ele>
        <time>2010-01-01T05:27:11Z</time>
      </trkpt>
      <trkpt lat="42.34177" lon="2.37823">
        <ele>1287</ele>
        <time>2010-01-01T05:27:18Z</time>
      </trkpt>
      <trkpt lat="42.34176" lon="2.37818">
        <ele>1287</ele>
        <time>2010-01-01T05:27:20Z</time>
      </trkpt>
      <trkpt lat="42.34172" lon="2.37816">
        <ele>1287</ele>
        <time>2010-01-01T05:27:21Z</time>
      </trkpt>
      <trkpt lat="42.3417" lon="2.37816">
        <ele>1286</ele>
        <time>2010-01-01T05:27:22Z</time>
      </trkpt>
      <trkpt lat="42.34161" lon="2.37818">
        <ele>1284</ele>
        <time>2010-01-01T05:27:25Z</time>
      </trkpt>
      <trkpt lat="42.34151" lon="2.37819">
        <ele>1282</ele>
        <time>2010-01-01T05:27:30Z</time>
      </trkpt>
      <trkpt lat="42.3415" lon="2.37819">
        <ele>1282</ele>
        <time>2010-01-01T05:27:30Z</time>
      </trkpt>
      <trkpt lat="42.34151" lon="2.37819">
        <ele>1282</ele>
        <time>2010-01-01T05:27:30Z</time>
      </trkpt>
      <trkpt lat="42.34151" lon="2.37818">
        <ele>1282</ele>
        <time>2010-01-01T05:27:31Z</time>
      </trkpt>
      <trkpt lat="42.34151" lon="2.37817">
        <ele>1283</ele>
        <time>2010-01-01T05:27:31Z</time>
      </trkpt>
      <trkpt lat="42.34152" lon="2.37818">
        <ele>1283</ele>
        <time>2010-01-01T05:27:31Z</time>
      </trkpt>
      <trkpt lat="42.34152" lon="2.37817">
        <ele>1283</ele>
        <time>2010-01-01T05:27:31Z</time>
      </trkpt>
      <trkpt lat="42.34152" lon="2.37817">
        <ele>1283</ele>
        <time>2010-01-01T05:27:31Z</time>
      </trkpt>
      <trkpt lat="42.34152" lon="2.37817">
        <ele>1283</ele>
        <time>2010-01-01T05:27:31Z</time>
      </trkpt>
      <trkpt lat="42.34152" lon="2.37817">
        <ele>1283</ele>
        <time>2010-01-01T05:27:32Z</time>
      </trkpt>
      <trkpt lat="42.34132" lon="2.3782">
        <ele>1279</ele>
        <time>2010-01-01T05:27:40Z</time>
      </trkpt>
      <trkpt lat="42.34119" lon="2.37824">
        <ele>1277</ele>
        <time>2010-01-01T05:27:45Z</time>
      </trkpt>
      <trkpt lat="42.34101" lon="2.3783">
        <ele>1274</ele>
        <time>2010-01-01T05:27:52Z</time>
      </trkpt>
      <trkpt lat="42.34096" lon="2.37831">
        <ele>1274</ele>
        <time>2010-01-01T05:27:54Z</time>
      </trkpt>
      <trkpt lat="42.34077" lon="2.37837">
        <ele>1271</ele>
        <time>2010-01-01T05:28:02Z</time>
      </trkpt>
      <trkpt lat="42.34075" lon="2.37837">
        <ele>1271</ele>
        <time>2010-01-01T05:28:03Z</time>
      </trkpt>
      <trkpt lat="42.3406" lon="2.37841">
        <ele>1268</ele>
        <time>2010-01-01T05:28:09Z</time>
      </trkpt>
      <trkpt lat="42.34044" lon="2.37845">
        <ele>1265</ele>
        <time>2010-01-01T05:28:16Z</time>
      </trkpt>
      <trkpt lat="42.34034" lon="2.37847">
        <ele>1264</ele>
        <time>2010-01-01T05:28:20Z</time>
      </trkpt>
      <trkpt lat="42.34029" lon="2.3785">
        <ele>1263</ele>
        <time>2010-01-01T05:28:22Z</time>
      </trkpt>
      <trkpt lat="42.34016" lon="2.37855">
        <ele>1261</ele>
        <time>2010-01-01T05:28:27Z</time>
      </trkpt>
      <trkpt lat="42.34015" lon="2.37855">
        <ele>1261</ele>
        <time>2010-01-01T05:28:28Z</time>
      </trkpt>
      <trkpt lat="42.33999" lon="2.3786">
        <ele>1259</ele>
        <time>2010-01-01T05:28:34Z</time>
      </trkpt>
      <trkpt lat="42.33987" lon="2.37866">
        <ele>1257</ele>
        <time>2010-01-01T05:28:39Z</time>
      </trkpt>
      <trkpt lat="42.33986" lon="2.37867">
        <ele>1257</ele>
        <time>2010-01-01T05:28:40Z</time>
      </trkpt>
      <trkpt lat="42.33984" lon="2.37868">
        <ele>1256</ele>
        <time>2010-01-01T05:28:41Z</time>
      </trkpt>
      <trkpt lat="42.33972" lon="2.37879">
        <ele>1253</ele>
        <time>2010-01-01T05:28:47Z</time>
      </trkpt>
      <trkpt lat="42.33969" lon="2.3788">
        <ele>1252</ele>
        <time>2010-01-01T05:28:48Z</time>
      </trkpt>
      <trkpt lat="42.3396" lon="2.37888">
        <ele>1249</ele>
        <time>2010-01-01T05:28:52Z</time>
      </trkpt>
      <trkpt lat="42.33955" lon="2.37893">
        <ele>1247</ele>
        <time>2010-01-01T05:28:55Z</time>
      </trkpt>
      <trkpt lat="42.33951" lon="2.37897">
        <ele>1246</ele>
        <time>2010-01-01T05:28:57Z</time>
      </trkpt>
      <trkpt lat="42.33947" lon="2.37898">
        <ele>1246</ele>
        <time>2010-01-01T05:28:58Z</time>
      </trkpt>
      <trkpt lat="42.33932" lon="2.37909">
        <ele>1242</ele>
        <time>2010-01-01T05:29:05Z</time>
      </trkpt>
      <trkpt lat="42.33927" lon="2.37911">
        <ele>1241</ele>
        <time>2010-01-01T05:29:07Z</time>
      </trkpt>
      <trkpt lat="42.33913" lon="2.37913">
        <ele>1239</ele>
        <time>2010-01-01T05:29:13Z</time>
      </trkpt>
      <trkpt lat="42.33909" lon="2.37914">
        <ele>1238</ele>
        <time>2010-01-01T05:29:14Z</time>
      </trkpt>
      <trkpt lat="42.33908" lon="2.37914">
        <ele>1237</ele>
        <time>2010-01-01T05:29:15Z</time>
      </trkpt>
      <trkpt lat="42.33904" lon="2.37925">
        <ele>1235</ele>
        <time>2010-01-01T05:29:18Z</time>
      </trkpt>
      <trkpt lat="42.33899" lon="2.37931">
        <ele>1234</ele>
        <time>2010-01-01T05:29:21Z</time>
      </trkpt>
      <trkpt lat="42.33898" lon="2.37933">
        <ele>1233</ele>
        <time>2010-01-01T05:29:22Z</time>
      </trkpt>
      <trkpt lat="42.33895" lon="2.37939">
        <ele>1232</ele>
        <time>2010-01-01T05:29:24Z</time>
      </trkpt>
      <trkpt lat="42.33895" lon="2.37941">
        <ele>1232</ele>
        <time>2010-01-01T05:29:24Z</time>
      </trkpt>
      <trkpt lat="42.33888" lon="2.37951">
        <ele>1230</ele>
        <time>2010-01-01T05:29:28Z</time>
      </trkpt>
      <trkpt lat="42.33883" lon="2.37961">
        <ele>1228</ele>
        <time>2010-01-01T05:29:32Z</time>
      </trkpt>
      <trkpt lat="42.33877" lon="2.37977">
        <ele>1225</ele>
        <time>2010-01-01T05:29:37Z</time>
      </trkpt>
      <trkpt lat="42.33874" lon="2.37984">
        <ele>1224</ele>
        <time>2010-01-01T05:29:40Z</time>
      </trkpt>
      <trkpt lat="42.33875" lon="2.37993">
        <ele>1223</ele>
        <time>2010-01-01T05:29:42Z</time>
      </trkpt>
      <trkpt lat="42.33868" lon="2.37986">
        <ele>1222</ele>
        <time>2010-01-01T05:29:46Z</time>
      </trkpt>
      <trkpt lat="42.33864" lon="2.37979">
        <ele>1223</ele>
        <time>2010-01-01T05:29:49Z</time>
      </trkpt>
      <trkpt lat="42.33863" lon="2.37979">
        <ele>1223</ele>
        <time>2010-01-01T05:29:49Z</time>
      </trkpt>
      <trkpt lat="42.33859" lon="2.37981">
        <ele>1221</ele>
        <time>2010-01-01T05:29:51Z</time>
      </trkpt>
      <trkpt lat="42.33853" lon="2.37995">
        <ele>1217</ele>
        <time>2010-01-01T05:29:55Z</time>
      </trkpt>
      <trkpt lat="42.33852" lon="2.37997">
        <ele>1217</ele>
        <time>2010-01-01T05:29:56Z</time>
      </trkpt>
      <trkpt lat="42.33852" lon="2.38012">
        <ele>1215</ele>
        <time>2010-01-01T05:30:00Z</time>
      </trkpt>
      <trkpt lat="42.33855" lon="2.38025">
        <ele>1214</ele>
        <time>2010-01-01T05:30:05Z</time>
      </trkpt>
      <trkpt lat="42.33853" lon="2.38031">
        <ele>1213</ele>
        <time>2010-01-01T05:30:07Z</time>
      </trkpt>
      <trkpt lat="42.33846" lon="2.3804">
        <ele>1210</ele>
        <time>2010-01-01T05:30:10Z</time>
      </trkpt>
      <trkpt lat="42.33843" lon="2.38045">
        <ele>1209</ele>
        <time>2010-01-01T05:30:12Z</time>
      </trkpt>
      <trkpt lat="42.33846" lon="2.38044">
        <ele>1210</ele>
        <time>2010-01-01T05:30:13Z</time>
      </trkpt>
      <trkpt lat="42.33846" lon="2.38044">
        <ele>1210</ele>
        <time>2010-01-01T05:30:14Z</time>
      </trkpt>
      <trkpt lat="42.33858" lon="2.38043">
        <ele>1211</ele>
        <time>2010-01-01T05:30:18Z</time>
      </trkpt>
      <trkpt lat="42.33874" lon="2.38045">
        <ele>1212</ele>
        <time>2010-01-01T05:30:25Z</time>
      </trkpt>
      <trkpt lat="42.33881" lon="2.38046">
        <ele>1212</ele>
        <time>2010-01-01T05:30:28Z</time>
      </trkpt>
      <trkpt lat="42.33885" lon="2.38054">
        <ele>1210</ele>
        <time>2010-01-01T05:30:30Z</time>
      </trkpt>
      <trkpt lat="42.33884" lon="2.38056">
        <ele>1209</ele>
        <time>2010-01-01T05:30:31Z</time>
      </trkpt>
      <trkpt lat="42.33875" lon="2.38059">
        <ele>1209</ele>
        <time>2010-01-01T05:30:35Z</time>
      </trkpt>
      <trkpt lat="42.33873" lon="2.38061">
        <ele>1208</ele>
        <time>2010-01-01T05:30:36Z</time>
      </trkpt>
      <trkpt lat="42.33862" lon="2.38067">
        <ele>1207</ele>
        <time>2010-01-01T05:30:41Z</time>
      </trkpt>
      <trkpt lat="42.33855" lon="2.38071">
        <ele>1205</ele>
        <time>2010-01-01T05:30:44Z</time>
      </trkpt>
      <trkpt lat="42.33846" lon="2.38079">
        <ele>1203</ele>
        <time>2010-01-01T05:30:48Z</time>
      </trkpt>
      <trkpt lat="42.3384" lon="2.38085">
        <ele>1202</ele>
        <time>2010-01-01T05:30:51Z</time>
      </trkpt>
      <trkpt lat="42.33838" lon="2.38086">
        <ele>1202</ele>
        <time>2010-01-01T05:30:52Z</time>
      </trkpt>
      <trkpt lat="42.3382" lon="2.38097">
        <ele>1198</ele>
        <time>2010-01-01T05:31:00Z</time>
      </trkpt>
      <trkpt lat="42.33802" lon="2.38106">
        <ele>1196</ele>
        <time>2010-01-01T05:31:07Z</time>
      </trkpt>
      <trkpt lat="42.338" lon="2.38106">
        <ele>1195</ele>
        <time>2010-01-01T05:31:08Z</time>
      </trkpt>
      <trkpt lat="42.33796" lon="2.38107">
        <ele>1195</ele>
        <time>2010-01-01T05:31:10Z</time>
      </trkpt>
      <trkpt lat="42.33781" lon="2.38115">
        <ele>1191</ele>
        <time>2010-01-01T05:31:16Z</time>
      </trkpt>
      <trkpt lat="42.33769" lon="2.38122">
        <ele>1189</ele>
        <time>2010-01-01T05:31:22Z</time>
      </trkpt>
      <trkpt lat="42.33765" lon="2.38124">
        <ele>1188</ele>
        <time>2010-01-01T05:31:23Z</time>
      </trkpt>
      <trkpt lat="42.33752" lon="2.38135">
        <ele>1185</ele>
        <time>2010-01-01T05:31:29Z</time>
      </trkpt>
      <trkpt lat="42.33748" lon="2.38141">
        <ele>1183</ele>
        <time>2010-01-01T05:31:32Z</time>
      </trkpt>
      <trkpt lat="42.33743" lon="2.38148">
        <ele>1181</ele>
        <time>2010-01-01T05:31:35Z</time>
      </trkpt>
      <trkpt lat="42.33732" lon="2.38161">
        <ele>1177</ele>
        <time>2010-01-01T05:31:40Z</time>
      </trkpt>
      <trkpt lat="42.3372" lon="2.38176">
        <ele>1174</ele>
        <time>2010-01-01T05:31:47Z</time>
      </trkpt>
      <trkpt lat="42.33707" lon="2.38191">
        <ele>1173</ele>
        <time>2010-01-01T05:31:54Z</time>
      </trkpt>
      <trkpt lat="42.33695" lon="2.38209">
        <ele>1174</ele>
        <time>2010-01-01T05:32:01Z</time>
      </trkpt>
      <trkpt lat="42.33689" lon="2.38217">
        <ele>1173</ele>
        <time>2010-01-01T05:32:04Z</time>
      </trkpt>
      <trkpt lat="42.33685" lon="2.38223">
        <ele>1173</ele>
        <time>2010-01-01T05:32:07Z</time>
      </trkpt>
      <trkpt lat="42.33679" lon="2.38237">
        <ele>1172</ele>
        <time>2010-01-01T05:32:12Z</time>
      </trkpt>
      <trkpt lat="42.33672" lon="2.38254">
        <ele>1171</ele>
        <time>2010-01-01T05:32:17Z</time>
      </trkpt>
      <trkpt lat="42.33672" lon="2.38257">
        <ele>1171</ele>
        <time>2010-01-01T05:32:18Z</time>
      </trkpt>
      <trkpt lat="42.33666" lon="2.38275">
        <ele>1171</ele>
        <time>2010-01-01T05:32:24Z</time>
      </trkpt>
      <trkpt lat="42.3366" lon="2.38295">
        <ele>1170</ele>
        <time>2010-01-01T05:32:30Z</time>
      </trkpt>
      <trkpt lat="42.33659" lon="2.38299">
        <ele>1169</ele>
        <time>2010-01-01T05:32:32Z</time>
      </trkpt>
      <trkpt lat="42.33647" lon="2.38319">
        <ele>1167</ele>
        <time>2010-01-01T05:32:39Z</time>
      </trkpt>
      <trkpt lat="42.33646" lon="2.38323">
        <ele>1167</ele>
        <time>2010-01-01T05:32:40Z</time>
      </trkpt>
      <trkpt lat="42.33636" lon="2.38342">
        <ele>1165</ele>
        <time>2010-01-01T05:32:47Z</time>
      </trkpt>
      <trkpt lat="42.33627" lon="2.38359">
        <ele>1164</ele>
        <time>2010-01-01T05:32:54Z</time>
      </trkpt>
      <trkpt lat="42.33625" lon="2.38362">
        <ele>1163</ele>
        <time>2010-01-01T05:32:55Z</time>
      </trkpt>
      <trkpt lat="42.33624" lon="2.38365">
        <ele>1163</ele>
        <time>2010-01-01T05:32:56Z</time>
      </trkpt>
      <trkpt lat="42.33616" lon="2.38373">
        <ele>1163</ele>
        <time>2010-01-01T05:33:00Z</time>
      </trkpt>
      <trkpt lat="42.33607" lon="2.38383">
        <ele>1162</ele>
        <time>2010-01-01T05:33:04Z</time>
      </trkpt>
      <trkpt lat="42.33594" lon="2.38395">
        <ele>1161</ele>
        <time>2010-01-01T05:33:11Z</time>
      </trkpt>
      <trkpt lat="42.33589" lon="2.38402">
        <ele>1160</ele>
        <time>2010-01-01T05:33:14Z</time>
      </trkpt>
      <trkpt lat="42.33587" lon="2.38405">
        <ele>1160</ele>
        <time>2010-01-01T05:33:15Z</time>
      </trkpt>
      <trkpt lat="42.33582" lon="2.38413">
        <ele>1160</ele>
        <time>2010-01-01T05:33:18Z</time>
      </trkpt>
      <trkpt lat="42.33578" lon="2.38421">
        <ele>1159</ele>
        <time>2010-01-01T05:33:21Z</time>
      </trkpt>
      <trkpt lat="42.33574" lon="2.38426">
        <ele>1158</ele>
        <time>2010-01-01T05:33:23Z</time>
      </trkpt>
      <trkpt lat="42.33568" lon="2.38438">
        <ele>1157</ele>
        <time>2010-01-01T05:33:27Z</time>
      </trkpt>
      <trkpt lat="42.33558" lon="2.3845">
        <ele>1156</ele>
        <time>2010-01-01T05:33:32Z</time>
      </trkpt>
      <trkpt lat="42.33552" lon="2.38462">
        <ele>1154</ele>
        <time>2010-01-01T05:33:37Z</time>
      </trkpt>
      <trkpt lat="42.33545" lon="2.38475">
        <ele>1153</ele>
        <time>2010-01-01T05:33:42Z</time>
      </trkpt>
      <trkpt lat="42.3354" lon="2.38482">
        <ele>1152</ele>
        <time>2010-01-01T05:33:44Z</time>
      </trkpt>
      <trkpt lat="42.33533" lon="2.3849">
        <ele>1151</ele>
        <time>2010-01-01T05:33:48Z</time>
      </trkpt>
      <trkpt lat="42.33527" lon="2.38495">
        <ele>1151</ele>
        <time>2010-01-01T05:33:51Z</time>
      </trkpt>
      <trkpt lat="42.33516" lon="2.38508">
        <ele>1150</ele>
        <time>2010-01-01T05:33:57Z</time>
      </trkpt>
      <trkpt lat="42.33512" lon="2.38509">
        <ele>1150</ele>
        <time>2010-01-01T05:33:58Z</time>
      </trkpt>
      <trkpt lat="42.33498" lon="2.38526">
        <ele>1151</ele>
        <time>2010-01-01T05:34:06Z</time>
      </trkpt>
      <trkpt lat="42.33484" lon="2.38545">
        <ele>1151</ele>
        <time>2010-01-01T05:34:14Z</time>
      </trkpt>
      <trkpt lat="42.33471" lon="2.38557">
        <ele>1151</ele>
        <time>2010-01-01T05:34:20Z</time>
      </trkpt>
      <trkpt lat="42.33455" lon="2.38563">
        <ele>1150</ele>
        <time>2010-01-01T05:34:27Z</time>
      </trkpt>
      <trkpt lat="42.33438" lon="2.38567">
        <ele>1149</ele>
        <time>2010-01-01T05:34:34Z</time>
      </trkpt>
      <trkpt lat="42.33423" lon="2.38572">
        <ele>1147</ele>
        <time>2010-01-01T05:34:40Z</time>
      </trkpt>
      <trkpt lat="42.33409" lon="2.38578">
        <ele>1146</ele>
        <time>2010-01-01T05:34:46Z</time>
      </trkpt>
      <trkpt lat="42.33399" lon="2.38584">
        <ele>1146</ele>
        <time>2010-01-01T05:34:50Z</time>
      </trkpt>
      <trkpt lat="42.33395" lon="2.38582">
        <ele>1146</ele>
        <time>2010-01-01T05:34:52Z</time>
      </trkpt>
      <trkpt lat="42.33389" lon="2.38578">
        <ele>1145</ele>
        <time>2010-01-01T05:34:54Z</time>
      </trkpt>
      <trkpt lat="42.33389" lon="2.38556">
        <ele>1143</ele>
        <time>2010-01-01T05:35:01Z</time>
      </trkpt>
      <trkpt lat="42.33394" lon="2.38547">
        <ele>1142</ele>
        <time>2010-01-01T05:35:04Z</time>
      </trkpt>
      <trkpt lat="42.33395" lon="2.38543">
        <ele>1142</ele>
        <time>2010-01-01T05:35:06Z</time>
      </trkpt>
      <trkpt lat="42.33398" lon="2.38539">
        <ele>1142</ele>
        <time>2010-01-01T05:35:07Z</time>
      </trkpt>
      <trkpt lat="42.33404" lon="2.38531">
        <ele>1143</ele>
        <time>2010-01-01T05:35:11Z</time>
      </trkpt>
      <trkpt lat="42.33407" lon="2.38527">
        <ele>1143</ele>
        <time>2010-01-01T05:35:12Z</time>
      </trkpt>
      <trkpt lat="42.33415" lon="2.38522">
        <ele>1143</ele>
        <time>2010-01-01T05:35:16Z</time>
      </trkpt>
      <trkpt lat="42.33419" lon="2.38518">
        <ele>1143</ele>
        <time>2010-01-01T05:35:18Z</time>
      </trkpt>
      <trkpt lat="42.33429" lon="2.38504">
        <ele>1142</ele>
        <time>2010-01-01T05:35:24Z</time>
      </trkpt>
      <trkpt lat="42.3343" lon="2.38503">
        <ele>1142</ele>
        <time>2010-01-01T05:35:24Z</time>
      </trkpt>
      <trkpt lat="42.33432" lon="2.38495">
        <ele>1141</ele>
        <time>2010-01-01T05:35:27Z</time>
      </trkpt>
      <trkpt lat="42.33434" lon="2.38489">
        <ele>1140</ele>
        <time>2010-01-01T05:35:28Z</time>
      </trkpt>
      <trkpt lat="42.33441" lon="2.38477">
        <ele>1139</ele>
        <time>2010-01-01T05:35:33Z</time>
      </trkpt>
      <trkpt lat="42.33448" lon="2.38458">
        <ele>1138</ele>
        <time>2010-01-01T05:35:39Z</time>
      </trkpt>
      <trkpt lat="42.33454" lon="2.38446">
        <ele>1137</ele>
        <time>2010-01-01T05:35:44Z</time>
      </trkpt>
      <trkpt lat="42.33458" lon="2.38437">
        <ele>1136</ele>
        <time>2010-01-01T05:35:47Z</time>
      </trkpt>
      <trkpt lat="42.3346" lon="2.38432">
        <ele>1136</ele>
        <time>2010-01-01T05:35:48Z</time>
      </trkpt>
      <trkpt lat="42.33468" lon="2.38417">
        <ele>1137</ele>
        <time>2010-01-01T05:35:54Z</time>
      </trkpt>
      <trkpt lat="42.33469" lon="2.38415">
        <ele>1137</ele>
        <time>2010-01-01T05:35:54Z</time>
      </trkpt>
      <trkpt lat="42.33477" lon="2.38393">
        <ele>1138</ele>
        <time>2010-01-01T05:36:02Z</time>
      </trkpt>
      <trkpt lat="42.33478" lon="2.38391">
        <ele>1138</ele>
        <time>2010-01-01T05:36:03Z</time>
      </trkpt>
      <trkpt lat="42.33481" lon="2.38385">
        <ele>1138</ele>
        <time>2010-01-01T05:36:05Z</time>
      </trkpt>
      <trkpt lat="42.33488" lon="2.38373">
        <ele>1139</ele>
        <time>2010-01-01T05:36:09Z</time>
      </trkpt>
      <trkpt lat="42.3349" lon="2.38371">
        <ele>1139</ele>
        <time>2010-01-01T05:36:10Z</time>
      </trkpt>
      <trkpt lat="42.33495" lon="2.38358">
        <ele>1139</ele>
        <time>2010-01-01T05:36:14Z</time>
      </trkpt>
      <trkpt lat="42.33491" lon="2.38354">
        <ele>1137</ele>
        <time>2010-01-01T05:36:16Z</time>
      </trkpt>
      <trkpt lat="42.33476" lon="2.38368">
        <ele>1135</ele>
        <time>2010-01-01T05:36:24Z</time>
      </trkpt>
      <trkpt lat="42.33464" lon="2.38381">
        <ele>1132</ele>
        <time>2010-01-01T05:36:30Z</time>
      </trkpt>
      <trkpt lat="42.33463" lon="2.38382">
        <ele>1132</ele>
        <time>2010-01-01T05:36:30Z</time>
      </trkpt>
      <trkpt lat="42.33453" lon="2.3839">
        <ele>1128</ele>
        <time>2010-01-01T05:36:35Z</time>
      </trkpt>
      <trkpt lat="42.33446" lon="2.38396">
        <ele>1126</ele>
        <time>2010-01-01T05:36:38Z</time>
      </trkpt>
      <trkpt lat="42.33438" lon="2.38403">
        <ele>1123</ele>
        <time>2010-01-01T05:36:42Z</time>
      </trkpt>
      <trkpt lat="42.3343" lon="2.3841">
        <ele>1121</ele>
        <time>2010-01-01T05:36:46Z</time>
      </trkpt>
      <trkpt lat="42.33415" lon="2.38423">
        <ele>1117</ele>
        <time>2010-01-01T05:36:53Z</time>
      </trkpt>
      <trkpt lat="42.33414" lon="2.38424">
        <ele>1117</ele>
        <time>2010-01-01T05:36:54Z</time>
      </trkpt>
      <trkpt lat="42.33408" lon="2.38429">
        <ele>1116</ele>
        <time>2010-01-01T05:36:57Z</time>
      </trkpt>
      <trkpt lat="42.334" lon="2.38439">
        <ele>1115</ele>
        <time>2010-01-01T05:37:01Z</time>
      </trkpt>
      <trkpt lat="42.33391" lon="2.38447">
        <ele>1114</ele>
        <time>2010-01-01T05:37:05Z</time>
      </trkpt>
      <trkpt lat="42.33386" lon="2.3845">
        <ele>1114</ele>
        <time>2010-01-01T05:37:07Z</time>
      </trkpt>
      <trkpt lat="42.33372" lon="2.38459">
        <ele>1114</ele>
        <time>2010-01-01T05:37:13Z</time>
      </trkpt>
      <trkpt lat="42.33355" lon="2.38471">
        <ele>1114</ele>
        <time>2010-01-01T05:37:21Z</time>
      </trkpt>
      <trkpt lat="42.33345" lon="2.3848">
        <ele>1115</ele>
        <time>2010-01-01T05:37:26Z</time>
      </trkpt>
      <trkpt lat="42.33343" lon="2.38481">
        <ele>1116</ele>
        <time>2010-01-01T05:37:27Z</time>
      </trkpt>
      <trkpt lat="42.33329" lon="2.38489">
        <ele>1116</ele>
        <time>2010-01-01T05:37:33Z</time>
      </trkpt>
      <trkpt lat="42.33323" lon="2.38493">
        <ele>1116</ele>
        <time>2010-01-01T05:37:36Z</time>
      </trkpt>
      <trkpt lat="42.33319" lon="2.38495">
        <ele>1116</ele>
        <time>2010-01-01T05:37:37Z</time>
      </trkpt>
      <trkpt lat="42.33306" lon="2.38501">
        <ele>1115</ele>
        <time>2010-01-01T05:37:43Z</time>
      </trkpt>
      <trkpt lat="42.33299" lon="2.38505">
        <ele>1114</ele>
        <time>2010-01-01T05:37:46Z</time>
      </trkpt>
      <trkpt lat="42.33293" lon="2.38505">
        <ele>1114</ele>
        <time>2010-01-01T05:37:48Z</time>
      </trkpt>
      <trkpt lat="42.33275" lon="2.38506">
        <ele>1111</ele>
        <time>2010-01-01T05:37:55Z</time>
      </trkpt>
      <trkpt lat="42.33273" lon="2.38503">
        <ele>1110</ele>
        <time>2010-01-01T05:37:56Z</time>
      </trkpt>
      <trkpt lat="42.33275" lon="2.38502">
        <ele>1110</ele>
        <time>2010-01-01T05:37:57Z</time>
      </trkpt>
      <trkpt lat="42.33277" lon="2.38502">
        <ele>1110</ele>
        <time>2010-01-01T05:37:58Z</time>
      </trkpt>
      <trkpt lat="42.33277" lon="2.385">
        <ele>1109</ele>
        <time>2010-01-01T05:37:58Z</time>
      </trkpt>
      <trkpt lat="42.33276" lon="2.38501">
        <ele>1110</ele>
        <time>2010-01-01T05:37:59Z</time>
      </trkpt>
      <trkpt lat="42.33276" lon="2.38503">
        <ele>1110</ele>
        <time>2010-01-01T05:37:59Z</time>
      </trkpt>
      <trkpt lat="42.33278" lon="2.38502">
        <ele>1110</ele>
        <time>2010-01-01T05:38:00Z</time>
      </trkpt>
      <trkpt lat="42.33286" lon="2.38491">
        <ele>1108</ele>
        <time>2010-01-01T05:38:04Z</time>
      </trkpt>
      <trkpt lat="42.33301" lon="2.38473">
        <ele>1106</ele>
        <time>2010-01-01T05:38:13Z</time>
      </trkpt>
      <trkpt lat="42.33313" lon="2.38458">
        <ele>1102</ele>
        <time>2010-01-01T05:38:19Z</time>
      </trkpt>
      <trkpt lat="42.3332" lon="2.38452">
        <ele>1101</ele>
        <time>2010-01-01T05:38:22Z</time>
      </trkpt>
      <trkpt lat="42.3332" lon="2.38454">
        <ele>1102</ele>
        <time>2010-01-01T05:38:23Z</time>
      </trkpt>
      <trkpt lat="42.33322" lon="2.38457">
        <ele>1103</ele>
        <time>2010-01-01T05:38:24Z</time>
      </trkpt>
      <trkpt lat="42.33322" lon="2.38457">
        <ele>1104</ele>
        <time>2010-01-01T05:38:24Z</time>
      </trkpt>
      <trkpt lat="42.33325" lon="2.38454">
        <ele>1103</ele>
        <time>2010-01-01T05:38:26Z</time>
      </trkpt>
      <trkpt lat="42.33328" lon="2.38452">
        <ele>1102</ele>
        <time>2010-01-01T05:38:27Z</time>
      </trkpt>
      <trkpt lat="42.33333" lon="2.38447">
        <ele>1101</ele>
        <time>2010-01-01T05:38:30Z</time>
      </trkpt>
      <trkpt lat="42.33336" lon="2.38443">
        <ele>1100</ele>
        <time>2010-01-01T05:38:31Z</time>
      </trkpt>
      <trkpt lat="42.33338" lon="2.3844">
        <ele>1099</ele>
        <time>2010-01-01T05:38:32Z</time>
      </trkpt>
      <trkpt lat="42.33342" lon="2.38436">
        <ele>1099</ele>
        <time>2010-01-01T05:38:34Z</time>
      </trkpt>
      <trkpt lat="42.33349" lon="2.38429">
        <ele>1098</ele>
        <time>2010-01-01T05:38:38Z</time>
      </trkpt>
      <trkpt lat="42.33352" lon="2.38428">
        <ele>1098</ele>
        <time>2010-01-01T05:38:39Z</time>
      </trkpt>
      <trkpt lat="42.33361" lon="2.38408">
        <ele>1094</ele>
        <time>2010-01-01T05:38:46Z</time>
      </trkpt>
      <trkpt lat="42.33362" lon="2.38407">
        <ele>1094</ele>
        <time>2010-01-01T05:38:47Z</time>
      </trkpt>
      <trkpt lat="42.33369" lon="2.38397">
        <ele>1093</ele>
        <time>2010-01-01T05:38:51Z</time>
      </trkpt>
      <trkpt lat="42.3337" lon="2.38395">
        <ele>1092</ele>
        <time>2010-01-01T05:38:51Z</time>
      </trkpt>
      <trkpt lat="42.3338" lon="2.38377">
        <ele>1092</ele>
        <time>2010-01-01T05:38:58Z</time>
      </trkpt>
      <trkpt lat="42.33386" lon="2.38369">
        <ele>1093</ele>
        <time>2010-01-01T05:39:01Z</time>
      </trkpt>
      <trkpt lat="42.33392" lon="2.38352">
        <ele>1092</ele>
        <time>2010-01-01T05:39:07Z</time>
      </trkpt>
      <trkpt lat="42.33392" lon="2.3835">
        <ele>1092</ele>
        <time>2010-01-01T05:39:07Z</time>
      </trkpt>
      <trkpt lat="42.33394" lon="2.38338">
        <ele>1091</ele>
        <time>2010-01-01T05:39:11Z</time>
      </trkpt>
      <trkpt lat="42.33399" lon="2.38324">
        <ele>1090</ele>
        <time>2010-01-01T05:39:16Z</time>
      </trkpt>
      <trkpt lat="42.33404" lon="2.38304">
        <ele>1088</ele>
        <time>2010-01-01T05:39:22Z</time>
      </trkpt>
      <trkpt lat="42.33404" lon="2.38288">
        <ele>1085</ele>
        <time>2010-01-01T05:39:27Z</time>
      </trkpt>
      <trkpt lat="42.33412" lon="2.38268">
        <ele>1083</ele>
        <time>2010-01-01T05:39:33Z</time>
      </trkpt>
      <trkpt lat="42.33414" lon="2.38259">
        <ele>1082</ele>
        <time>2010-01-01T05:39:36Z</time>
      </trkpt>
      <trkpt lat="42.33415" lon="2.38257">
        <ele>1081</ele>
        <time>2010-01-01T05:39:37Z</time>
      </trkpt>
      <trkpt lat="42.33415" lon="2.38244">
        <ele>1080</ele>
        <time>2010-01-01T05:39:41Z</time>
      </trkpt>
      <trkpt lat="42.33415" lon="2.38238">
        <ele>1080</ele>
        <time>2010-01-01T05:39:43Z</time>
      </trkpt>
      <trkpt lat="42.33416" lon="2.3823">
        <ele>1080</ele>
        <time>2010-01-01T05:39:45Z</time>
      </trkpt>
      <trkpt lat="42.33416" lon="2.38227">
        <ele>1080</ele>
        <time>2010-01-01T05:39:46Z</time>
      </trkpt>
      <trkpt lat="42.33416" lon="2.38215">
        <ele>1081</ele>
        <time>2010-01-01T05:39:49Z</time>
      </trkpt>
      <trkpt lat="42.33421" lon="2.38204">
        <ele>1084</ele>
        <time>2010-01-01T05:39:53Z</time>
      </trkpt>
      <trkpt lat="42.33427" lon="2.38191">
        <ele>1088</ele>
        <time>2010-01-01T05:39:58Z</time>
      </trkpt>
      <trkpt lat="42.33428" lon="2.38186">
        <ele>1089</ele>
        <time>2010-01-01T05:39:59Z</time>
      </trkpt>
      <trkpt lat="42.3343" lon="2.3817">
        <ele>1091</ele>
        <time>2010-01-01T05:40:04Z</time>
      </trkpt>
      <trkpt lat="42.33431" lon="2.38167">
        <ele>1092</ele>
        <time>2010-01-01T05:40:05Z</time>
      </trkpt>
      <trkpt lat="42.33435" lon="2.38158">
        <ele>1091</ele>
        <time>2010-01-01T05:40:08Z</time>
      </trkpt>
      <trkpt lat="42.33435" lon="2.38149">
        <ele>1091</ele>
        <time>2010-01-01T05:40:11Z</time>
      </trkpt>
      <trkpt lat="42.33432" lon="2.38147">
        <ele>1091</ele>
        <time>2010-01-01T05:40:12Z</time>
      </trkpt>
      <trkpt lat="42.3343" lon="2.38148">
        <ele>1090</ele>
        <time>2010-01-01T05:40:13Z</time>
      </trkpt>
      <trkpt lat="42.33427" lon="2.38156">
        <ele>1091</ele>
        <time>2010-01-01T05:40:15Z</time>
      </trkpt>
      <trkpt lat="42.33423" lon="2.38163">
        <ele>1090</ele>
        <time>2010-01-01T05:40:18Z</time>
      </trkpt>
      <trkpt lat="42.33416" lon="2.38169">
        <ele>1089</ele>
        <time>2010-01-01T05:40:22Z</time>
      </trkpt>
      <trkpt lat="42.33414" lon="2.38169">
        <ele>1089</ele>
        <time>2010-01-01T05:40:22Z</time>
      </trkpt>
      <trkpt lat="42.3341" lon="2.38177">
        <ele>1087</ele>
        <time>2010-01-01T05:40:25Z</time>
      </trkpt>
      <trkpt lat="42.33411" lon="2.38178">
        <ele>1087</ele>
        <time>2010-01-01T05:40:25Z</time>
      </trkpt>
      <trkpt lat="42.3341" lon="2.38181">
        <ele>1087</ele>
        <time>2010-01-01T05:40:26Z</time>
      </trkpt>
      <trkpt lat="42.33408" lon="2.38188">
        <ele>1085</ele>
        <time>2010-01-01T05:40:29Z</time>
      </trkpt>
      <trkpt lat="42.33401" lon="2.38206">
        <ele>1082</ele>
        <time>2010-01-01T05:40:35Z</time>
      </trkpt>
      <trkpt lat="42.33391" lon="2.38211">
        <ele>1081</ele>
        <time>2010-01-01T05:40:39Z</time>
      </trkpt>
      <trkpt lat="42.33385" lon="2.38218">
        <ele>1080</ele>
        <time>2010-01-01T05:40:42Z</time>
      </trkpt>
      <trkpt lat="42.33384" lon="2.38221">
        <ele>1080</ele>
        <time>2010-01-01T05:40:43Z</time>
      </trkpt>
      <trkpt lat="42.33372" lon="2.38233">
        <ele>1081</ele>
        <time>2010-01-01T05:40:49Z</time>
      </trkpt>
      <trkpt lat="42.33366" lon="2.38237">
        <ele>1081</ele>
        <time>2010-01-01T05:40:52Z</time>
      </trkpt>
      <trkpt lat="42.33362" lon="2.38243">
        <ele>1081</ele>
        <time>2010-01-01T05:40:54Z</time>
      </trkpt>
      <trkpt lat="42.33356" lon="2.38246">
        <ele>1081</ele>
        <time>2010-01-01T05:40:57Z</time>
      </trkpt>
      <trkpt lat="42.33351" lon="2.38247">
        <ele>1082</ele>
        <time>2010-01-01T05:40:59Z</time>
      </trkpt>
      <trkpt lat="42.33347" lon="2.38249">
        <ele>1082</ele>
        <time>2010-01-01T05:41:00Z</time>
      </trkpt>
      <trkpt lat="42.33344" lon="2.38249">
        <ele>1083</ele>
        <time>2010-01-01T05:41:02Z</time>
      </trkpt>
      <trkpt lat="42.33336" lon="2.38252">
        <ele>1084</ele>
        <time>2010-01-01T05:41:05Z</time>
      </trkpt>
      <trkpt lat="42.33328" lon="2.38264">
        <ele>1081</ele>
        <time>2010-01-01T05:41:10Z</time>
      </trkpt>
      <trkpt lat="42.33323" lon="2.38268">
        <ele>1080</ele>
        <time>2010-01-01T05:41:12Z</time>
      </trkpt>
      <trkpt lat="42.33318" lon="2.38273">
        <ele>1078</ele>
        <time>2010-01-01T05:41:14Z</time>
      </trkpt>
      <trkpt lat="42.33306" lon="2.38277">
        <ele>1078</ele>
        <time>2010-01-01T05:41:19Z</time>
      </trkpt>
      <trkpt lat="42.33297" lon="2.38282">
        <ele>1076</ele>
        <time>2010-01-01T05:41:23Z</time>
      </trkpt>
      <trkpt lat="42.33293" lon="2.38283">
        <ele>1076</ele>
        <time>2010-01-01T05:41:25Z</time>
      </trkpt>
      <trkpt lat="42.33275" lon="2.38282">
        <ele>1077</ele>
        <time>2010-01-01T05:41:32Z</time>
      </trkpt>
      <trkpt lat="42.33265" lon="2.3828">
        <ele>1078</ele>
        <time>2010-01-01T05:41:36Z</time>
      </trkpt>
      <trkpt lat="42.33261" lon="2.38279">
        <ele>1078</ele>
        <time>2010-01-01T05:41:38Z</time>
      </trkpt>
      <trkpt lat="42.33258" lon="2.38279">
        <ele>1078</ele>
        <time>2010-01-01T05:41:39Z</time>
      </trkpt>
      <trkpt lat="42.33258" lon="2.38279">
        <ele>1078</ele>
        <time>2010-01-01T05:41:39Z</time>
      </trkpt>
      <trkpt lat="42.33255" lon="2.38279">
        <ele>1078</ele>
        <time>2010-01-01T05:41:40Z</time>
      </trkpt>
      <trkpt lat="42.33253" lon="2.38277">
        <ele>1079</ele>
        <time>2010-01-01T05:41:41Z</time>
      </trkpt>
      <trkpt lat="42.33251" lon="2.38275">
        <ele>1079</ele>
        <time>2010-01-01T05:41:43Z</time>
      </trkpt>
      <trkpt lat="42.33249" lon="2.38273">
        <ele>1080</ele>
        <time>2010-01-01T05:41:43Z</time>
      </trkpt>
      <trkpt lat="42.33243" lon="2.38271">
        <ele>1080</ele>
        <time>2010-01-01T05:41:46Z</time>
      </trkpt>
      <trkpt lat="42.33241" lon="2.38269">
        <ele>1081</ele>
        <time>2010-01-01T05:41:47Z</time>
      </trkpt>
      <trkpt lat="42.33237" lon="2.38264">
        <ele>1082</ele>
        <time>2010-01-01T05:41:49Z</time>
      </trkpt>
      <trkpt lat="42.33226" lon="2.38253">
        <ele>1084</ele>
        <time>2010-01-01T05:41:55Z</time>
      </trkpt>
      <trkpt lat="42.33221" lon="2.38248">
        <ele>1085</ele>
        <time>2010-01-01T05:41:57Z</time>
      </trkpt>
      <trkpt lat="42.33213" lon="2.38239">
        <ele>1086</ele>
        <time>2010-01-01T05:42:01Z</time>
      </trkpt>
      <trkpt lat="42.33209" lon="2.38235">
        <ele>1087</ele>
        <time>2010-01-01T05:42:03Z</time>
      </trkpt>
      <trkpt lat="42.33206" lon="2.38224">
        <ele>1089</ele>
        <time>2010-01-01T05:42:06Z</time>
      </trkpt>
      <trkpt lat="42.33205" lon="2.38221">
        <ele>1089</ele>
        <time>2010-01-01T05:42:07Z</time>
      </trkpt>
      <trkpt lat="42.33204" lon="2.38219">
        <ele>1090</ele>
        <time>2010-01-01T05:42:08Z</time>
      </trkpt>
      <trkpt lat="42.33203" lon="2.38218">
        <ele>1090</ele>
        <time>2010-01-01T05:42:09Z</time>
      </trkpt>
      <trkpt lat="42.33199" lon="2.38215">
        <ele>1090</ele>
        <time>2010-01-01T05:42:11Z</time>
      </trkpt>
      <trkpt lat="42.33188" lon="2.38205">
        <ele>1092</ele>
        <time>2010-01-01T05:42:16Z</time>
      </trkpt>
      <trkpt lat="42.33186" lon="2.38204">
        <ele>1092</ele>
        <time>2010-01-01T05:42:17Z</time>
      </trkpt>
      <trkpt lat="42.33177" lon="2.38199">
        <ele>1093</ele>
        <time>2010-01-01T05:42:21Z</time>
      </trkpt>
      <trkpt lat="42.33173" lon="2.38196">
        <ele>1094</ele>
        <time>2010-01-01T05:42:22Z</time>
      </trkpt>
      <trkpt lat="42.33161" lon="2.38192">
        <ele>1095</ele>
        <time>2010-01-01T05:42:27Z</time>
      </trkpt>
      <trkpt lat="42.33155" lon="2.38188">
        <ele>1096</ele>
        <time>2010-01-01T05:42:30Z</time>
      </trkpt>
      <trkpt lat="42.33148" lon="2.38186">
        <ele>1097</ele>
        <time>2010-01-01T05:42:33Z</time>
      </trkpt>
      <trkpt lat="42.33145" lon="2.38185">
        <ele>1097</ele>
        <time>2010-01-01T05:42:34Z</time>
      </trkpt>
      <trkpt lat="42.33138" lon="2.38183">
        <ele>1098</ele>
        <time>2010-01-01T05:42:37Z</time>
      </trkpt>
      <trkpt lat="42.33131" lon="2.3818">
        <ele>1099</ele>
        <time>2010-01-01T05:42:40Z</time>
      </trkpt>
      <trkpt lat="42.33118" lon="2.38176">
        <ele>1100</ele>
        <time>2010-01-01T05:42:45Z</time>
      </trkpt>
      <trkpt lat="42.33116" lon="2.38176">
        <ele>1101</ele>
        <time>2010-01-01T05:42:46Z</time>
      </trkpt>
      <trkpt lat="42.3311" lon="2.38176">
        <ele>1101</ele>
        <time>2010-01-01T05:42:49Z</time>
      </trkpt>
      <trkpt lat="42.33101" lon="2.38176">
        <ele>1100</ele>
        <time>2010-01-01T05:42:52Z</time>
      </trkpt>
      <trkpt lat="42.33092" lon="2.38173">
        <ele>1100</ele>
        <time>2010-01-01T05:42:56Z</time>
      </trkpt>
      <trkpt lat="42.3309" lon="2.3817">
        <ele>1100</ele>
        <time>2010-01-01T05:42:57Z</time>
      </trkpt>
      <trkpt lat="42.33087" lon="2.38167">
        <ele>1101</ele>
        <time>2010-01-01T05:42:58Z</time>
      </trkpt>
      <trkpt lat="42.33085" lon="2.38164">
        <ele>1101</ele>
        <time>2010-01-01T05:43:00Z</time>
      </trkpt>
      <trkpt lat="42.33081" lon="2.38155">
        <ele>1101</ele>
        <time>2010-01-01T05:43:03Z</time>
      </trkpt>
      <trkpt lat="42.3308" lon="2.38155">
        <ele>1101</ele>
        <time>2010-01-01T05:43:03Z</time>
      </trkpt>
      <trkpt lat="42.3308" lon="2.38155">
        <ele>1101</ele>
        <time>2010-01-01T05:43:03Z</time>
      </trkpt>
      <trkpt lat="42.3308" lon="2.38154">
        <ele>1101</ele>
        <time>2010-01-01T05:43:03Z</time>
      </trkpt>
      <trkpt lat="42.3308" lon="2.38154">
        <ele>1101</ele>
        <time>2010-01-01T05:43:04Z</time>
      </trkpt>
      <trkpt lat="42.33081" lon="2.38154">
        <ele>1101</ele>
        <time>2010-01-01T05:43:04Z</time>
      </trkpt>
      <trkpt lat="42.33082" lon="2.38152">
        <ele>1101</ele>
        <time>2010-01-01T05:43:04Z</time>
      </trkpt>
      <trkpt lat="42.33081" lon="2.38153">
        <ele>1101</ele>
        <time>2010-01-01T05:43:05Z</time>
      </trkpt>
      <trkpt lat="42.33081" lon="2.38152">
        <ele>1101</ele>
        <time>2010-01-01T05:43:05Z</time>
      </trkpt>
      <trkpt lat="42.33082" lon="2.38151">
        <ele>1101</ele>
        <time>2010-01-01T05:43:05Z</time>
      </trkpt>
      <trkpt lat="42.33081" lon="2.38149">
        <ele>1101</ele>
        <time>2010-01-01T05:43:06Z</time>
      </trkpt>
      <trkpt lat="42.33082" lon="2.38153">
        <ele>1101</ele>
        <time>2010-01-01T05:43:07Z</time>
      </trkpt>
      <trkpt lat="42.33081" lon="2.38152">
        <ele>1101</ele>
        <time>2010-01-01T05:43:08Z</time>
      </trkpt>
      <trkpt lat="42.33081" lon="2.38152">
        <ele>1101</ele>
        <time>2010-01-01T05:43:08Z</time>
      </trkpt>
      <trkpt lat="42.33079" lon="2.38146">
        <ele>1101</ele>
        <time>2010-01-01T05:43:10Z</time>
      </trkpt>
      <trkpt lat="42.33078" lon="2.38139">
        <ele>1101</ele>
        <time>2010-01-01T05:43:12Z</time>
      </trkpt>
      <trkpt lat="42.33078" lon="2.38133">
        <ele>1102</ele>
        <time>2010-01-01T05:43:13Z</time>
      </trkpt>
      <trkpt lat="42.33078" lon="2.38133">
        <ele>1102</ele>
        <time>2010-01-01T05:43:14Z</time>
      </trkpt>
      <trkpt lat="42.33077" lon="2.3813">
        <ele>1102</ele>
        <time>2010-01-01T05:43:14Z</time>
      </trkpt>
      <trkpt lat="42.33078" lon="2.38129">
        <ele>1102</ele>
        <time>2010-01-01T05:43:15Z</time>
      </trkpt>
      <trkpt lat="42.33078" lon="2.38129">
        <ele>1102</ele>
        <time>2010-01-01T05:43:15Z</time>
      </trkpt>
      <trkpt lat="42.33078" lon="2.38129">
        <ele>1102</ele>
        <time>2010-01-01T05:43:15Z</time>
      </trkpt>
      <trkpt lat="42.33077" lon="2.3813">
        <ele>1102</ele>
        <time>2010-01-01T05:43:16Z</time>
      </trkpt>
      <trkpt lat="42.33082" lon="2.38129">
        <ele>1103</ele>
        <time>2010-01-01T05:43:18Z</time>
      </trkpt>
      <trkpt lat="42.33082" lon="2.38128">
        <ele>1104</ele>
        <time>2010-01-01T05:43:18Z</time>
      </trkpt>
      <trkpt lat="42.33083" lon="2.38127">
        <ele>1104</ele>
        <time>2010-01-01T05:43:18Z</time>
      </trkpt>
      <trkpt lat="42.33083" lon="2.38127">
        <ele>1104</ele>
        <time>2010-01-01T05:43:18Z</time>
      </trkpt>
      <trkpt lat="42.33083" lon="2.38128">
        <ele>1104</ele>
        <time>2010-01-01T05:43:19Z</time>
      </trkpt>
      <trkpt lat="42.33083" lon="2.38127">
        <ele>1104</ele>
        <time>2010-01-01T05:43:19Z</time>
      </trkpt>
      <trkpt lat="42.33084" lon="2.38127">
        <ele>1104</ele>
        <time>2010-01-01T05:43:19Z</time>
      </trkpt>
      <trkpt lat="42.33083" lon="2.38127">
        <ele>1104</ele>
        <time>2010-01-01T05:43:19Z</time>
      </trkpt>
      <trkpt lat="42.33083" lon="2.38126">
        <ele>1104</ele>
        <time>2010-01-01T05:43:19Z</time>
      </trkpt>
      <trkpt lat="42.33083" lon="2.38126">
        <ele>1104</ele>
        <time>2010-01-01T05:43:20Z</time>
      </trkpt>
      <trkpt lat="42.33077" lon="2.3813">
        <ele>1102</ele>
        <time>2010-01-01T05:43:23Z</time>
      </trkpt>
      <trkpt lat="42.33077" lon="2.3813">
        <ele>1102</ele>
        <time>2010-01-01T05:43:23Z</time>
      </trkpt>
      <trkpt lat="42.33077" lon="2.38129">
        <ele>1102</ele>
        <time>2010-01-01T05:43:23Z</time>
      </trkpt>
      <trkpt lat="42.33077" lon="2.38129">
        <ele>1102</ele>
        <time>2010-01-01T05:43:23Z</time>
      </trkpt>
      <trkpt lat="42.33076" lon="2.38129">
        <ele>1102</ele>
        <time>2010-01-01T05:43:23Z</time>
      </trkpt>
      <trkpt lat="42.33076" lon="2.38129">
        <ele>1102</ele>
        <time>2010-01-01T05:43:24Z</time>
      </trkpt>
      <trkpt lat="42.33076" lon="2.38129">
        <ele>1102</ele>
        <time>2010-01-01T05:43:24Z</time>
      </trkpt>
      <trkpt lat="42.33076" lon="2.38129">
        <ele>1102</ele>
        <time>2010-01-01T05:43:24Z</time>
      </trkpt>
      <trkpt lat="42.33076" lon="2.38129">
        <ele>1102</ele>
        <time>2010-01-01T05:43:24Z</time>
      </trkpt>
      <trkpt lat="42.33077" lon="2.38126">
        <ele>1102</ele>
        <time>2010-01-01T05:43:25Z</time>
      </trkpt>
      <trkpt lat="42.33073" lon="2.38126">
        <ele>1101</ele>
        <time>2010-01-01T05:43:26Z</time>
      </trkpt>
      <trkpt lat="42.3307" lon="2.38123">
        <ele>1101</ele>
        <time>2010-01-01T05:43:28Z</time>
      </trkpt>
      <trkpt lat="42.33066" lon="2.3812">
        <ele>1100</ele>
        <time>2010-01-01T05:43:29Z</time>
      </trkpt>
      <trkpt lat="42.33058" lon="2.38108">
        <ele>1099</ele>
        <time>2010-01-01T05:43:34Z</time>
      </trkpt>
      <trkpt lat="42.3305" lon="2.38095">
        <ele>1098</ele>
        <time>2010-01-01T05:43:39Z</time>
      </trkpt>
      <trkpt lat="42.33039" lon="2.38085">
        <ele>1097</ele>
        <time>2010-01-01T05:43:44Z</time>
      </trkpt>
      <trkpt lat="42.33028" lon="2.38081">
        <ele>1096</ele>
        <time>2010-01-01T05:43:49Z</time>
      </trkpt>
      <trkpt lat="42.33014" lon="2.38079">
        <ele>1096</ele>
        <time>2010-01-01T05:43:55Z</time>
      </trkpt>
      <trkpt lat="42.33009" lon="2.38081">
        <ele>1096</ele>
        <time>2010-01-01T05:43:57Z</time>
      </trkpt>
      <trkpt lat="42.33" lon="2.38084">
        <ele>1094</ele>
        <time>2010-01-01T05:44:01Z</time>
      </trkpt>
      <trkpt lat="42.32999" lon="2.38084">
        <ele>1094</ele>
        <time>2010-01-01T05:44:01Z</time>
      </trkpt>
      <trkpt lat="42.32999" lon="2.38086">
        <ele>1094</ele>
        <time>2010-01-01T05:44:01Z</time>
      </trkpt>
      <trkpt lat="42.32996" lon="2.38084">
        <ele>1095</ele>
        <time>2010-01-01T05:44:03Z</time>
      </trkpt>
      <trkpt lat="42.32994" lon="2.38085">
        <ele>1095</ele>
        <time>2010-01-01T05:44:03Z</time>
      </trkpt>
      <trkpt lat="42.32982" lon="2.38093">
        <ele>1094</ele>
        <time>2010-01-01T05:44:09Z</time>
      </trkpt>
      <trkpt lat="42.3298" lon="2.38096">
        <ele>1094</ele>
        <time>2010-01-01T05:44:10Z</time>
      </trkpt>
      <trkpt lat="42.3296" lon="2.38107">
        <ele>1092</ele>
        <time>2010-01-01T05:44:18Z</time>
      </trkpt>
      <trkpt lat="42.32957" lon="2.38109">
        <ele>1092</ele>
        <time>2010-01-01T05:44:20Z</time>
      </trkpt>
      <trkpt lat="42.32942" lon="2.38107">
        <ele>1094</ele>
        <time>2010-01-01T05:44:26Z</time>
      </trkpt>
      <trkpt lat="42.32938" lon="2.38112">
        <ele>1093</ele>
        <time>2010-01-01T05:44:28Z</time>
      </trkpt>
      <trkpt lat="42.32934" lon="2.38133">
        <ele>1086</ele>
        <time>2010-01-01T05:44:34Z</time>
      </trkpt>
      <trkpt lat="42.32933" lon="2.38137">
        <ele>1084</ele>
        <time>2010-01-01T05:44:36Z</time>
      </trkpt>
      <trkpt lat="42.32928" lon="2.38159">
        <ele>1078</ele>
        <time>2010-01-01T05:44:42Z</time>
      </trkpt>
      <trkpt lat="42.32922" lon="2.38177">
        <ele>1074</ele>
        <time>2010-01-01T05:44:48Z</time>
      </trkpt>
      <trkpt lat="42.32909" lon="2.38197">
        <ele>1071</ele>
        <time>2010-01-01T05:44:56Z</time>
      </trkpt>
      <trkpt lat="42.32902" lon="2.38204">
        <ele>1070</ele>
        <time>2010-01-01T05:45:00Z</time>
      </trkpt>
      <trkpt lat="42.32899" lon="2.38207">
        <ele>1069</ele>
        <time>2010-01-01T05:45:01Z</time>
      </trkpt>
      <trkpt lat="42.32884" lon="2.38214">
        <ele>1068</ele>
        <time>2010-01-01T05:45:08Z</time>
      </trkpt>
      <trkpt lat="42.32867" lon="2.38222">
        <ele>1065</ele>
        <time>2010-01-01T05:45:15Z</time>
      </trkpt>
      <trkpt lat="42.32855" lon="2.38228">
        <ele>1062</ele>
        <time>2010-01-01T05:45:20Z</time>
      </trkpt>
      <trkpt lat="42.32851" lon="2.38231">
        <ele>1061</ele>
        <time>2010-01-01T05:45:22Z</time>
      </trkpt>
      <trkpt lat="42.32847" lon="2.38234">
        <ele>1060</ele>
        <time>2010-01-01T05:45:24Z</time>
      </trkpt>
      <trkpt lat="42.32839" lon="2.38236">
        <ele>1059</ele>
        <time>2010-01-01T05:45:26Z</time>
      </trkpt>
      <trkpt lat="42.3283" lon="2.38242">
        <ele>1058</ele>
        <time>2010-01-01T05:45:31Z</time>
      </trkpt>
      <trkpt lat="42.32812" lon="2.38249">
        <ele>1057</ele>
        <time>2010-01-01T05:45:38Z</time>
      </trkpt>
      <trkpt lat="42.32795" lon="2.38259">
        <ele>1056</ele>
        <time>2010-01-01T05:45:45Z</time>
      </trkpt>
      <trkpt lat="42.3278" lon="2.38269">
        <ele>1056</ele>
        <time>2010-01-01T05:45:52Z</time>
      </trkpt>
      <trkpt lat="42.3277" lon="2.38278">
        <ele>1056</ele>
        <time>2010-01-01T05:45:57Z</time>
      </trkpt>
      <trkpt lat="42.32767" lon="2.38279">
        <ele>1057</ele>
        <time>2010-01-01T05:45:58Z</time>
      </trkpt>
      <trkpt lat="42.32759" lon="2.3829">
        <ele>1055</ele>
        <time>2010-01-01T05:46:03Z</time>
      </trkpt>
      <trkpt lat="42.32756" lon="2.38297">
        <ele>1054</ele>
        <time>2010-01-01T05:46:05Z</time>
      </trkpt>
      <trkpt lat="42.32751" lon="2.38301">
        <ele>1054</ele>
        <time>2010-01-01T05:46:08Z</time>
      </trkpt>
      <trkpt lat="42.3274" lon="2.38317">
        <ele>1052</ele>
        <time>2010-01-01T05:46:14Z</time>
      </trkpt>
      <trkpt lat="42.32729" lon="2.38326">
        <ele>1051</ele>
        <time>2010-01-01T05:46:19Z</time>
      </trkpt>
      <trkpt lat="42.32726" lon="2.38329">
        <ele>1050</ele>
        <time>2010-01-01T05:46:20Z</time>
      </trkpt>
      <trkpt lat="42.32713" lon="2.38345">
        <ele>1048</ele>
        <time>2010-01-01T05:46:28Z</time>
      </trkpt>
      <trkpt lat="42.32703" lon="2.38358">
        <ele>1045</ele>
        <time>2010-01-01T05:46:33Z</time>
      </trkpt>
      <trkpt lat="42.32701" lon="2.38362">
        <ele>1044</ele>
        <time>2010-01-01T05:46:35Z</time>
      </trkpt>
      <trkpt lat="42.3269" lon="2.38375">
        <ele>1042</ele>
        <time>2010-01-01T05:46:40Z</time>
      </trkpt>
      <trkpt lat="42.3268" lon="2.38388">
        <ele>1039</ele>
        <time>2010-01-01T05:46:46Z</time>
      </trkpt>
      <trkpt lat="42.32671" lon="2.38402">
        <ele>1036</ele>
        <time>2010-01-01T05:46:51Z</time>
      </trkpt>
      <trkpt lat="42.32666" lon="2.38412">
        <ele>1032</ele>
        <time>2010-01-01T05:46:55Z</time>
      </trkpt>
      <trkpt lat="42.32664" lon="2.38416">
        <ele>1031</ele>
        <time>2010-01-01T05:46:57Z</time>
      </trkpt>
      <trkpt lat="42.32659" lon="2.38423">
        <ele>1030</ele>
        <time>2010-01-01T05:46:59Z</time>
      </trkpt>
      <trkpt lat="42.32643" lon="2.38443">
        <ele>1025</ele>
        <time>2010-01-01T05:47:08Z</time>
      </trkpt>
      <trkpt lat="42.32628" lon="2.38453">
        <ele>1025</ele>
        <time>2010-01-01T05:47:15Z</time>
      </trkpt>
      <trkpt lat="42.32622" lon="2.38457">
        <ele>1025</ele>
        <time>2010-01-01T05:47:17Z</time>
      </trkpt>
      <trkpt lat="42.32618" lon="2.38462">
        <ele>1024</ele>
        <time>2010-01-01T05:47:20Z</time>
      </trkpt>
      <trkpt lat="42.32616" lon="2.38463">
        <ele>1024</ele>
        <time>2010-01-01T05:47:20Z</time>
      </trkpt>
      <trkpt lat="42.32616" lon="2.38463">
        <ele>1024</ele>
        <time>2010-01-01T05:47:21Z</time>
      </trkpt>
      <trkpt lat="42.32614" lon="2.38463">
        <ele>1024</ele>
        <time>2010-01-01T05:47:21Z</time>
      </trkpt>
      <trkpt lat="42.32612" lon="2.38466">
        <ele>1024</ele>
        <time>2010-01-01T05:47:22Z</time>
      </trkpt>
      <trkpt lat="42.3261" lon="2.38466">
        <ele>1024</ele>
        <time>2010-01-01T05:47:23Z</time>
      </trkpt>
      <trkpt lat="42.326" lon="2.38471">
        <ele>1022</ele>
        <time>2010-01-01T05:47:27Z</time>
      </trkpt>
      <trkpt lat="42.32591" lon="2.38474">
        <ele>1021</ele>
        <time>2010-01-01T05:47:31Z</time>
      </trkpt>
      <trkpt lat="42.32576" lon="2.38479">
        <ele>1018</ele>
        <time>2010-01-01T05:47:37Z</time>
      </trkpt>
      <trkpt lat="42.32557" lon="2.38492">
        <ele>1012</ele>
        <time>2010-01-01T05:47:46Z</time>
      </trkpt>
      <trkpt lat="42.3255" lon="2.38494">
        <ele>1010</ele>
        <time>2010-01-01T05:47:48Z</time>
      </trkpt>
      <trkpt lat="42.32534" lon="2.38489">
        <ele>1009</ele>
        <time>2010-01-01T05:47:55Z</time>
      </trkpt>
      <trkpt lat="42.32519" lon="2.38492">
        <ele>1006</ele>
        <time>2010-01-01T05:48:01Z</time>
      </trkpt>
      <trkpt lat="42.32511" lon="2.38492">
        <ele>1004</ele>
        <time>2010-01-01T05:48:05Z</time>
      </trkpt>
      <trkpt lat="42.32497" lon="2.38494">
        <ele>1001</ele>
        <time>2010-01-01T05:48:10Z</time>
      </trkpt>
      <trkpt lat="42.32489" lon="2.38496">
        <ele>1000</ele>
        <time>2010-01-01T05:48:13Z</time>
      </trkpt>
      <trkpt lat="42.32483" lon="2.38496">
        <ele>1000</ele>
        <time>2010-01-01T05:48:16Z</time>
      </trkpt>
      <trkpt lat="42.32483" lon="2.38495">
        <ele>1000</ele>
        <time>2010-01-01T05:48:16Z</time>
      </trkpt>
      <trkpt lat="42.32479" lon="2.38497">
        <ele>999</ele>
        <time>2010-01-01T05:48:18Z</time>
      </trkpt>
      <trkpt lat="42.32465" lon="2.38497">
        <ele>997</ele>
        <time>2010-01-01T05:48:23Z</time>
      </trkpt>
      <trkpt lat="42.32454" lon="2.38495">
        <ele>995</ele>
        <time>2010-01-01T05:48:28Z</time>
      </trkpt>
      <trkpt lat="42.32449" lon="2.38495">
        <ele>994</ele>
        <time>2010-01-01T05:48:30Z</time>
      </trkpt>
      <trkpt lat="42.32436" lon="2.38486">
        <ele>992</ele>
        <time>2010-01-01T05:48:36Z</time>
      </trkpt>
      <trkpt lat="42.32421" lon="2.38472">
        <ele>988</ele>
        <time>2010-01-01T05:48:43Z</time>
      </trkpt>
      <trkpt lat="42.32415" lon="2.38462">
        <ele>987</ele>
        <time>2010-01-01T05:48:47Z</time>
      </trkpt>
      <trkpt lat="42.32414" lon="2.38459">
        <ele>987</ele>
        <time>2010-01-01T05:48:48Z</time>
      </trkpt>
      <trkpt lat="42.32398" lon="2.38438">
        <ele>985</ele>
        <time>2010-01-01T05:48:57Z</time>
      </trkpt>
      <trkpt lat="42.32386" lon="2.38429">
        <ele>982</ele>
        <time>2010-01-01T05:49:02Z</time>
      </trkpt>
      <trkpt lat="42.32373" lon="2.38429">
        <ele>979</ele>
        <time>2010-01-01T05:49:07Z</time>
      </trkpt>
      <trkpt lat="42.32373" lon="2.38429">
        <ele>979</ele>
        <time>2010-01-01T05:49:07Z</time>
      </trkpt>
      <trkpt lat="42.32373" lon="2.38429">
        <ele>979</ele>
        <time>2010-01-01T05:49:08Z</time>
      </trkpt>
      <trkpt lat="42.32371" lon="2.38429">
        <ele>978</ele>
        <time>2010-01-01T05:49:08Z</time>
      </trkpt>
      <trkpt lat="42.32366" lon="2.38429">
        <ele>977</ele>
        <time>2010-01-01T05:49:10Z</time>
      </trkpt>
      <trkpt lat="42.32358" lon="2.38423">
        <ele>975</ele>
        <time>2010-01-01T05:49:14Z</time>
      </trkpt>
      <trkpt lat="42.32355" lon="2.38416">
        <ele>974</ele>
        <time>2010-01-01T05:49:16Z</time>
      </trkpt>
      <trkpt lat="42.32355" lon="2.38419">
        <ele>974</ele>
        <time>2010-01-01T05:49:17Z</time>
      </trkpt>
      <trkpt lat="42.32356" lon="2.38424">
        <ele>975</ele>
        <time>2010-01-01T05:49:19Z</time>
      </trkpt>
      <trkpt lat="42.32356" lon="2.38424">
        <ele>975</ele>
        <time>2010-01-01T05:49:19Z</time>
      </trkpt>
      <trkpt lat="42.32357" lon="2.38426">
        <ele>975</ele>
        <time>2010-01-01T05:49:19Z</time>
      </trkpt>
      <trkpt lat="42.32364" lon="2.3842">
        <ele>976</ele>
        <time>2010-01-01T05:49:23Z</time>
      </trkpt>
      <trkpt lat="42.32366" lon="2.38418">
        <ele>976</ele>
        <time>2010-01-01T05:49:24Z</time>
      </trkpt>
      <trkpt lat="42.32365" lon="2.38417">
        <ele>976</ele>
        <time>2010-01-01T05:49:24Z</time>
      </trkpt>
      <trkpt lat="42.32365" lon="2.38417">
        <ele>976</ele>
        <time>2010-01-01T05:49:24Z</time>
      </trkpt>
      <trkpt lat="42.32366" lon="2.38417">
        <ele>976</ele>
        <time>2010-01-01T05:49:24Z</time>
      </trkpt>
      <trkpt lat="42.32366" lon="2.38417">
        <ele>976</ele>
        <time>2010-01-01T05:49:24Z</time>
      </trkpt>
      <trkpt lat="42.32365" lon="2.38415">
        <ele>976</ele>
        <time>2010-01-01T05:49:25Z</time>
      </trkpt>
      <trkpt lat="42.32364" lon="2.3841">
        <ele>977</ele>
        <time>2010-01-01T05:49:26Z</time>
      </trkpt>
      <trkpt lat="42.32363" lon="2.38402">
        <ele>978</ele>
        <time>2010-01-01T05:49:29Z</time>
      </trkpt>
      <trkpt lat="42.32361" lon="2.38394">
        <ele>979</ele>
        <time>2010-01-01T05:49:32Z</time>
      </trkpt>
      <trkpt lat="42.32356" lon="2.38371">
        <ele>983</ele>
        <time>2010-01-01T05:49:39Z</time>
      </trkpt>
      <trkpt lat="42.32354" lon="2.38362">
        <ele>985</ele>
        <time>2010-01-01T05:49:41Z</time>
      </trkpt>
      <trkpt lat="42.32346" lon="2.38343">
        <ele>989</ele>
        <time>2010-01-01T05:49:48Z</time>
      </trkpt>
      <trkpt lat="42.32333" lon="2.38326">
        <ele>989</ele>
        <time>2010-01-01T05:49:55Z</time>
      </trkpt>
      <trkpt lat="42.32329" lon="2.38321">
        <ele>989</ele>
        <time>2010-01-01T05:49:57Z</time>
      </trkpt>
      <trkpt lat="42.32325" lon="2.38319">
        <ele>989</ele>
        <time>2010-01-01T05:49:59Z</time>
      </trkpt>
      <trkpt lat="42.32316" lon="2.38313">
        <ele>988</ele>
        <time>2010-01-01T05:50:03Z</time>
      </trkpt>
      <trkpt lat="42.32307" lon="2.38308">
        <ele>986</ele>
        <time>2010-01-01T05:50:07Z</time>
      </trkpt>
      <trkpt lat="42.32299" lon="2.38305">
        <ele>985</ele>
        <time>2010-01-01T05:50:10Z</time>
      </trkpt>
      <trkpt lat="42.32288" lon="2.38302">
        <ele>984</ele>
        <time>2010-01-01T05:50:15Z</time>
      </trkpt>
      <trkpt lat="42.32276" lon="2.38301">
        <ele>982</ele>
        <time>2010-01-01T05:50:19Z</time>
      </trkpt>
      <trkpt lat="42.32268" lon="2.38301">
        <ele>980</ele>
        <time>2010-01-01T05:50:23Z</time>
      </trkpt>
      <trkpt lat="42.32253" lon="2.38293">
        <ele>978</ele>
        <time>2010-01-01T05:50:29Z</time>
      </trkpt>
      <trkpt lat="42.32247" lon="2.38292">
        <ele>976</ele>
        <time>2010-01-01T05:50:32Z</time>
      </trkpt>
      <trkpt lat="42.3224" lon="2.3828">
        <ele>977</ele>
        <time>2010-01-01T05:50:36Z</time>
      </trkpt>
      <trkpt lat="42.32238" lon="2.38277">
        <ele>977</ele>
        <time>2010-01-01T05:50:37Z</time>
      </trkpt>
      <trkpt lat="42.32238" lon="2.38275">
        <ele>978</ele>
        <time>2010-01-01T05:50:38Z</time>
      </trkpt>
      <trkpt lat="42.32239" lon="2.38276">
        <ele>978</ele>
        <time>2010-01-01T05:50:38Z</time>
      </trkpt>
      <trkpt lat="42.32238" lon="2.38272">
        <ele>979</ele>
        <time>2010-01-01T05:50:39Z</time>
      </trkpt>
      <trkpt lat="42.32229" lon="2.38264">
        <ele>979</ele>
        <time>2010-01-01T05:50:43Z</time>
      </trkpt>
      <trkpt lat="42.32226" lon="2.38259">
        <ele>980</ele>
        <time>2010-01-01T05:50:45Z</time>
      </trkpt>
      <trkpt lat="42.32217" lon="2.38246">
        <ele>981</ele>
        <time>2010-01-01T05:50:51Z</time>
      </trkpt>
      <trkpt lat="42.3221" lon="2.38239">
        <ele>981</ele>
        <time>2010-01-01T05:50:54Z</time>
      </trkpt>
      <trkpt lat="42.32209" lon="2.38237">
        <ele>982</ele>
        <time>2010-01-01T05:50:55Z</time>
      </trkpt>
      <trkpt lat="42.32202" lon="2.38226">
        <ele>983</ele>
        <time>2010-01-01T05:50:59Z</time>
      </trkpt>
      <trkpt lat="42.322" lon="2.38221">
        <ele>983</ele>
        <time>2010-01-01T05:51:01Z</time>
      </trkpt>
      <trkpt lat="42.3219" lon="2.38205">
        <ele>985</ele>
        <time>2010-01-01T05:51:07Z</time>
      </trkpt>
      <trkpt lat="42.32185" lon="2.38198">
        <ele>985</ele>
        <time>2010-01-01T05:51:10Z</time>
      </trkpt>
      <trkpt lat="42.3218" lon="2.38191">
        <ele>985</ele>
        <time>2010-01-01T05:51:13Z</time>
      </trkpt>
      <trkpt lat="42.32171" lon="2.38175">
        <ele>984</ele>
        <time>2010-01-01T05:51:19Z</time>
      </trkpt>
      <trkpt lat="42.3216" lon="2.38164">
        <ele>982</ele>
        <time>2010-01-01T05:51:24Z</time>
      </trkpt>
      <trkpt lat="42.32149" lon="2.38148">
        <ele>981</ele>
        <time>2010-01-01T05:51:30Z</time>
      </trkpt>
      <trkpt lat="42.32146" lon="2.38141">
        <ele>981</ele>
        <time>2010-01-01T05:51:33Z</time>
      </trkpt>
      <trkpt lat="42.32135" lon="2.38124">
        <ele>981</ele>
        <time>2010-01-01T05:51:40Z</time>
      </trkpt>
      <trkpt lat="42.32129" lon="2.38114">
        <ele>982</ele>
        <time>2010-01-01T05:51:43Z</time>
      </trkpt>
      <trkpt lat="42.32125" lon="2.38105">
        <ele>983</ele>
        <time>2010-01-01T05:51:46Z</time>
      </trkpt>
      <trkpt lat="42.32113" lon="2.38081">
        <ele>984</ele>
        <time>2010-01-01T05:51:55Z</time>
      </trkpt>
      <trkpt lat="42.32105" lon="2.38062">
        <ele>983</ele>
        <time>2010-01-01T05:52:02Z</time>
      </trkpt>
      <trkpt lat="42.32098" lon="2.3804">
        <ele>983</ele>
        <time>2010-01-01T05:52:09Z</time>
      </trkpt>
      <trkpt lat="42.32095" lon="2.38033">
        <ele>983</ele>
        <time>2010-01-01T05:52:11Z</time>
      </trkpt>
      <trkpt lat="42.32091" lon="2.38021">
        <ele>984</ele>
        <time>2010-01-01T05:52:15Z</time>
      </trkpt>
      <trkpt lat="42.32085" lon="2.38012">
        <ele>985</ele>
        <time>2010-01-01T05:52:18Z</time>
      </trkpt>
      <trkpt lat="42.3208" lon="2.38008">
        <ele>985</ele>
        <time>2010-01-01T05:52:21Z</time>
      </trkpt>
      <trkpt lat="42.3208" lon="2.38008">
        <ele>985</ele>
        <time>2010-01-01T05:52:21Z</time>
      </trkpt>
      <trkpt lat="42.32079" lon="2.38007">
        <ele>985</ele>
        <time>2010-01-01T05:52:21Z</time>
      </trkpt>
      <trkpt lat="42.32067" lon="2.37994">
        <ele>985</ele>
        <time>2010-01-01T05:52:27Z</time>
      </trkpt>
      <trkpt lat="42.3205" lon="2.37989">
        <ele>983</ele>
        <time>2010-01-01T05:52:35Z</time>
      </trkpt>
      <trkpt lat="42.32041" lon="2.37985">
        <ele>982</ele>
        <time>2010-01-01T05:52:38Z</time>
      </trkpt>
      <trkpt lat="42.32035" lon="2.37985">
        <ele>981</ele>
        <time>2010-01-01T05:52:41Z</time>
      </trkpt>
      <trkpt lat="42.32026" lon="2.37977">
        <ele>980</ele>
        <time>2010-01-01T05:52:45Z</time>
      </trkpt>
      <trkpt lat="42.32023" lon="2.3797">
        <ele>979</ele>
        <time>2010-01-01T05:52:47Z</time>
      </trkpt>
      <trkpt lat="42.3202" lon="2.3796">
        <ele>979</ele>
        <time>2010-01-01T05:52:51Z</time>
      </trkpt>
      <trkpt lat="42.3202" lon="2.3794">
        <ele>980</ele>
        <time>2010-01-01T05:52:56Z</time>
      </trkpt>
      <trkpt lat="42.3202" lon="2.37918">
        <ele>981</ele>
        <time>2010-01-01T05:53:03Z</time>
      </trkpt>
      <trkpt lat="42.32019" lon="2.37913">
        <ele>981</ele>
        <time>2010-01-01T05:53:05Z</time>
      </trkpt>
      <trkpt lat="42.32014" lon="2.37904">
        <ele>981</ele>
        <time>2010-01-01T05:53:08Z</time>
      </trkpt>
      <trkpt lat="42.32008" lon="2.37916">
        <ele>978</ele>
        <time>2010-01-01T05:53:12Z</time>
      </trkpt>
      <trkpt lat="42.32003" lon="2.37929">
        <ele>976</ele>
        <time>2010-01-01T05:53:17Z</time>
      </trkpt>
      <trkpt lat="42.31986" lon="2.37936">
        <ele>972</ele>
        <time>2010-01-01T05:53:24Z</time>
      </trkpt>
      <trkpt lat="42.31979" lon="2.37928">
        <ele>972</ele>
        <time>2010-01-01T05:53:27Z</time>
      </trkpt>
      <trkpt lat="42.31977" lon="2.37926">
        <ele>971</ele>
        <time>2010-01-01T05:53:28Z</time>
      </trkpt>
      <trkpt lat="42.31973" lon="2.37918">
        <ele>971</ele>
        <time>2010-01-01T05:53:31Z</time>
      </trkpt>
      <trkpt lat="42.3196" lon="2.379">
        <ele>972</ele>
        <time>2010-01-01T05:53:39Z</time>
      </trkpt>
      <trkpt lat="42.31959" lon="2.37899">
        <ele>972</ele>
        <time>2010-01-01T05:53:39Z</time>
      </trkpt>
      <trkpt lat="42.3196" lon="2.37898">
        <ele>972</ele>
        <time>2010-01-01T05:53:40Z</time>
      </trkpt>
      <trkpt lat="42.31958" lon="2.37894">
        <ele>972</ele>
        <time>2010-01-01T05:53:41Z</time>
      </trkpt>
      <trkpt lat="42.31958" lon="2.37895">
        <ele>972</ele>
        <time>2010-01-01T05:53:41Z</time>
      </trkpt>
      <trkpt lat="42.31957" lon="2.37895">
        <ele>972</ele>
        <time>2010-01-01T05:53:42Z</time>
      </trkpt>
      <trkpt lat="42.31956" lon="2.37893">
        <ele>972</ele>
        <time>2010-01-01T05:53:42Z</time>
      </trkpt>
      <trkpt lat="42.31957" lon="2.37892">
        <ele>972</ele>
        <time>2010-01-01T05:53:43Z</time>
      </trkpt>
      <trkpt lat="42.31956" lon="2.37892">
        <ele>972</ele>
        <time>2010-01-01T05:53:43Z</time>
      </trkpt>
      <trkpt lat="42.31957" lon="2.37891">
        <ele>973</ele>
        <time>2010-01-01T05:53:43Z</time>
      </trkpt>
      <trkpt lat="42.31957" lon="2.37891">
        <ele>973</ele>
        <time>2010-01-01T05:53:43Z</time>
      </trkpt>
      <trkpt lat="42.31955" lon="2.37892">
        <ele>972</ele>
        <time>2010-01-01T05:53:44Z</time>
      </trkpt>
      <trkpt lat="42.31955" lon="2.37892">
        <ele>972</ele>
        <time>2010-01-01T05:53:44Z</time>
      </trkpt>
      <trkpt lat="42.31955" lon="2.37892">
        <ele>972</ele>
        <time>2010-01-01T05:53:45Z</time>
      </trkpt>
      <trkpt lat="42.31955" lon="2.37892">
        <ele>972</ele>
        <time>2010-01-01T05:53:45Z</time>
      </trkpt>
      <trkpt lat="42.31954" lon="2.37891">
        <ele>972</ele>
        <time>2010-01-01T05:53:45Z</time>
      </trkpt>
      <trkpt lat="42.31954" lon="2.37893">
        <ele>972</ele>
        <time>2010-01-01T05:53:46Z</time>
      </trkpt>
      <trkpt lat="42.31952" lon="2.37893">
        <ele>972</ele>
        <time>2010-01-01T05:53:47Z</time>
      </trkpt>
      <trkpt lat="42.31956" lon="2.37893">
        <ele>972</ele>
        <time>2010-01-01T05:53:48Z</time>
      </trkpt>
      <trkpt lat="42.31954" lon="2.37894">
        <ele>972</ele>
        <time>2010-01-01T05:53:49Z</time>
      </trkpt>
      <trkpt lat="42.31955" lon="2.37892">
        <ele>972</ele>
        <time>2010-01-01T05:53:49Z</time>
      </trkpt>
      <trkpt lat="42.31955" lon="2.37889">
        <ele>973</ele>
        <time>2010-01-01T05:53:50Z</time>
      </trkpt>
      <trkpt lat="42.31953" lon="2.37886">
        <ele>973</ele>
        <time>2010-01-01T05:53:51Z</time>
      </trkpt>
      <trkpt lat="42.3195" lon="2.37879">
        <ele>974</ele>
        <time>2010-01-01T05:53:54Z</time>
      </trkpt>
      <trkpt lat="42.31948" lon="2.37876">
        <ele>975</ele>
        <time>2010-01-01T05:53:55Z</time>
      </trkpt>
      <trkpt lat="42.31944" lon="2.37871">
        <ele>975</ele>
        <time>2010-01-01T05:53:57Z</time>
      </trkpt>
      <trkpt lat="42.31944" lon="2.37869">
        <ele>976</ele>
        <time>2010-01-01T05:53:58Z</time>
      </trkpt>
      <trkpt lat="42.31934" lon="2.3785">
        <ele>978</ele>
        <time>2010-01-01T05:54:05Z</time>
      </trkpt>
      <trkpt lat="42.31932" lon="2.37847">
        <ele>978</ele>
        <time>2010-01-01T05:54:06Z</time>
      </trkpt>
      <trkpt lat="42.3193" lon="2.37844">
        <ele>978</ele>
        <time>2010-01-01T05:54:07Z</time>
      </trkpt>
      <trkpt lat="42.31927" lon="2.3784">
        <ele>978</ele>
        <time>2010-01-01T05:54:08Z</time>
      </trkpt>
      <trkpt lat="42.31922" lon="2.37827">
        <ele>979</ele>
        <time>2010-01-01T05:54:13Z</time>
      </trkpt>
      <trkpt lat="42.31917" lon="2.37819">
        <ele>979</ele>
        <time>2010-01-01T05:54:16Z</time>
      </trkpt>
      <trkpt lat="42.31904" lon="2.37799">
        <ele>977</ele>
        <time>2010-01-01T05:54:24Z</time>
      </trkpt>
      <trkpt lat="42.31901" lon="2.37796">
        <ele>977</ele>
        <time>2010-01-01T05:54:26Z</time>
      </trkpt>
      <trkpt lat="42.31895" lon="2.37786">
        <ele>976</ele>
        <time>2010-01-01T05:54:29Z</time>
      </trkpt>
      <trkpt lat="42.31891" lon="2.3778">
        <ele>974</ele>
        <time>2010-01-01T05:54:31Z</time>
      </trkpt>
      <trkpt lat="42.31888" lon="2.37773">
        <ele>975</ele>
        <time>2010-01-01T05:54:34Z</time>
      </trkpt>
      <trkpt lat="42.31879" lon="2.3775">
        <ele>975</ele>
        <time>2010-01-01T05:54:42Z</time>
      </trkpt>
      <trkpt lat="42.31866" lon="2.37728">
        <ele>973</ele>
        <time>2010-01-01T05:54:50Z</time>
      </trkpt>
      <trkpt lat="42.31856" lon="2.37705">
        <ele>974</ele>
        <time>2010-01-01T05:54:58Z</time>
      </trkpt>
      <trkpt lat="42.31851" lon="2.37697">
        <ele>974</ele>
        <time>2010-01-01T05:55:01Z</time>
      </trkpt>
      <trkpt lat="42.31841" lon="2.37687">
        <ele>974</ele>
        <time>2010-01-01T05:55:06Z</time>
      </trkpt>
      <trkpt lat="42.31836" lon="2.37684">
        <ele>974</ele>
        <time>2010-01-01T05:55:08Z</time>
      </trkpt>
      <trkpt lat="42.31829" lon="2.37679">
        <ele>974</ele>
        <time>2010-01-01T05:55:11Z</time>
      </trkpt>
      <trkpt lat="42.31811" lon="2.37666">
        <ele>973</ele>
        <time>2010-01-01T05:55:19Z</time>
      </trkpt>
      <trkpt lat="42.31796" lon="2.37655">
        <ele>971</ele>
        <time>2010-01-01T05:55:26Z</time>
      </trkpt>
      <trkpt lat="42.3178" lon="2.3764">
        <ele>969</ele>
        <time>2010-01-01T05:55:34Z</time>
      </trkpt>
      <trkpt lat="42.31767" lon="2.37619">
        <ele>968</ele>
        <time>2010-01-01T05:55:42Z</time>
      </trkpt>
      <trkpt lat="42.3176" lon="2.37601">
        <ele>969</ele>
        <time>2010-01-01T05:55:48Z</time>
      </trkpt>
      <trkpt lat="42.31758" lon="2.37593">
        <ele>969</ele>
        <time>2010-01-01T05:55:51Z</time>
      </trkpt>
      <trkpt lat="42.31756" lon="2.37582">
        <ele>970</ele>
        <time>2010-01-01T05:55:54Z</time>
      </trkpt>
      <trkpt lat="42.3175" lon="2.3757">
        <ele>971</ele>
        <time>2010-01-01T05:55:59Z</time>
      </trkpt>
      <trkpt lat="42.3175" lon="2.37567">
        <ele>971</ele>
        <time>2010-01-01T05:55:59Z</time>
      </trkpt>
      <trkpt lat="42.31749" lon="2.37566">
        <ele>971</ele>
        <time>2010-01-01T05:56:00Z</time>
      </trkpt>
      <trkpt lat="42.31742" lon="2.37562">
        <ele>970</ele>
        <time>2010-01-01T05:56:03Z</time>
      </trkpt>
      <trkpt lat="42.31726" lon="2.37554">
        <ele>966</ele>
        <time>2010-01-01T05:56:09Z</time>
      </trkpt>
      <trkpt lat="42.31719" lon="2.37545">
        <ele>966</ele>
        <time>2010-01-01T05:56:14Z</time>
      </trkpt>
      <trkpt lat="42.31707" lon="2.37531">
        <ele>966</ele>
        <time>2010-01-01T05:56:20Z</time>
      </trkpt>
      <trkpt lat="42.31689" lon="2.37515">
        <ele>964</ele>
        <time>2010-01-01T05:56:29Z</time>
      </trkpt>
      <trkpt lat="42.31672" lon="2.37502">
        <ele>961</ele>
        <time>2010-01-01T05:56:36Z</time>
      </trkpt>
      <trkpt lat="42.31654" lon="2.3749">
        <ele>959</ele>
        <time>2010-01-01T05:56:44Z</time>
      </trkpt>
      <trkpt lat="42.31641" lon="2.37479">
        <ele>958</ele>
        <time>2010-01-01T05:56:51Z</time>
      </trkpt>
      <trkpt lat="42.31633" lon="2.37472">
        <ele>958</ele>
        <time>2010-01-01T05:56:54Z</time>
      </trkpt>
      <trkpt lat="42.3163" lon="2.37469">
        <ele>958</ele>
        <time>2010-01-01T05:56:56Z</time>
      </trkpt>
      <trkpt lat="42.31627" lon="2.37469">
        <ele>958</ele>
        <time>2010-01-01T05:56:57Z</time>
      </trkpt>
      <trkpt lat="42.31611" lon="2.3745">
        <ele>958</ele>
        <time>2010-01-01T05:57:05Z</time>
      </trkpt>
      <trkpt lat="42.31595" lon="2.37433">
        <ele>959</ele>
        <time>2010-01-01T05:57:14Z</time>
      </trkpt>
      <trkpt lat="42.31592" lon="2.37428">
        <ele>959</ele>
        <time>2010-01-01T05:57:16Z</time>
      </trkpt>
      <trkpt lat="42.31581" lon="2.37425">
        <ele>959</ele>
        <time>2010-01-01T05:57:20Z</time>
      </trkpt>
      <trkpt lat="42.31579" lon="2.37439">
        <ele>958</ele>
        <time>2010-01-01T05:57:24Z</time>
      </trkpt>
      <trkpt lat="42.31577" lon="2.37445">
        <ele>957</ele>
        <time>2010-01-01T05:57:26Z</time>
      </trkpt>
      <trkpt lat="42.31574" lon="2.37446">
        <ele>957</ele>
        <time>2010-01-01T05:57:28Z</time>
      </trkpt>
      <trkpt lat="42.31569" lon="2.37449">
        <ele>957</ele>
        <time>2010-01-01T05:57:30Z</time>
      </trkpt>
      <trkpt lat="42.31568" lon="2.37449">
        <ele>957</ele>
        <time>2010-01-01T05:57:30Z</time>
      </trkpt>
      <trkpt lat="42.31572" lon="2.37446">
        <ele>957</ele>
        <time>2010-01-01T05:57:32Z</time>
      </trkpt>
      <trkpt lat="42.31572" lon="2.37445">
        <ele>957</ele>
        <time>2010-01-01T05:57:32Z</time>
      </trkpt>
      <trkpt lat="42.31574" lon="2.37444">
        <ele>958</ele>
        <time>2010-01-01T05:57:33Z</time>
      </trkpt>
      <trkpt lat="42.31577" lon="2.37437">
        <ele>958</ele>
        <time>2010-01-01T05:57:35Z</time>
      </trkpt>
      <trkpt lat="42.31577" lon="2.37427">
        <ele>959</ele>
        <time>2010-01-01T05:57:38Z</time>
      </trkpt>
      <trkpt lat="42.31578" lon="2.37422">
        <ele>959</ele>
        <time>2010-01-01T05:57:39Z</time>
      </trkpt>
      <trkpt lat="42.31575" lon="2.37426">
        <ele>959</ele>
        <time>2010-01-01T05:57:41Z</time>
      </trkpt>
      <trkpt lat="42.31574" lon="2.37428">
        <ele>959</ele>
        <time>2010-01-01T05:57:42Z</time>
      </trkpt>
      <trkpt lat="42.31575" lon="2.37432">
        <ele>959</ele>
        <time>2010-01-01T05:57:43Z</time>
      </trkpt>
      <trkpt lat="42.31577" lon="2.37427">
        <ele>959</ele>
        <time>2010-01-01T05:57:45Z</time>
      </trkpt>
      <trkpt lat="42.31578" lon="2.37422">
        <ele>959</ele>
        <time>2010-01-01T05:57:46Z</time>
      </trkpt>
      <trkpt lat="42.31579" lon="2.37419">
        <ele>959</ele>
        <time>2010-01-01T05:57:47Z</time>
      </trkpt>
      <trkpt lat="42.3158" lon="2.37414">
        <ele>960</ele>
        <time>2010-01-01T05:57:48Z</time>
      </trkpt>
      <trkpt lat="42.31575" lon="2.37405">
        <ele>962</ele>
        <time>2010-01-01T05:57:52Z</time>
      </trkpt>
      <trkpt lat="42.31564" lon="2.37399">
        <ele>963</ele>
        <time>2010-01-01T05:57:57Z</time>
      </trkpt>
      <trkpt lat="42.31551" lon="2.37391">
        <ele>964</ele>
        <time>2010-01-01T05:58:02Z</time>
      </trkpt>
      <trkpt lat="42.31543" lon="2.37382">
        <ele>965</ele>
        <time>2010-01-01T05:58:06Z</time>
      </trkpt>
      <trkpt lat="42.31536" lon="2.37377">
        <ele>965</ele>
        <time>2010-01-01T05:58:09Z</time>
      </trkpt>
      <trkpt lat="42.31532" lon="2.37375">
        <ele>965</ele>
        <time>2010-01-01T05:58:11Z</time>
      </trkpt>
      <trkpt lat="42.31527" lon="2.37367">
        <ele>965</ele>
        <time>2010-01-01T05:58:14Z</time>
      </trkpt>
      <trkpt lat="42.31522" lon="2.37362">
        <ele>965</ele>
        <time>2010-01-01T05:58:17Z</time>
      </trkpt>
      <trkpt lat="42.31516" lon="2.37355">
        <ele>965</ele>
        <time>2010-01-01T05:58:20Z</time>
      </trkpt>
      <trkpt lat="42.31514" lon="2.37353">
        <ele>965</ele>
        <time>2010-01-01T05:58:21Z</time>
      </trkpt>
      <trkpt lat="42.31511" lon="2.37348">
        <ele>964</ele>
        <time>2010-01-01T05:58:23Z</time>
      </trkpt>
      <trkpt lat="42.31503" lon="2.37341">
        <ele>964</ele>
        <time>2010-01-01T05:58:27Z</time>
      </trkpt>
      <trkpt lat="42.31496" lon="2.37336">
        <ele>963</ele>
        <time>2010-01-01T05:58:30Z</time>
      </trkpt>
      <trkpt lat="42.31496" lon="2.37335">
        <ele>963</ele>
        <time>2010-01-01T05:58:30Z</time>
      </trkpt>
      <trkpt lat="42.31498" lon="2.37333">
        <ele>963</ele>
        <time>2010-01-01T05:58:31Z</time>
      </trkpt>
      <trkpt lat="42.31494" lon="2.37332">
        <ele>963</ele>
        <time>2010-01-01T05:58:33Z</time>
      </trkpt>
      <trkpt lat="42.31487" lon="2.37332">
        <ele>962</ele>
        <time>2010-01-01T05:58:35Z</time>
      </trkpt>
      <trkpt lat="42.31483" lon="2.3733">
        <ele>962</ele>
        <time>2010-01-01T05:58:37Z</time>
      </trkpt>
      <trkpt lat="42.31479" lon="2.37329">
        <ele>962</ele>
        <time>2010-01-01T05:58:39Z</time>
      </trkpt>
      <trkpt lat="42.3147" lon="2.37327">
        <ele>961</ele>
        <time>2010-01-01T05:58:42Z</time>
      </trkpt>
      <trkpt lat="42.31466" lon="2.37326">
        <ele>960</ele>
        <time>2010-01-01T05:58:44Z</time>
      </trkpt>
      <trkpt lat="42.31452" lon="2.37322">
        <ele>959</ele>
        <time>2010-01-01T05:58:50Z</time>
      </trkpt>
      <trkpt lat="42.3145" lon="2.37322">
        <ele>959</ele>
        <time>2010-01-01T05:58:51Z</time>
      </trkpt>
      <trkpt lat="42.31446" lon="2.37318">
        <ele>958</ele>
        <time>2010-01-01T05:58:53Z</time>
      </trkpt>
      <trkpt lat="42.31441" lon="2.37315">
        <ele>958</ele>
        <time>2010-01-01T05:58:55Z</time>
      </trkpt>
      <trkpt lat="42.31431" lon="2.37305">
        <ele>956</ele>
        <time>2010-01-01T05:59:00Z</time>
      </trkpt>
      <trkpt lat="42.3143" lon="2.37305">
        <ele>956</ele>
        <time>2010-01-01T05:59:00Z</time>
      </trkpt>
      <trkpt lat="42.31415" lon="2.37307">
        <ele>956</ele>
        <time>2010-01-01T05:59:06Z</time>
      </trkpt>
      <trkpt lat="42.31409" lon="2.37305">
        <ele>955</ele>
        <time>2010-01-01T05:59:09Z</time>
      </trkpt>
      <trkpt lat="42.31403" lon="2.37302">
        <ele>955</ele>
        <time>2010-01-01T05:59:11Z</time>
      </trkpt>
      <trkpt lat="42.31399" lon="2.37304">
        <ele>955</ele>
        <time>2010-01-01T05:59:13Z</time>
      </trkpt>
      <trkpt lat="42.31387" lon="2.37295">
        <ele>955</ele>
        <time>2010-01-01T05:59:18Z</time>
      </trkpt>
      <trkpt lat="42.31378" lon="2.37293">
        <ele>955</ele>
        <time>2010-01-01T05:59:22Z</time>
      </trkpt>
      <trkpt lat="42.31371" lon="2.37289">
        <ele>955</ele>
        <time>2010-01-01T05:59:25Z</time>
      </trkpt>
      <trkpt lat="42.31358" lon="2.37281">
        <ele>955</ele>
        <time>2010-01-01T05:59:31Z</time>
      </trkpt>
      <trkpt lat="42.31346" lon="2.37276">
        <ele>956</ele>
        <time>2010-01-01T05:59:36Z</time>
      </trkpt>
      <trkpt lat="42.31344" lon="2.3727">
        <ele>956</ele>
        <time>2010-01-01T05:59:38Z</time>
      </trkpt>
      <trkpt lat="42.31343" lon="2.37268">
        <ele>956</ele>
        <time>2010-01-01T05:59:39Z</time>
      </trkpt>
      <trkpt lat="42.31342" lon="2.37268">
        <ele>956</ele>
        <time>2010-01-01T05:59:39Z</time>
      </trkpt>
      <trkpt lat="42.31338" lon="2.37276">
        <ele>956</ele>
        <time>2010-01-01T05:59:42Z</time>
      </trkpt>
      <trkpt lat="42.31336" lon="2.37287">
        <ele>955</ele>
        <time>2010-01-01T05:59:45Z</time>
      </trkpt>
      <trkpt lat="42.31337" lon="2.37292">
        <ele>955</ele>
        <time>2010-01-01T05:59:47Z</time>
      </trkpt>
      <trkpt lat="42.31341" lon="2.37306">
        <ele>955</ele>
        <time>2010-01-01T05:59:51Z</time>
      </trkpt>
      <trkpt lat="42.31346" lon="2.37316">
        <ele>955</ele>
        <time>2010-01-01T05:59:55Z</time>
      </trkpt>
      <trkpt lat="42.31345" lon="2.37319">
        <ele>955</ele>
        <time>2010-01-01T05:59:56Z</time>
      </trkpt>
      <trkpt lat="42.31341" lon="2.37322">
        <ele>955</ele>
        <time>2010-01-01T05:59:58Z</time>
      </trkpt>
      <trkpt lat="42.31337" lon="2.37326">
        <ele>955</ele>
        <time>2010-01-01T06:00:00Z</time>
      </trkpt>
      <trkpt lat="42.31332" lon="2.37326">
        <ele>955</ele>
        <time>2010-01-01T06:00:02Z</time>
      </trkpt>
      <trkpt lat="42.3133" lon="2.37325">
        <ele>955</ele>
        <time>2010-01-01T06:00:03Z</time>
      </trkpt>
      <trkpt lat="42.31329" lon="2.37325">
        <ele>955</ele>
        <time>2010-01-01T06:00:03Z</time>
      </trkpt>
      <trkpt lat="42.31318" lon="2.3733">
        <ele>954</ele>
        <time>2010-01-01T06:00:08Z</time>
      </trkpt>
      <trkpt lat="42.31307" lon="2.37333">
        <ele>953</ele>
        <time>2010-01-01T06:00:12Z</time>
      </trkpt>
      <trkpt lat="42.31301" lon="2.37332">
        <ele>952</ele>
        <time>2010-01-01T06:00:15Z</time>
      </trkpt>
      <trkpt lat="42.31288" lon="2.37323">
        <ele>953</ele>
        <time>2010-01-01T06:00:20Z</time>
      </trkpt>
      <trkpt lat="42.31284" lon="2.37318">
        <ele>953</ele>
        <time>2010-01-01T06:00:23Z</time>
      </trkpt>
      <trkpt lat="42.3128" lon="2.37317">
        <ele>953</ele>
        <time>2010-01-01T06:00:24Z</time>
      </trkpt>
      <trkpt lat="42.3127" lon="2.37313">
        <ele>953</ele>
        <time>2010-01-01T06:00:28Z</time>
      </trkpt>
      <trkpt lat="42.31265" lon="2.37307">
        <ele>954</ele>
        <time>2010-01-01T06:00:31Z</time>
      </trkpt>
      <trkpt lat="42.31259" lon="2.37305">
        <ele>954</ele>
        <time>2010-01-01T06:00:33Z</time>
      </trkpt>
      <trkpt lat="42.31245" lon="2.37298">
        <ele>956</ele>
        <time>2010-01-01T06:00:39Z</time>
      </trkpt>
      <trkpt lat="42.31238" lon="2.37286">
        <ele>957</ele>
        <time>2010-01-01T06:00:44Z</time>
      </trkpt>
      <trkpt lat="42.3123" lon="2.37272">
        <ele>958</ele>
        <time>2010-01-01T06:00:49Z</time>
      </trkpt>
      <trkpt lat="42.31225" lon="2.37265">
        <ele>958</ele>
        <time>2010-01-01T06:00:52Z</time>
      </trkpt>
      <trkpt lat="42.31224" lon="2.37261">
        <ele>958</ele>
        <time>2010-01-01T06:00:54Z</time>
      </trkpt>
      <trkpt lat="42.31217" lon="2.3725">
        <ele>958</ele>
        <time>2010-01-01T06:00:58Z</time>
      </trkpt>
      <trkpt lat="42.31216" lon="2.37239">
        <ele>958</ele>
        <time>2010-01-01T06:01:01Z</time>
      </trkpt>
      <trkpt lat="42.31217" lon="2.3723">
        <ele>957</ele>
        <time>2010-01-01T06:01:04Z</time>
      </trkpt>
      <trkpt lat="42.3122" lon="2.3721">
        <ele>957</ele>
        <time>2010-01-01T06:01:10Z</time>
      </trkpt>
      <trkpt lat="42.31219" lon="2.37204">
        <ele>957</ele>
        <time>2010-01-01T06:01:12Z</time>
      </trkpt>
      <trkpt lat="42.3122" lon="2.372">
        <ele>957</ele>
        <time>2010-01-01T06:01:13Z</time>
      </trkpt>
      <trkpt lat="42.31229" lon="2.37179">
        <ele>957</ele>
        <time>2010-01-01T06:01:20Z</time>
      </trkpt>
      <trkpt lat="42.31232" lon="2.37163">
        <ele>957</ele>
        <time>2010-01-01T06:01:25Z</time>
      </trkpt>
      <trkpt lat="42.31232" lon="2.37162">
        <ele>957</ele>
        <time>2010-01-01T06:01:25Z</time>
      </trkpt>
      <trkpt lat="42.31233" lon="2.37159">
        <ele>957</ele>
        <time>2010-01-01T06:01:26Z</time>
      </trkpt>
      <trkpt lat="42.31238" lon="2.37139">
        <ele>959</ele>
        <time>2010-01-01T06:01:32Z</time>
      </trkpt>
      <trkpt lat="42.31241" lon="2.37113">
        <ele>959</ele>
        <time>2010-01-01T06:01:40Z</time>
      </trkpt>
      <trkpt lat="42.31241" lon="2.37097">
        <ele>960</ele>
        <time>2010-01-01T06:01:45Z</time>
      </trkpt>
      <trkpt lat="42.3124" lon="2.37081">
        <ele>960</ele>
        <time>2010-01-01T06:01:50Z</time>
      </trkpt>
      <trkpt lat="42.3125" lon="2.37052">
        <ele>960</ele>
        <time>2010-01-01T06:01:59Z</time>
      </trkpt>
      <trkpt lat="42.31255" lon="2.37044">
        <ele>959</ele>
        <time>2010-01-01T06:02:02Z</time>
      </trkpt>
      <trkpt lat="42.31261" lon="2.37029">
        <ele>958</ele>
        <time>2010-01-01T06:02:07Z</time>
      </trkpt>
      <trkpt lat="42.31267" lon="2.37005">
        <ele>957</ele>
        <time>2010-01-01T06:02:15Z</time>
      </trkpt>
      <trkpt lat="42.31272" lon="2.36988">
        <ele>956</ele>
        <time>2010-01-01T06:02:20Z</time>
      </trkpt>
      <trkpt lat="42.31273" lon="2.36984">
        <ele>956</ele>
        <time>2010-01-01T06:02:21Z</time>
      </trkpt>
      <trkpt lat="42.31274" lon="2.36971">
        <ele>956</ele>
        <time>2010-01-01T06:02:25Z</time>
      </trkpt>
      <trkpt lat="42.31275" lon="2.36951">
        <ele>955</ele>
        <time>2010-01-01T06:02:31Z</time>
      </trkpt>
      <trkpt lat="42.31277" lon="2.36931">
        <ele>954</ele>
        <time>2010-01-01T06:02:37Z</time>
      </trkpt>
      <trkpt lat="42.31278" lon="2.36915">
        <ele>954</ele>
        <time>2010-01-01T06:02:42Z</time>
      </trkpt>
      <trkpt lat="42.31278" lon="2.36913">
        <ele>954</ele>
        <time>2010-01-01T06:02:43Z</time>
      </trkpt>
      <trkpt lat="42.31283" lon="2.36894">
        <ele>955</ele>
        <time>2010-01-01T06:02:49Z</time>
      </trkpt>
      <trkpt lat="42.31287" lon="2.36873">
        <ele>956</ele>
        <time>2010-01-01T06:02:55Z</time>
      </trkpt>
      <trkpt lat="42.3129" lon="2.36852">
        <ele>956</ele>
        <time>2010-01-01T06:03:01Z</time>
      </trkpt>
      <trkpt lat="42.31291" lon="2.36849">
        <ele>956</ele>
        <time>2010-01-01T06:03:02Z</time>
      </trkpt>
      <trkpt lat="42.31291" lon="2.36846">
        <ele>956</ele>
        <time>2010-01-01T06:03:03Z</time>
      </trkpt>
      <trkpt lat="42.31296" lon="2.36823">
        <ele>954</ele>
        <time>2010-01-01T06:03:10Z</time>
      </trkpt>
      <trkpt lat="42.31295" lon="2.36811">
        <ele>954</ele>
        <time>2010-01-01T06:03:14Z</time>
      </trkpt>
      <trkpt lat="42.31287" lon="2.36804">
        <ele>956</ele>
        <time>2010-01-01T06:03:18Z</time>
      </trkpt>
      <trkpt lat="42.31285" lon="2.36804">
        <ele>957</ele>
        <time>2010-01-01T06:03:19Z</time>
      </trkpt>
      <trkpt lat="42.31283" lon="2.36806">
        <ele>957</ele>
        <time>2010-01-01T06:03:19Z</time>
      </trkpt>
      <trkpt lat="42.31275" lon="2.36804">
        <ele>960</ele>
        <time>2010-01-01T06:03:22Z</time>
      </trkpt>
      <trkpt lat="42.31273" lon="2.36804">
        <ele>960</ele>
        <time>2010-01-01T06:03:23Z</time>
      </trkpt>
      <trkpt lat="42.31263" lon="2.36805">
        <ele>963</ele>
        <time>2010-01-01T06:03:27Z</time>
      </trkpt>
      <trkpt lat="42.31259" lon="2.36807">
        <ele>964</ele>
        <time>2010-01-01T06:03:29Z</time>
      </trkpt>
      <trkpt lat="42.31256" lon="2.36809">
        <ele>964</ele>
        <time>2010-01-01T06:03:30Z</time>
      </trkpt>
      <trkpt lat="42.31251" lon="2.3681">
        <ele>965</ele>
        <time>2010-01-01T06:03:32Z</time>
      </trkpt>
      <trkpt lat="42.31248" lon="2.3681">
        <ele>966</ele>
        <time>2010-01-01T06:03:34Z</time>
      </trkpt>
      <trkpt lat="42.31246" lon="2.3681">
        <ele>966</ele>
        <time>2010-01-01T06:03:35Z</time>
      </trkpt>
      <trkpt lat="42.31241" lon="2.36813">
        <ele>966</ele>
        <time>2010-01-01T06:03:36Z</time>
      </trkpt>
      <trkpt lat="42.31238" lon="2.36812">
        <ele>966</ele>
        <time>2010-01-01T06:03:38Z</time>
      </trkpt>
      <trkpt lat="42.31236" lon="2.36813">
        <ele>966</ele>
        <time>2010-01-01T06:03:39Z</time>
      </trkpt>
      <trkpt lat="42.31228" lon="2.36814">
        <ele>967</ele>
        <time>2010-01-01T06:03:42Z</time>
      </trkpt>
      <trkpt lat="42.3122" lon="2.36814">
        <ele>968</ele>
        <time>2010-01-01T06:03:45Z</time>
      </trkpt>
      <trkpt lat="42.31213" lon="2.36824">
        <ele>966</ele>
        <time>2010-01-01T06:03:49Z</time>
      </trkpt>
      <trkpt lat="42.31206" lon="2.3683">
        <ele>965</ele>
        <time>2010-01-01T06:03:52Z</time>
      </trkpt>
      <trkpt lat="42.31196" lon="2.36829">
        <ele>966</ele>
        <time>2010-01-01T06:03:56Z</time>
      </trkpt>
      <trkpt lat="42.31194" lon="2.36828">
        <ele>967</ele>
        <time>2010-01-01T06:03:57Z</time>
      </trkpt>
      <trkpt lat="42.31192" lon="2.3683">
        <ele>967</ele>
        <time>2010-01-01T06:03:58Z</time>
      </trkpt>
      <trkpt lat="42.31191" lon="2.36831">
        <ele>966</ele>
        <time>2010-01-01T06:03:59Z</time>
      </trkpt>
      <trkpt lat="42.31195" lon="2.36829">
        <ele>966</ele>
        <time>2010-01-01T06:04:00Z</time>
      </trkpt>
    </trkseg>
  </trk>
</gpx>